<?xml version="1.0" encoding="UTF-8" standalone="no" ?>
<gpx xmlns="http://www.topografix.com/GPX/1/1" xmlns:xsi="http://www.w3.org/2001/XMLSchema-instance" xsi:schemaLocation="http://www.topografix.com/GPX/1/1 http://www.topografix.com/GPX/1/1/gpx.xsd" version="1.1" creator="VisuGPX - https://www.visugpx.com">
  <metadata>
    <name>Revel-prabert-Revel</name>
    <desc><![CDATA[File with points/tracks from Locus Map/3.41.0]]></desc>
  </metadata>
  <trk>
    <name><![CDATA[2019-11-25 13:36:29]]></name>
    <desc><![CDATA[Prabert]]></desc>
    <trkseg>
      <trkpt lat="45.18298" lon="5.87667">
        <ele>719.65</ele>
        <time>2019-11-25T12:36:30.000Z</time>
      </trkpt>
      <trkpt lat="45.18295" lon="5.87687">
        <ele>725</ele>
        <time>2019-11-25T12:36:35.000Z</time>
      </trkpt>
      <trkpt lat="45.18297" lon="5.87703">
        <ele>723.75</ele>
        <time>2019-11-25T12:36:40.000Z</time>
      </trkpt>
      <trkpt lat="45.18293" lon="5.87723">
        <ele>723.57</ele>
        <time>2019-11-25T12:36:45.000Z</time>
      </trkpt>
      <trkpt lat="45.18288" lon="5.87742">
        <ele>726.61</ele>
        <time>2019-11-25T12:36:50.000Z</time>
      </trkpt>
      <trkpt lat="45.18283" lon="5.87762">
        <ele>729.04</ele>
        <time>2019-11-25T12:36:55.000Z</time>
      </trkpt>
      <trkpt lat="45.18279" lon="5.87783">
        <ele>731.54</ele>
        <time>2019-11-25T12:37:00.000Z</time>
      </trkpt>
      <trkpt lat="45.18276" lon="5.87802">
        <ele>735.24</ele>
        <time>2019-11-25T12:37:05.000Z</time>
      </trkpt>
      <trkpt lat="45.18272" lon="5.87822">
        <ele>736.11</ele>
        <time>2019-11-25T12:37:10.000Z</time>
      </trkpt>
      <trkpt lat="45.18265" lon="5.87845">
        <ele>733.4</ele>
        <time>2019-11-25T12:37:15.000Z</time>
      </trkpt>
      <trkpt lat="45.18259" lon="5.87867">
        <ele>733.86</ele>
        <time>2019-11-25T12:37:20.000Z</time>
      </trkpt>
      <trkpt lat="45.18253" lon="5.87893">
        <ele>733.43</ele>
        <time>2019-11-25T12:37:25.000Z</time>
      </trkpt>
      <trkpt lat="45.18254" lon="5.87919">
        <ele>732.45</ele>
        <time>2019-11-25T12:37:30.000Z</time>
      </trkpt>
      <trkpt lat="45.18258" lon="5.87942">
        <ele>731.78</ele>
        <time>2019-11-25T12:37:35.000Z</time>
      </trkpt>
      <trkpt lat="45.18261" lon="5.87965">
        <ele>735.29</ele>
        <time>2019-11-25T12:37:40.000Z</time>
      </trkpt>
      <trkpt lat="45.18252" lon="5.87985">
        <ele>739.42</ele>
        <time>2019-11-25T12:37:45.000Z</time>
      </trkpt>
      <trkpt lat="45.18243" lon="5.88004">
        <ele>741.05</ele>
        <time>2019-11-25T12:37:50.000Z</time>
      </trkpt>
      <trkpt lat="45.18242" lon="5.88021">
        <ele>743.23</ele>
        <time>2019-11-25T12:37:55.000Z</time>
      </trkpt>
      <trkpt lat="45.18252" lon="5.88022">
        <ele>744.74</ele>
        <time>2019-11-25T12:38:00.000Z</time>
      </trkpt>
      <trkpt lat="45.18264" lon="5.88014">
        <ele>744.67</ele>
        <time>2019-11-25T12:38:05.000Z</time>
      </trkpt>
      <trkpt lat="45.18271" lon="5.87998">
        <ele>743.31</ele>
        <time>2019-11-25T12:38:10.000Z</time>
      </trkpt>
      <trkpt lat="45.18278" lon="5.8798">
        <ele>743.11</ele>
        <time>2019-11-25T12:38:15.000Z</time>
      </trkpt>
      <trkpt lat="45.18287" lon="5.87965">
        <ele>743.75</ele>
        <time>2019-11-25T12:38:20.000Z</time>
      </trkpt>
      <trkpt lat="45.18297" lon="5.8795">
        <ele>742.49</ele>
        <time>2019-11-25T12:38:25.000Z</time>
      </trkpt>
      <trkpt lat="45.18307" lon="5.87933">
        <ele>744.31</ele>
        <time>2019-11-25T12:38:30.000Z</time>
      </trkpt>
      <trkpt lat="45.18319" lon="5.87918">
        <ele>747</ele>
        <time>2019-11-25T12:38:35.000Z</time>
      </trkpt>
      <trkpt lat="45.1833" lon="5.87902">
        <ele>744.63</ele>
        <time>2019-11-25T12:38:40.000Z</time>
      </trkpt>
      <trkpt lat="45.18345" lon="5.87893">
        <ele>745.37</ele>
        <time>2019-11-25T12:38:45.000Z</time>
      </trkpt>
      <trkpt lat="45.18359" lon="5.87879">
        <ele>746.76</ele>
        <time>2019-11-25T12:38:50.000Z</time>
      </trkpt>
      <trkpt lat="45.18372" lon="5.87864">
        <ele>752.82</ele>
        <time>2019-11-25T12:38:55.000Z</time>
      </trkpt>
      <trkpt lat="45.18387" lon="5.87851">
        <ele>754.31</ele>
        <time>2019-11-25T12:39:00.000Z</time>
      </trkpt>
      <trkpt lat="45.184" lon="5.8784">
        <ele>750.02</ele>
        <time>2019-11-25T12:39:05.000Z</time>
      </trkpt>
      <trkpt lat="45.18413" lon="5.87827">
        <ele>751.35</ele>
        <time>2019-11-25T12:39:10.000Z</time>
      </trkpt>
      <trkpt lat="45.18428" lon="5.87814">
        <ele>754.55</ele>
        <time>2019-11-25T12:39:15.000Z</time>
      </trkpt>
      <trkpt lat="45.18443" lon="5.87805">
        <ele>756.96</ele>
        <time>2019-11-25T12:39:20.000Z</time>
      </trkpt>
      <trkpt lat="45.18457" lon="5.87801">
        <ele>757.62</ele>
        <time>2019-11-25T12:39:25.000Z</time>
      </trkpt>
      <trkpt lat="45.1847" lon="5.87798">
        <ele>760.25</ele>
        <time>2019-11-25T12:39:30.000Z</time>
      </trkpt>
      <trkpt lat="45.18486" lon="5.87802">
        <ele>762.47</ele>
        <time>2019-11-25T12:39:35.000Z</time>
      </trkpt>
      <trkpt lat="45.18501" lon="5.87812">
        <ele>763.36</ele>
        <time>2019-11-25T12:39:40.000Z</time>
      </trkpt>
      <trkpt lat="45.18515" lon="5.87819">
        <ele>765.1</ele>
        <time>2019-11-25T12:39:45.000Z</time>
      </trkpt>
      <trkpt lat="45.18532" lon="5.87828">
        <ele>767.43</ele>
        <time>2019-11-25T12:39:50.000Z</time>
      </trkpt>
      <trkpt lat="45.18548" lon="5.87841">
        <ele>769.15</ele>
        <time>2019-11-25T12:39:55.000Z</time>
      </trkpt>
      <trkpt lat="45.1856" lon="5.8785">
        <ele>770.19</ele>
        <time>2019-11-25T12:40:00.000Z</time>
      </trkpt>
      <trkpt lat="45.18571" lon="5.87857">
        <ele>766.88</ele>
        <time>2019-11-25T12:40:05.000Z</time>
      </trkpt>
      <trkpt lat="45.18589" lon="5.87865">
        <ele>772.53</ele>
        <time>2019-11-25T12:40:10.000Z</time>
      </trkpt>
      <trkpt lat="45.18607" lon="5.87871">
        <ele>776.62</ele>
        <time>2019-11-25T12:40:15.000Z</time>
      </trkpt>
      <trkpt lat="45.18622" lon="5.87881">
        <ele>781.27</ele>
        <time>2019-11-25T12:40:20.000Z</time>
      </trkpt>
      <trkpt lat="45.18636" lon="5.87896">
        <ele>785.57</ele>
        <time>2019-11-25T12:40:25.000Z</time>
      </trkpt>
      <trkpt lat="45.1865" lon="5.87912">
        <ele>787.35</ele>
        <time>2019-11-25T12:40:30.000Z</time>
      </trkpt>
      <trkpt lat="45.18663" lon="5.87927">
        <ele>788.37</ele>
        <time>2019-11-25T12:40:35.000Z</time>
      </trkpt>
      <trkpt lat="45.18673" lon="5.87945">
        <ele>790.3</ele>
        <time>2019-11-25T12:40:40.000Z</time>
      </trkpt>
      <trkpt lat="45.18681" lon="5.87965">
        <ele>795.98</ele>
        <time>2019-11-25T12:40:45.000Z</time>
      </trkpt>
      <trkpt lat="45.1869" lon="5.87987">
        <ele>798.67</ele>
        <time>2019-11-25T12:40:50.000Z</time>
      </trkpt>
      <trkpt lat="45.18699" lon="5.88009">
        <ele>798.72</ele>
        <time>2019-11-25T12:40:55.000Z</time>
      </trkpt>
      <trkpt lat="45.18704" lon="5.88032">
        <ele>798</ele>
        <time>2019-11-25T12:41:00.000Z</time>
      </trkpt>
      <trkpt lat="45.1871" lon="5.88053">
        <ele>799.86</ele>
        <time>2019-11-25T12:41:05.000Z</time>
      </trkpt>
      <trkpt lat="45.18714" lon="5.88076">
        <ele>802.18</ele>
        <time>2019-11-25T12:41:10.000Z</time>
      </trkpt>
      <trkpt lat="45.18715" lon="5.88098">
        <ele>803.53</ele>
        <time>2019-11-25T12:41:15.000Z</time>
      </trkpt>
      <trkpt lat="45.18714" lon="5.88121">
        <ele>805.44</ele>
        <time>2019-11-25T12:41:20.000Z</time>
      </trkpt>
      <trkpt lat="45.18711" lon="5.88146">
        <ele>807.09</ele>
        <time>2019-11-25T12:41:25.000Z</time>
      </trkpt>
      <trkpt lat="45.18709" lon="5.88166">
        <ele>806.87</ele>
        <time>2019-11-25T12:41:30.000Z</time>
      </trkpt>
      <trkpt lat="45.18708" lon="5.88186">
        <ele>807.97</ele>
        <time>2019-11-25T12:41:35.000Z</time>
      </trkpt>
      <trkpt lat="45.18705" lon="5.88212">
        <ele>812.93</ele>
        <time>2019-11-25T12:41:40.000Z</time>
      </trkpt>
      <trkpt lat="45.18705" lon="5.88237">
        <ele>811.52</ele>
        <time>2019-11-25T12:41:45.000Z</time>
      </trkpt>
      <trkpt lat="45.18707" lon="5.88262">
        <ele>815.55</ele>
        <time>2019-11-25T12:41:50.000Z</time>
      </trkpt>
      <trkpt lat="45.18715" lon="5.88286">
        <ele>814.18</ele>
        <time>2019-11-25T12:41:55.000Z</time>
      </trkpt>
      <trkpt lat="45.18728" lon="5.88303">
        <ele>815.76</ele>
        <time>2019-11-25T12:42:00.000Z</time>
      </trkpt>
      <trkpt lat="45.1874" lon="5.88324">
        <ele>815.19</ele>
        <time>2019-11-25T12:42:05.000Z</time>
      </trkpt>
      <trkpt lat="45.18754" lon="5.88344">
        <ele>817.48</ele>
        <time>2019-11-25T12:42:10.000Z</time>
      </trkpt>
      <trkpt lat="45.18764" lon="5.88366">
        <ele>817.01</ele>
        <time>2019-11-25T12:42:15.000Z</time>
      </trkpt>
      <trkpt lat="45.18782" lon="5.8839">
        <ele>817.85</ele>
        <time>2019-11-25T12:42:20.000Z</time>
      </trkpt>
      <trkpt lat="45.18793" lon="5.88415">
        <ele>813.58</ele>
        <time>2019-11-25T12:42:25.000Z</time>
      </trkpt>
      <trkpt lat="45.18803" lon="5.88438">
        <ele>811.68</ele>
        <time>2019-11-25T12:42:30.000Z</time>
      </trkpt>
      <trkpt lat="45.1882" lon="5.88459">
        <ele>812.32</ele>
        <time>2019-11-25T12:42:35.000Z</time>
      </trkpt>
      <trkpt lat="45.1884" lon="5.88472">
        <ele>815.42</ele>
        <time>2019-11-25T12:42:40.000Z</time>
      </trkpt>
      <trkpt lat="45.18864" lon="5.88475">
        <ele>816.05</ele>
        <time>2019-11-25T12:42:45.000Z</time>
      </trkpt>
      <trkpt lat="45.18896" lon="5.88473">
        <ele>820.77</ele>
        <time>2019-11-25T12:42:50.000Z</time>
      </trkpt>
      <trkpt lat="45.18925" lon="5.88466">
        <ele>821.82</ele>
        <time>2019-11-25T12:42:55.000Z</time>
      </trkpt>
      <trkpt lat="45.18953" lon="5.88461">
        <ele>825.42</ele>
        <time>2019-11-25T12:43:00.000Z</time>
      </trkpt>
      <trkpt lat="45.18987" lon="5.88459">
        <ele>827.55</ele>
        <time>2019-11-25T12:43:05.000Z</time>
      </trkpt>
      <trkpt lat="45.19013" lon="5.88459">
        <ele>826.44</ele>
        <time>2019-11-25T12:43:10.000Z</time>
      </trkpt>
      <trkpt lat="45.19034" lon="5.88457">
        <ele>828.57</ele>
        <time>2019-11-25T12:43:15.000Z</time>
      </trkpt>
      <trkpt lat="45.19052" lon="5.88454">
        <ele>826.44</ele>
        <time>2019-11-25T12:43:20.000Z</time>
      </trkpt>
      <trkpt lat="45.19071" lon="5.88455">
        <ele>825.8</ele>
        <time>2019-11-25T12:43:25.000Z</time>
      </trkpt>
      <trkpt lat="45.19088" lon="5.88457">
        <ele>829.71</ele>
        <time>2019-11-25T12:43:30.000Z</time>
      </trkpt>
      <trkpt lat="45.19106" lon="5.8846">
        <ele>829.27</ele>
        <time>2019-11-25T12:43:35.000Z</time>
      </trkpt>
      <trkpt lat="45.19125" lon="5.88463">
        <ele>826.33</ele>
        <time>2019-11-25T12:43:40.000Z</time>
      </trkpt>
      <trkpt lat="45.19145" lon="5.88467">
        <ele>824.85</ele>
        <time>2019-11-25T12:43:45.000Z</time>
      </trkpt>
      <trkpt lat="45.19166" lon="5.88469">
        <ele>827.89</ele>
        <time>2019-11-25T12:43:50.000Z</time>
      </trkpt>
      <trkpt lat="45.19186" lon="5.88474">
        <ele>829.05</ele>
        <time>2019-11-25T12:43:55.000Z</time>
      </trkpt>
      <trkpt lat="45.19206" lon="5.88474">
        <ele>834.3</ele>
        <time>2019-11-25T12:44:00.000Z</time>
      </trkpt>
      <trkpt lat="45.19227" lon="5.8847">
        <ele>835.88</ele>
        <time>2019-11-25T12:44:05.000Z</time>
      </trkpt>
      <trkpt lat="45.19247" lon="5.88462">
        <ele>836.87</ele>
        <time>2019-11-25T12:44:10.000Z</time>
      </trkpt>
      <trkpt lat="45.19266" lon="5.88455">
        <ele>838.03</ele>
        <time>2019-11-25T12:44:15.000Z</time>
      </trkpt>
      <trkpt lat="45.19286" lon="5.88449">
        <ele>839.55</ele>
        <time>2019-11-25T12:44:20.000Z</time>
      </trkpt>
      <trkpt lat="45.19306" lon="5.88443">
        <ele>840.37</ele>
        <time>2019-11-25T12:44:25.000Z</time>
      </trkpt>
      <trkpt lat="45.19326" lon="5.8844">
        <ele>840.03</ele>
        <time>2019-11-25T12:44:30.000Z</time>
      </trkpt>
      <trkpt lat="45.19345" lon="5.88433">
        <ele>840.6</ele>
        <time>2019-11-25T12:44:35.000Z</time>
      </trkpt>
      <trkpt lat="45.19362" lon="5.88421">
        <ele>839.68</ele>
        <time>2019-11-25T12:44:40.000Z</time>
      </trkpt>
      <trkpt lat="45.19374" lon="5.88396">
        <ele>844.55</ele>
        <time>2019-11-25T12:44:45.000Z</time>
      </trkpt>
      <trkpt lat="45.1938" lon="5.88369">
        <ele>845.36</ele>
        <time>2019-11-25T12:44:50.000Z</time>
      </trkpt>
      <trkpt lat="45.19385" lon="5.88343">
        <ele>844.29</ele>
        <time>2019-11-25T12:44:55.000Z</time>
      </trkpt>
      <trkpt lat="45.19389" lon="5.88317">
        <ele>845.61</ele>
        <time>2019-11-25T12:45:00.000Z</time>
      </trkpt>
      <trkpt lat="45.19398" lon="5.88291">
        <ele>845.95</ele>
        <time>2019-11-25T12:45:05.000Z</time>
      </trkpt>
      <trkpt lat="45.19401" lon="5.88263">
        <ele>847.85</ele>
        <time>2019-11-25T12:45:10.000Z</time>
      </trkpt>
      <trkpt lat="45.19396" lon="5.88234">
        <ele>847.78</ele>
        <time>2019-11-25T12:45:15.000Z</time>
      </trkpt>
      <trkpt lat="45.19408" lon="5.88211">
        <ele>852.18</ele>
        <time>2019-11-25T12:45:20.000Z</time>
      </trkpt>
      <trkpt lat="45.19421" lon="5.88187">
        <ele>854.57</ele>
        <time>2019-11-25T12:45:25.000Z</time>
      </trkpt>
      <trkpt lat="45.19426" lon="5.88158">
        <ele>857.56</ele>
        <time>2019-11-25T12:45:30.000Z</time>
      </trkpt>
      <trkpt lat="45.19432" lon="5.88129">
        <ele>861.12</ele>
        <time>2019-11-25T12:45:35.000Z</time>
      </trkpt>
      <trkpt lat="45.19436" lon="5.88102">
        <ele>862.7</ele>
        <time>2019-11-25T12:45:40.000Z</time>
      </trkpt>
      <trkpt lat="45.19435" lon="5.88073">
        <ele>863.16</ele>
        <time>2019-11-25T12:45:45.000Z</time>
      </trkpt>
      <trkpt lat="45.1943" lon="5.88047">
        <ele>865.3</ele>
        <time>2019-11-25T12:45:50.000Z</time>
      </trkpt>
      <trkpt lat="45.1942" lon="5.88022">
        <ele>866.79</ele>
        <time>2019-11-25T12:45:55.000Z</time>
      </trkpt>
      <trkpt lat="45.19407" lon="5.87999">
        <ele>871.95</ele>
        <time>2019-11-25T12:46:00.000Z</time>
      </trkpt>
      <trkpt lat="45.19392" lon="5.87977">
        <ele>873.29</ele>
        <time>2019-11-25T12:46:05.000Z</time>
      </trkpt>
      <trkpt lat="45.19378" lon="5.87956">
        <ele>872.9</ele>
        <time>2019-11-25T12:46:10.000Z</time>
      </trkpt>
      <trkpt lat="45.19363" lon="5.87934">
        <ele>871.83</ele>
        <time>2019-11-25T12:46:15.000Z</time>
      </trkpt>
      <trkpt lat="45.19352" lon="5.87909">
        <ele>872.3</ele>
        <time>2019-11-25T12:46:20.000Z</time>
      </trkpt>
      <trkpt lat="45.19347" lon="5.87881">
        <ele>879.6</ele>
        <time>2019-11-25T12:46:25.000Z</time>
      </trkpt>
      <trkpt lat="45.19346" lon="5.87853">
        <ele>878.86</ele>
        <time>2019-11-25T12:46:30.000Z</time>
      </trkpt>
      <trkpt lat="45.19348" lon="5.87825">
        <ele>877.9</ele>
        <time>2019-11-25T12:46:35.000Z</time>
      </trkpt>
      <trkpt lat="45.1935" lon="5.87797">
        <ele>877.72</ele>
        <time>2019-11-25T12:46:40.000Z</time>
      </trkpt>
      <trkpt lat="45.19351" lon="5.87771">
        <ele>875.03</ele>
        <time>2019-11-25T12:46:45.000Z</time>
      </trkpt>
      <trkpt lat="45.19353" lon="5.87741">
        <ele>877.04</ele>
        <time>2019-11-25T12:46:50.000Z</time>
      </trkpt>
      <trkpt lat="45.19357" lon="5.87715">
        <ele>877.12</ele>
        <time>2019-11-25T12:46:55.000Z</time>
      </trkpt>
      <trkpt lat="45.19364" lon="5.87698">
        <ele>875.53</ele>
        <time>2019-11-25T12:47:00.000Z</time>
      </trkpt>
      <trkpt lat="45.19374" lon="5.87686">
        <ele>875.2</ele>
        <time>2019-11-25T12:47:05.000Z</time>
      </trkpt>
      <trkpt lat="45.19388" lon="5.87674">
        <ele>877.33</ele>
        <time>2019-11-25T12:47:10.000Z</time>
      </trkpt>
      <trkpt lat="45.19402" lon="5.87667">
        <ele>879.34</ele>
        <time>2019-11-25T12:47:15.000Z</time>
      </trkpt>
      <trkpt lat="45.19419" lon="5.87666">
        <ele>880.26</ele>
        <time>2019-11-25T12:47:20.000Z</time>
      </trkpt>
      <trkpt lat="45.19437" lon="5.8767">
        <ele>878.41</ele>
        <time>2019-11-25T12:47:25.000Z</time>
      </trkpt>
      <trkpt lat="45.1946" lon="5.87672">
        <ele>877.1</ele>
        <time>2019-11-25T12:47:30.000Z</time>
      </trkpt>
      <trkpt lat="45.1949" lon="5.8767">
        <ele>876.68</ele>
        <time>2019-11-25T12:47:35.000Z</time>
      </trkpt>
      <trkpt lat="45.19524" lon="5.87668">
        <ele>873.24</ele>
        <time>2019-11-25T12:47:40.000Z</time>
      </trkpt>
      <trkpt lat="45.1956" lon="5.87649">
        <ele>871.93</ele>
        <time>2019-11-25T12:47:45.000Z</time>
      </trkpt>
      <trkpt lat="45.19594" lon="5.87613">
        <ele>869.62</ele>
        <time>2019-11-25T12:47:50.000Z</time>
      </trkpt>
      <trkpt lat="45.1963" lon="5.87573">
        <ele>867.89</ele>
        <time>2019-11-25T12:47:55.000Z</time>
      </trkpt>
      <trkpt lat="45.19666" lon="5.87526">
        <ele>865.05</ele>
        <time>2019-11-25T12:48:00.000Z</time>
      </trkpt>
      <trkpt lat="45.19686" lon="5.87462">
        <ele>866.02</ele>
        <time>2019-11-25T12:48:05.000Z</time>
      </trkpt>
      <trkpt lat="45.19686" lon="5.87396">
        <ele>867.19</ele>
        <time>2019-11-25T12:48:10.000Z</time>
      </trkpt>
      <trkpt lat="45.19685" lon="5.87331">
        <ele>865.44</ele>
        <time>2019-11-25T12:48:15.000Z</time>
      </trkpt>
      <trkpt lat="45.19679" lon="5.87268">
        <ele>865.15</ele>
        <time>2019-11-25T12:48:20.000Z</time>
      </trkpt>
      <trkpt lat="45.1967" lon="5.87218">
        <ele>866.31</ele>
        <time>2019-11-25T12:48:25.000Z</time>
      </trkpt>
      <trkpt lat="45.1965" lon="5.8718">
        <ele>865.34</ele>
        <time>2019-11-25T12:48:30.000Z</time>
      </trkpt>
      <trkpt lat="45.1963" lon="5.87155">
        <ele>868.45</ele>
        <time>2019-11-25T12:48:35.000Z</time>
      </trkpt>
      <trkpt lat="45.19611" lon="5.87127">
        <ele>868.41</ele>
        <time>2019-11-25T12:48:40.000Z</time>
      </trkpt>
      <trkpt lat="45.19591" lon="5.87104">
        <ele>870.2</ele>
        <time>2019-11-25T12:48:45.000Z</time>
      </trkpt>
      <trkpt lat="45.19574" lon="5.87076">
        <ele>869.27</ele>
        <time>2019-11-25T12:48:50.000Z</time>
      </trkpt>
      <trkpt lat="45.19558" lon="5.87057">
        <ele>864.82</ele>
        <time>2019-11-25T12:48:55.000Z</time>
      </trkpt>
      <trkpt lat="45.19545" lon="5.87027">
        <ele>865.21</ele>
        <time>2019-11-25T12:49:00.000Z</time>
      </trkpt>
      <trkpt lat="45.19536" lon="5.86994">
        <ele>867.42</ele>
        <time>2019-11-25T12:49:05.000Z</time>
      </trkpt>
      <trkpt lat="45.19529" lon="5.8695">
        <ele>865.99</ele>
        <time>2019-11-25T12:49:10.000Z</time>
      </trkpt>
      <trkpt lat="45.19532" lon="5.86899">
        <ele>862.1</ele>
        <time>2019-11-25T12:49:15.000Z</time>
      </trkpt>
      <trkpt lat="45.19568" lon="5.86866">
        <ele>858.54</ele>
        <time>2019-11-25T12:49:20.000Z</time>
      </trkpt>
      <trkpt lat="45.19618" lon="5.86861">
        <ele>855.48</ele>
        <time>2019-11-25T12:49:25.000Z</time>
      </trkpt>
      <trkpt lat="45.19671" lon="5.86859">
        <ele>854.28</ele>
        <time>2019-11-25T12:49:30.000Z</time>
      </trkpt>
      <trkpt lat="45.19714" lon="5.86828">
        <ele>853.02</ele>
        <time>2019-11-25T12:49:35.000Z</time>
      </trkpt>
      <trkpt lat="45.19719" lon="5.86757">
        <ele>849.08</ele>
        <time>2019-11-25T12:49:40.000Z</time>
      </trkpt>
      <trkpt lat="45.19762" lon="5.86721">
        <ele>843.14</ele>
        <time>2019-11-25T12:49:45.000Z</time>
      </trkpt>
      <trkpt lat="45.19826" lon="5.86731">
        <ele>841.97</ele>
        <time>2019-11-25T12:49:50.000Z</time>
      </trkpt>
      <trkpt lat="45.19894" lon="5.86731">
        <ele>838.92</ele>
        <time>2019-11-25T12:49:55.000Z</time>
      </trkpt>
      <trkpt lat="45.19958" lon="5.86719">
        <ele>834.22</ele>
        <time>2019-11-25T12:50:00.000Z</time>
      </trkpt>
      <trkpt lat="45.20033" lon="5.86726">
        <ele>832.68</ele>
        <time>2019-11-25T12:50:05.000Z</time>
      </trkpt>
      <trkpt lat="45.20068" lon="5.8681">
        <ele>825</ele>
        <time>2019-11-25T12:50:10.000Z</time>
      </trkpt>
      <trkpt lat="45.20086" lon="5.8689">
        <ele>820.84</ele>
        <time>2019-11-25T12:50:15.000Z</time>
      </trkpt>
      <trkpt lat="45.20084" lon="5.86975">
        <ele>819.31</ele>
        <time>2019-11-25T12:50:20.000Z</time>
      </trkpt>
      <trkpt lat="45.20072" lon="5.87063">
        <ele>815.1</ele>
        <time>2019-11-25T12:50:25.000Z</time>
      </trkpt>
      <trkpt lat="45.20066" lon="5.87153">
        <ele>805.15</ele>
        <time>2019-11-25T12:50:30.000Z</time>
      </trkpt>
      <trkpt lat="45.20109" lon="5.87227">
        <ele>800.7</ele>
        <time>2019-11-25T12:50:35.000Z</time>
      </trkpt>
      <trkpt lat="45.20141" lon="5.87311">
        <ele>799.83</ele>
        <time>2019-11-25T12:50:40.000Z</time>
      </trkpt>
      <trkpt lat="45.20161" lon="5.87394">
        <ele>798.79</ele>
        <time>2019-11-25T12:50:45.000Z</time>
      </trkpt>
      <trkpt lat="45.20132" lon="5.87462">
        <ele>791.97</ele>
        <time>2019-11-25T12:50:50.000Z</time>
      </trkpt>
      <trkpt lat="45.20114" lon="5.87541">
        <ele>783.73</ele>
        <time>2019-11-25T12:50:55.000Z</time>
      </trkpt>
      <trkpt lat="45.20131" lon="5.87615">
        <ele>778</ele>
        <time>2019-11-25T12:51:00.000Z</time>
      </trkpt>
      <trkpt lat="45.20141" lon="5.87697">
        <ele>779.07</ele>
        <time>2019-11-25T12:51:05.000Z</time>
      </trkpt>
      <trkpt lat="45.20133" lon="5.87779">
        <ele>776.67</ele>
        <time>2019-11-25T12:51:10.000Z</time>
      </trkpt>
      <trkpt lat="45.20129" lon="5.8786">
        <ele>771.74</ele>
        <time>2019-11-25T12:51:15.000Z</time>
      </trkpt>
      <trkpt lat="45.20146" lon="5.8795">
        <ele>765.46</ele>
        <time>2019-11-25T12:51:20.000Z</time>
      </trkpt>
      <trkpt lat="45.20161" lon="5.88031">
        <ele>762.25</ele>
        <time>2019-11-25T12:51:25.000Z</time>
      </trkpt>
      <trkpt lat="45.2016" lon="5.88118">
        <ele>759.49</ele>
        <time>2019-11-25T12:51:30.000Z</time>
      </trkpt>
      <trkpt lat="45.20194" lon="5.88186">
        <ele>755.57</ele>
        <time>2019-11-25T12:51:35.000Z</time>
      </trkpt>
      <trkpt lat="45.20247" lon="5.88223">
        <ele>749.95</ele>
        <time>2019-11-25T12:51:40.000Z</time>
      </trkpt>
      <trkpt lat="45.20304" lon="5.88205">
        <ele>740.33</ele>
        <time>2019-11-25T12:51:45.000Z</time>
      </trkpt>
      <trkpt lat="45.2035" lon="5.88158">
        <ele>732.98</ele>
        <time>2019-11-25T12:51:50.000Z</time>
      </trkpt>
      <trkpt lat="45.20401" lon="5.88137">
        <ele>730.45</ele>
        <time>2019-11-25T12:51:55.000Z</time>
      </trkpt>
      <trkpt lat="45.20447" lon="5.88143">
        <ele>727.05</ele>
        <time>2019-11-25T12:52:00.000Z</time>
      </trkpt>
      <trkpt lat="45.20488" lon="5.88151">
        <ele>723.01</ele>
        <time>2019-11-25T12:52:05.000Z</time>
      </trkpt>
      <trkpt lat="45.20526" lon="5.88141">
        <ele>719.97</ele>
        <time>2019-11-25T12:52:10.000Z</time>
      </trkpt>
      <trkpt lat="45.20561" lon="5.88143">
        <ele>717.05</ele>
        <time>2019-11-25T12:52:15.000Z</time>
      </trkpt>
      <trkpt lat="45.20587" lon="5.88173">
        <ele>712.79</ele>
        <time>2019-11-25T12:52:20.000Z</time>
      </trkpt>
      <trkpt lat="45.20599" lon="5.88216">
        <ele>710.69</ele>
        <time>2019-11-25T12:52:25.000Z</time>
      </trkpt>
      <trkpt lat="45.20617" lon="5.88247">
        <ele>712.24</ele>
        <time>2019-11-25T12:52:30.000Z</time>
      </trkpt>
      <trkpt lat="45.20641" lon="5.88256">
        <ele>712.13</ele>
        <time>2019-11-25T12:52:35.000Z</time>
      </trkpt>
      <trkpt lat="45.20652" lon="5.88269">
        <ele>713.63</ele>
        <time>2019-11-25T12:52:40.000Z</time>
      </trkpt>
      <trkpt lat="45.20661" lon="5.88291">
        <ele>714.64</ele>
        <time>2019-11-25T12:52:45.000Z</time>
      </trkpt>
      <trkpt lat="45.20671" lon="5.88311">
        <ele>716.02</ele>
        <time>2019-11-25T12:52:50.000Z</time>
      </trkpt>
      <trkpt lat="45.20681" lon="5.88333">
        <ele>715.71</ele>
        <time>2019-11-25T12:52:55.000Z</time>
      </trkpt>
      <trkpt lat="45.20697" lon="5.8835">
        <ele>719.07</ele>
        <time>2019-11-25T12:53:00.000Z</time>
      </trkpt>
      <trkpt lat="45.20715" lon="5.88353">
        <ele>722.66</ele>
        <time>2019-11-25T12:53:05.000Z</time>
      </trkpt>
      <trkpt lat="45.20735" lon="5.88349">
        <ele>724.12</ele>
        <time>2019-11-25T12:53:10.000Z</time>
      </trkpt>
      <trkpt lat="45.20754" lon="5.88346">
        <ele>727.94</ele>
        <time>2019-11-25T12:53:15.000Z</time>
      </trkpt>
      <trkpt lat="45.20773" lon="5.88342">
        <ele>727</ele>
        <time>2019-11-25T12:53:20.000Z</time>
      </trkpt>
      <trkpt lat="45.20791" lon="5.88332">
        <ele>729.08</ele>
        <time>2019-11-25T12:53:25.000Z</time>
      </trkpt>
      <trkpt lat="45.20809" lon="5.88322">
        <ele>729.96</ele>
        <time>2019-11-25T12:53:30.000Z</time>
      </trkpt>
      <trkpt lat="45.20827" lon="5.88321">
        <ele>729.77</ele>
        <time>2019-11-25T12:53:35.000Z</time>
      </trkpt>
      <trkpt lat="45.20847" lon="5.8831">
        <ele>730.28</ele>
        <time>2019-11-25T12:53:40.000Z</time>
      </trkpt>
      <trkpt lat="45.20861" lon="5.88291">
        <ele>730.46</ele>
        <time>2019-11-25T12:53:45.000Z</time>
      </trkpt>
      <trkpt lat="45.20878" lon="5.88278">
        <ele>727.4</ele>
        <time>2019-11-25T12:53:50.000Z</time>
      </trkpt>
      <trkpt lat="45.20895" lon="5.88276">
        <ele>725.5</ele>
        <time>2019-11-25T12:53:55.000Z</time>
      </trkpt>
      <trkpt lat="45.20914" lon="5.88279">
        <ele>730.25</ele>
        <time>2019-11-25T12:54:00.000Z</time>
      </trkpt>
      <trkpt lat="45.20932" lon="5.88286">
        <ele>731.06</ele>
        <time>2019-11-25T12:54:05.000Z</time>
      </trkpt>
      <trkpt lat="45.20952" lon="5.88292">
        <ele>734.01</ele>
        <time>2019-11-25T12:54:10.000Z</time>
      </trkpt>
      <trkpt lat="45.20972" lon="5.88296">
        <ele>735.22</ele>
        <time>2019-11-25T12:54:15.000Z</time>
      </trkpt>
      <trkpt lat="45.20991" lon="5.883">
        <ele>733.92</ele>
        <time>2019-11-25T12:54:20.000Z</time>
      </trkpt>
      <trkpt lat="45.21011" lon="5.88301">
        <ele>736.48</ele>
        <time>2019-11-25T12:54:25.000Z</time>
      </trkpt>
      <trkpt lat="45.2103" lon="5.88302">
        <ele>737.68</ele>
        <time>2019-11-25T12:54:30.000Z</time>
      </trkpt>
      <trkpt lat="45.21047" lon="5.88308">
        <ele>738.2</ele>
        <time>2019-11-25T12:54:35.000Z</time>
      </trkpt>
      <trkpt lat="45.21062" lon="5.88321">
        <ele>740.17</ele>
        <time>2019-11-25T12:54:40.000Z</time>
      </trkpt>
      <trkpt lat="45.21077" lon="5.88335">
        <ele>741.12</ele>
        <time>2019-11-25T12:54:45.000Z</time>
      </trkpt>
      <trkpt lat="45.21096" lon="5.88345">
        <ele>741.52</ele>
        <time>2019-11-25T12:54:50.000Z</time>
      </trkpt>
      <trkpt lat="45.21117" lon="5.88349">
        <ele>739.83</ele>
        <time>2019-11-25T12:54:55.000Z</time>
      </trkpt>
      <trkpt lat="45.21137" lon="5.88352">
        <ele>741.84</ele>
        <time>2019-11-25T12:55:00.000Z</time>
      </trkpt>
      <trkpt lat="45.21158" lon="5.88358">
        <ele>741.78</ele>
        <time>2019-11-25T12:55:05.000Z</time>
      </trkpt>
      <trkpt lat="45.21181" lon="5.88367">
        <ele>739.09</ele>
        <time>2019-11-25T12:55:10.000Z</time>
      </trkpt>
      <trkpt lat="45.21204" lon="5.88366">
        <ele>736.75</ele>
        <time>2019-11-25T12:55:15.000Z</time>
      </trkpt>
      <trkpt lat="45.21229" lon="5.88367">
        <ele>734.9</ele>
        <time>2019-11-25T12:55:20.000Z</time>
      </trkpt>
      <trkpt lat="45.21258" lon="5.88366">
        <ele>737.68</ele>
        <time>2019-11-25T12:55:25.000Z</time>
      </trkpt>
      <trkpt lat="45.21286" lon="5.88363">
        <ele>737.54</ele>
        <time>2019-11-25T12:55:30.000Z</time>
      </trkpt>
      <trkpt lat="45.21314" lon="5.88352">
        <ele>737.98</ele>
        <time>2019-11-25T12:55:35.000Z</time>
      </trkpt>
      <trkpt lat="45.21343" lon="5.88337">
        <ele>738.58</ele>
        <time>2019-11-25T12:55:40.000Z</time>
      </trkpt>
      <trkpt lat="45.21369" lon="5.88322">
        <ele>742.05</ele>
        <time>2019-11-25T12:55:45.000Z</time>
      </trkpt>
      <trkpt lat="45.21395" lon="5.88324">
        <ele>746.71</ele>
        <time>2019-11-25T12:55:50.000Z</time>
      </trkpt>
      <trkpt lat="45.21413" lon="5.88345">
        <ele>745.84</ele>
        <time>2019-11-25T12:55:55.000Z</time>
      </trkpt>
      <trkpt lat="45.21422" lon="5.88374">
        <ele>747.7</ele>
        <time>2019-11-25T12:56:00.000Z</time>
      </trkpt>
      <trkpt lat="45.21419" lon="5.88403">
        <ele>750.52</ele>
        <time>2019-11-25T12:56:05.000Z</time>
      </trkpt>
      <trkpt lat="45.21419" lon="5.88436">
        <ele>751.61</ele>
        <time>2019-11-25T12:56:10.000Z</time>
      </trkpt>
      <trkpt lat="45.21421" lon="5.88469">
        <ele>754.95</ele>
        <time>2019-11-25T12:56:15.000Z</time>
      </trkpt>
      <trkpt lat="45.21427" lon="5.88498">
        <ele>757.23</ele>
        <time>2019-11-25T12:56:20.000Z</time>
      </trkpt>
      <trkpt lat="45.21439" lon="5.88527">
        <ele>760.59</ele>
        <time>2019-11-25T12:56:25.000Z</time>
      </trkpt>
      <trkpt lat="45.2145" lon="5.88553">
        <ele>758.77</ele>
        <time>2019-11-25T12:56:30.000Z</time>
      </trkpt>
      <trkpt lat="45.21461" lon="5.88578">
        <ele>759.18</ele>
        <time>2019-11-25T12:56:35.000Z</time>
      </trkpt>
      <trkpt lat="45.21471" lon="5.88603">
        <ele>758.7</ele>
        <time>2019-11-25T12:56:40.000Z</time>
      </trkpt>
      <trkpt lat="45.2148" lon="5.88621">
        <ele>758.24</ele>
        <time>2019-11-25T12:56:45.000Z</time>
      </trkpt>
      <trkpt lat="45.21489" lon="5.88643">
        <ele>757.51</ele>
        <time>2019-11-25T12:56:50.000Z</time>
      </trkpt>
      <trkpt lat="45.21495" lon="5.88668">
        <ele>756.69</ele>
        <time>2019-11-25T12:56:55.000Z</time>
      </trkpt>
      <trkpt lat="45.21505" lon="5.88688">
        <ele>761.51</ele>
        <time>2019-11-25T12:57:00.000Z</time>
      </trkpt>
      <trkpt lat="45.21514" lon="5.88709">
        <ele>763.77</ele>
        <time>2019-11-25T12:57:05.000Z</time>
      </trkpt>
      <trkpt lat="45.21528" lon="5.88726">
        <ele>762.8</ele>
        <time>2019-11-25T12:57:10.000Z</time>
      </trkpt>
      <trkpt lat="45.21544" lon="5.88739">
        <ele>767.28</ele>
        <time>2019-11-25T12:57:15.000Z</time>
      </trkpt>
      <trkpt lat="45.2156" lon="5.88752">
        <ele>766.87</ele>
        <time>2019-11-25T12:57:20.000Z</time>
      </trkpt>
      <trkpt lat="45.21573" lon="5.88768">
        <ele>769.88</ele>
        <time>2019-11-25T12:57:25.000Z</time>
      </trkpt>
      <trkpt lat="45.21587" lon="5.88788">
        <ele>772.68</ele>
        <time>2019-11-25T12:57:30.000Z</time>
      </trkpt>
      <trkpt lat="45.21601" lon="5.88808">
        <ele>773.14</ele>
        <time>2019-11-25T12:57:35.000Z</time>
      </trkpt>
      <trkpt lat="45.21616" lon="5.88821">
        <ele>776.9</ele>
        <time>2019-11-25T12:57:40.000Z</time>
      </trkpt>
      <trkpt lat="45.21636" lon="5.88831">
        <ele>779.26</ele>
        <time>2019-11-25T12:57:45.000Z</time>
      </trkpt>
      <trkpt lat="45.21654" lon="5.88841">
        <ele>782.66</ele>
        <time>2019-11-25T12:57:50.000Z</time>
      </trkpt>
      <trkpt lat="45.21671" lon="5.8885">
        <ele>786.34</ele>
        <time>2019-11-25T12:57:55.000Z</time>
      </trkpt>
      <trkpt lat="45.21688" lon="5.88857">
        <ele>790.1</ele>
        <time>2019-11-25T12:58:00.000Z</time>
      </trkpt>
      <trkpt lat="45.217" lon="5.88857">
        <ele>792.54</ele>
        <time>2019-11-25T12:58:05.000Z</time>
      </trkpt>
      <trkpt lat="45.21697" lon="5.88872">
        <ele>794.35</ele>
        <time>2019-11-25T13:00:13.000Z</time>
      </trkpt>
      <trkpt lat="45.21704" lon="5.88896">
        <ele>795.69</ele>
        <time>2019-11-25T13:00:18.000Z</time>
      </trkpt>
      <trkpt lat="45.21689" lon="5.88924">
        <ele>795.77</ele>
        <time>2019-11-25T13:00:23.000Z</time>
      </trkpt>
      <trkpt lat="45.21656" lon="5.88944">
        <ele>790.53</ele>
        <time>2019-11-25T13:00:28.000Z</time>
      </trkpt>
      <trkpt lat="45.21622" lon="5.88974">
        <ele>788.92</ele>
        <time>2019-11-25T13:00:33.000Z</time>
      </trkpt>
      <trkpt lat="45.21584" lon="5.89012">
        <ele>786.98</ele>
        <time>2019-11-25T13:00:38.000Z</time>
      </trkpt>
      <trkpt lat="45.21538" lon="5.89035">
        <ele>788.79</ele>
        <time>2019-11-25T13:00:43.000Z</time>
      </trkpt>
      <trkpt lat="45.21492" lon="5.89057">
        <ele>788.65</ele>
        <time>2019-11-25T13:00:48.000Z</time>
      </trkpt>
      <trkpt lat="45.21439" lon="5.89078">
        <ele>789.11</ele>
        <time>2019-11-25T13:00:53.000Z</time>
      </trkpt>
      <trkpt lat="45.21386" lon="5.89107">
        <ele>785.53</ele>
        <time>2019-11-25T13:00:58.000Z</time>
      </trkpt>
      <trkpt lat="45.21334" lon="5.89145">
        <ele>786.56</ele>
        <time>2019-11-25T13:01:03.000Z</time>
      </trkpt>
      <trkpt lat="45.2128" lon="5.89171">
        <ele>781.32</ele>
        <time>2019-11-25T13:01:08.000Z</time>
      </trkpt>
      <trkpt lat="45.21225" lon="5.89203">
        <ele>775.52</ele>
        <time>2019-11-25T13:01:13.000Z</time>
      </trkpt>
      <trkpt lat="45.21193" lon="5.89261">
        <ele>771.52</ele>
        <time>2019-11-25T13:01:18.000Z</time>
      </trkpt>
      <trkpt lat="45.21155" lon="5.89304">
        <ele>766.75</ele>
        <time>2019-11-25T13:01:23.000Z</time>
      </trkpt>
      <trkpt lat="45.21109" lon="5.89345">
        <ele>763.11</ele>
        <time>2019-11-25T13:01:28.000Z</time>
      </trkpt>
      <trkpt lat="45.21076" lon="5.894">
        <ele>760.03</ele>
        <time>2019-11-25T13:01:33.000Z</time>
      </trkpt>
      <trkpt lat="45.21048" lon="5.89448">
        <ele>759.63</ele>
        <time>2019-11-25T13:01:38.000Z</time>
      </trkpt>
      <trkpt lat="45.21029" lon="5.89501">
        <ele>760.08</ele>
        <time>2019-11-25T13:01:43.000Z</time>
      </trkpt>
      <trkpt lat="45.21026" lon="5.89562">
        <ele>758.48</ele>
        <time>2019-11-25T13:01:48.000Z</time>
      </trkpt>
      <trkpt lat="45.21026" lon="5.89615">
        <ele>758.02</ele>
        <time>2019-11-25T13:01:53.000Z</time>
      </trkpt>
      <trkpt lat="45.21015" lon="5.8966">
        <ele>757.35</ele>
        <time>2019-11-25T13:01:58.000Z</time>
      </trkpt>
      <trkpt lat="45.20995" lon="5.89695">
        <ele>756.72</ele>
        <time>2019-11-25T13:02:03.000Z</time>
      </trkpt>
      <trkpt lat="45.20975" lon="5.89728">
        <ele>755.47</ele>
        <time>2019-11-25T13:02:08.000Z</time>
      </trkpt>
      <trkpt lat="45.20979" lon="5.89775">
        <ele>754.7</ele>
        <time>2019-11-25T13:02:13.000Z</time>
      </trkpt>
      <trkpt lat="45.2101" lon="5.89781">
        <ele>750.26</ele>
        <time>2019-11-25T13:02:18.000Z</time>
      </trkpt>
      <trkpt lat="45.21043" lon="5.8977">
        <ele>749.84</ele>
        <time>2019-11-25T13:02:23.000Z</time>
      </trkpt>
      <trkpt lat="45.21068" lon="5.89767">
        <ele>752.52</ele>
        <time>2019-11-25T13:02:28.000Z</time>
      </trkpt>
      <trkpt lat="45.21087" lon="5.8978">
        <ele>756.33</ele>
        <time>2019-11-25T13:02:33.000Z</time>
      </trkpt>
      <trkpt lat="45.21108" lon="5.89785">
        <ele>761.22</ele>
        <time>2019-11-25T13:02:38.000Z</time>
      </trkpt>
      <trkpt lat="45.2113" lon="5.89776">
        <ele>761.54</ele>
        <time>2019-11-25T13:02:43.000Z</time>
      </trkpt>
      <trkpt lat="45.21142" lon="5.89767">
        <ele>761.11</ele>
        <time>2019-11-25T13:02:48.000Z</time>
      </trkpt>
      <trkpt lat="45.21163" lon="5.89758">
        <ele>760.73</ele>
        <time>2019-11-25T13:02:53.000Z</time>
      </trkpt>
      <trkpt lat="45.21188" lon="5.89766">
        <ele>756.73</ele>
        <time>2019-11-25T13:02:58.000Z</time>
      </trkpt>
      <trkpt lat="45.21214" lon="5.89781">
        <ele>756.53</ele>
        <time>2019-11-25T13:03:03.000Z</time>
      </trkpt>
      <trkpt lat="45.21237" lon="5.89792">
        <ele>756.14</ele>
        <time>2019-11-25T13:03:08.000Z</time>
      </trkpt>
      <trkpt lat="45.21261" lon="5.89789">
        <ele>750.94</ele>
        <time>2019-11-25T13:03:13.000Z</time>
      </trkpt>
      <trkpt lat="45.21282" lon="5.8979">
        <ele>749.71</ele>
        <time>2019-11-25T13:03:18.000Z</time>
      </trkpt>
      <trkpt lat="45.21305" lon="5.89785">
        <ele>747.46</ele>
        <time>2019-11-25T13:03:23.000Z</time>
      </trkpt>
      <trkpt lat="45.21333" lon="5.89769">
        <ele>747.21</ele>
        <time>2019-11-25T13:03:28.000Z</time>
      </trkpt>
      <trkpt lat="45.21361" lon="5.89752">
        <ele>743.17</ele>
        <time>2019-11-25T13:03:33.000Z</time>
      </trkpt>
      <trkpt lat="45.21392" lon="5.89736">
        <ele>744.21</ele>
        <time>2019-11-25T13:03:38.000Z</time>
      </trkpt>
      <trkpt lat="45.21426" lon="5.89728">
        <ele>741.12</ele>
        <time>2019-11-25T13:03:43.000Z</time>
      </trkpt>
      <trkpt lat="45.21459" lon="5.89731">
        <ele>738.56</ele>
        <time>2019-11-25T13:03:48.000Z</time>
      </trkpt>
      <trkpt lat="45.21496" lon="5.89746">
        <ele>738.76</ele>
        <time>2019-11-25T13:03:53.000Z</time>
      </trkpt>
      <trkpt lat="45.2153" lon="5.89766">
        <ele>736.32</ele>
        <time>2019-11-25T13:03:58.000Z</time>
      </trkpt>
      <trkpt lat="45.21564" lon="5.89789">
        <ele>733.45</ele>
        <time>2019-11-25T13:04:03.000Z</time>
      </trkpt>
      <trkpt lat="45.21599" lon="5.89813">
        <ele>730.95</ele>
        <time>2019-11-25T13:04:08.000Z</time>
      </trkpt>
      <trkpt lat="45.21631" lon="5.89837">
        <ele>730.49</ele>
        <time>2019-11-25T13:04:13.000Z</time>
      </trkpt>
      <trkpt lat="45.21661" lon="5.89864">
        <ele>729.44</ele>
        <time>2019-11-25T13:04:18.000Z</time>
      </trkpt>
      <trkpt lat="45.2169" lon="5.89891">
        <ele>730.91</ele>
        <time>2019-11-25T13:04:23.000Z</time>
      </trkpt>
      <trkpt lat="45.21722" lon="5.89912">
        <ele>730.6</ele>
        <time>2019-11-25T13:04:28.000Z</time>
      </trkpt>
      <trkpt lat="45.21758" lon="5.8993">
        <ele>727.78</ele>
        <time>2019-11-25T13:04:33.000Z</time>
      </trkpt>
      <trkpt lat="45.21794" lon="5.89953">
        <ele>724.78</ele>
        <time>2019-11-25T13:04:38.000Z</time>
      </trkpt>
      <trkpt lat="45.21831" lon="5.89974">
        <ele>725.88</ele>
        <time>2019-11-25T13:04:43.000Z</time>
      </trkpt>
      <trkpt lat="45.21868" lon="5.89995">
        <ele>723.06</ele>
        <time>2019-11-25T13:04:48.000Z</time>
      </trkpt>
      <trkpt lat="45.21907" lon="5.90023">
        <ele>722.48</ele>
        <time>2019-11-25T13:04:53.000Z</time>
      </trkpt>
      <trkpt lat="45.21935" lon="5.90052">
        <ele>722.06</ele>
        <time>2019-11-25T13:04:58.000Z</time>
      </trkpt>
      <trkpt lat="45.21939" lon="5.90097">
        <ele>721.16</ele>
        <time>2019-11-25T13:05:03.000Z</time>
      </trkpt>
      <trkpt lat="45.21935" lon="5.90145">
        <ele>719.9</ele>
        <time>2019-11-25T13:05:08.000Z</time>
      </trkpt>
      <trkpt lat="45.21958" lon="5.90191">
        <ele>722.3</ele>
        <time>2019-11-25T13:05:13.000Z</time>
      </trkpt>
      <trkpt lat="45.21985" lon="5.90226">
        <ele>718</ele>
        <time>2019-11-25T13:05:18.000Z</time>
      </trkpt>
      <trkpt lat="45.22025" lon="5.9025">
        <ele>717.59</ele>
        <time>2019-11-25T13:05:23.000Z</time>
      </trkpt>
      <trkpt lat="45.22064" lon="5.90257">
        <ele>714.99</ele>
        <time>2019-11-25T13:05:28.000Z</time>
      </trkpt>
      <trkpt lat="45.221" lon="5.90243">
        <ele>714.52</ele>
        <time>2019-11-25T13:05:33.000Z</time>
      </trkpt>
      <trkpt lat="45.22128" lon="5.90223">
        <ele>713.26</ele>
        <time>2019-11-25T13:05:38.000Z</time>
      </trkpt>
      <trkpt lat="45.22155" lon="5.90202">
        <ele>714.6</ele>
        <time>2019-11-25T13:05:43.000Z</time>
      </trkpt>
      <trkpt lat="45.22176" lon="5.9018">
        <ele>713.7</ele>
        <time>2019-11-25T13:05:48.000Z</time>
      </trkpt>
      <trkpt lat="45.22195" lon="5.90153">
        <ele>712.8</ele>
        <time>2019-11-25T13:05:53.000Z</time>
      </trkpt>
      <trkpt lat="45.22214" lon="5.9013">
        <ele>708.51</ele>
        <time>2019-11-25T13:05:58.000Z</time>
      </trkpt>
      <trkpt lat="45.22239" lon="5.90119">
        <ele>705.05</ele>
        <time>2019-11-25T13:06:03.000Z</time>
      </trkpt>
      <trkpt lat="45.22267" lon="5.90125">
        <ele>705.38</ele>
        <time>2019-11-25T13:06:08.000Z</time>
      </trkpt>
      <trkpt lat="45.22294" lon="5.9015">
        <ele>699.41</ele>
        <time>2019-11-25T13:06:13.000Z</time>
      </trkpt>
      <trkpt lat="45.22325" lon="5.90169">
        <ele>701.41</ele>
        <time>2019-11-25T13:06:18.000Z</time>
      </trkpt>
      <trkpt lat="45.22355" lon="5.90198">
        <ele>700.58</ele>
        <time>2019-11-25T13:06:23.000Z</time>
      </trkpt>
      <trkpt lat="45.22376" lon="5.90244">
        <ele>699.41</ele>
        <time>2019-11-25T13:06:28.000Z</time>
      </trkpt>
      <trkpt lat="45.22397" lon="5.90289">
        <ele>702.85</ele>
        <time>2019-11-25T13:06:33.000Z</time>
      </trkpt>
      <trkpt lat="45.22423" lon="5.90337">
        <ele>701.51</ele>
        <time>2019-11-25T13:06:38.000Z</time>
      </trkpt>
      <trkpt lat="45.22455" lon="5.9038">
        <ele>697.56</ele>
        <time>2019-11-25T13:06:43.000Z</time>
      </trkpt>
      <trkpt lat="45.22491" lon="5.9041">
        <ele>695.69</ele>
        <time>2019-11-25T13:06:48.000Z</time>
      </trkpt>
      <trkpt lat="45.22518" lon="5.90461">
        <ele>687.64</ele>
        <time>2019-11-25T13:06:53.000Z</time>
      </trkpt>
      <trkpt lat="45.2254" lon="5.90518">
        <ele>685.79</ele>
        <time>2019-11-25T13:06:58.000Z</time>
      </trkpt>
      <trkpt lat="45.22577" lon="5.90519">
        <ele>687.3</ele>
        <time>2019-11-25T13:07:03.000Z</time>
      </trkpt>
      <trkpt lat="45.22585" lon="5.90462">
        <ele>686.8</ele>
        <time>2019-11-25T13:07:08.000Z</time>
      </trkpt>
      <trkpt lat="45.2259" lon="5.90412">
        <ele>687.85</ele>
        <time>2019-11-25T13:07:13.000Z</time>
      </trkpt>
      <trkpt lat="45.22604" lon="5.90364">
        <ele>688.04</ele>
        <time>2019-11-25T13:07:18.000Z</time>
      </trkpt>
      <trkpt lat="45.22621" lon="5.90318">
        <ele>688.62</ele>
        <time>2019-11-25T13:07:23.000Z</time>
      </trkpt>
      <trkpt lat="45.22643" lon="5.90275">
        <ele>689.28</ele>
        <time>2019-11-25T13:07:28.000Z</time>
      </trkpt>
      <trkpt lat="45.22676" lon="5.90257">
        <ele>687.93</ele>
        <time>2019-11-25T13:07:33.000Z</time>
      </trkpt>
      <trkpt lat="45.22705" lon="5.90246">
        <ele>689.42</ele>
        <time>2019-11-25T13:07:38.000Z</time>
      </trkpt>
      <trkpt lat="45.22732" lon="5.90245">
        <ele>691.77</ele>
        <time>2019-11-25T13:07:43.000Z</time>
      </trkpt>
      <trkpt lat="45.2276" lon="5.90244">
        <ele>691.02</ele>
        <time>2019-11-25T13:07:48.000Z</time>
      </trkpt>
      <trkpt lat="45.2279" lon="5.90243">
        <ele>690.12</ele>
        <time>2019-11-25T13:07:53.000Z</time>
      </trkpt>
      <trkpt lat="45.22819" lon="5.90241">
        <ele>690.82</ele>
        <time>2019-11-25T13:07:58.000Z</time>
      </trkpt>
      <trkpt lat="45.22848" lon="5.90252">
        <ele>689.64</ele>
        <time>2019-11-25T13:08:03.000Z</time>
      </trkpt>
      <trkpt lat="45.22875" lon="5.90274">
        <ele>690.47</ele>
        <time>2019-11-25T13:08:08.000Z</time>
      </trkpt>
      <trkpt lat="45.22904" lon="5.90298">
        <ele>687.48</ele>
        <time>2019-11-25T13:08:13.000Z</time>
      </trkpt>
      <trkpt lat="45.22939" lon="5.90341">
        <ele>685.8</ele>
        <time>2019-11-25T13:08:18.000Z</time>
      </trkpt>
      <trkpt lat="45.22976" lon="5.90365">
        <ele>683.42</ele>
        <time>2019-11-25T13:08:23.000Z</time>
      </trkpt>
      <trkpt lat="45.23001" lon="5.90342">
        <ele>682.14</ele>
        <time>2019-11-25T13:08:28.000Z</time>
      </trkpt>
      <trkpt lat="45.23028" lon="5.90336">
        <ele>680.4</ele>
        <time>2019-11-25T13:08:33.000Z</time>
      </trkpt>
      <trkpt lat="45.23053" lon="5.90331">
        <ele>678.56</ele>
        <time>2019-11-25T13:08:38.000Z</time>
      </trkpt>
      <trkpt lat="45.23081" lon="5.9033">
        <ele>678.05</ele>
        <time>2019-11-25T13:08:43.000Z</time>
      </trkpt>
      <trkpt lat="45.2311" lon="5.90329">
        <ele>678.51</ele>
        <time>2019-11-25T13:08:48.000Z</time>
      </trkpt>
      <trkpt lat="45.23138" lon="5.90334">
        <ele>676</ele>
        <time>2019-11-25T13:08:53.000Z</time>
      </trkpt>
      <trkpt lat="45.23169" lon="5.90338">
        <ele>678.94</ele>
        <time>2019-11-25T13:08:58.000Z</time>
      </trkpt>
      <trkpt lat="45.23199" lon="5.90347">
        <ele>677.12</ele>
        <time>2019-11-25T13:09:03.000Z</time>
      </trkpt>
      <trkpt lat="45.23234" lon="5.90338">
        <ele>680.64</ele>
        <time>2019-11-25T13:09:08.000Z</time>
      </trkpt>
      <trkpt lat="45.23263" lon="5.90339">
        <ele>680.63</ele>
        <time>2019-11-25T13:09:13.000Z</time>
      </trkpt>
      <trkpt lat="45.23293" lon="5.90324">
        <ele>682.52</ele>
        <time>2019-11-25T13:09:18.000Z</time>
      </trkpt>
      <trkpt lat="45.23318" lon="5.90314">
        <ele>681.57</ele>
        <time>2019-11-25T13:09:23.000Z</time>
      </trkpt>
      <trkpt lat="45.23343" lon="5.90301">
        <ele>683.06</ele>
        <time>2019-11-25T13:09:28.000Z</time>
      </trkpt>
      <trkpt lat="45.23362" lon="5.90296">
        <ele>682.37</ele>
        <time>2019-11-25T13:09:33.000Z</time>
      </trkpt>
      <trkpt lat="45.23383" lon="5.90288">
        <ele>682.52</ele>
        <time>2019-11-25T13:09:38.000Z</time>
      </trkpt>
      <trkpt lat="45.23405" lon="5.90278">
        <ele>680.2</ele>
        <time>2019-11-25T13:09:43.000Z</time>
      </trkpt>
      <trkpt lat="45.23427" lon="5.90268">
        <ele>682.11</ele>
        <time>2019-11-25T13:09:48.000Z</time>
      </trkpt>
      <trkpt lat="45.2345" lon="5.90264">
        <ele>685.55</ele>
        <time>2019-11-25T13:09:53.000Z</time>
      </trkpt>
      <trkpt lat="45.23465" lon="5.90278">
        <ele>688.48</ele>
        <time>2019-11-25T13:09:58.000Z</time>
      </trkpt>
      <trkpt lat="45.23479" lon="5.90302">
        <ele>691.24</ele>
        <time>2019-11-25T13:10:03.000Z</time>
      </trkpt>
      <trkpt lat="45.2349" lon="5.9033">
        <ele>695.43</ele>
        <time>2019-11-25T13:10:08.000Z</time>
      </trkpt>
      <trkpt lat="45.23495" lon="5.90359">
        <ele>698.35</ele>
        <time>2019-11-25T13:10:13.000Z</time>
      </trkpt>
      <trkpt lat="45.23491" lon="5.90389">
        <ele>698.63</ele>
        <time>2019-11-25T13:10:18.000Z</time>
      </trkpt>
      <trkpt lat="45.23487" lon="5.90426">
        <ele>701.78</ele>
        <time>2019-11-25T13:10:23.000Z</time>
      </trkpt>
      <trkpt lat="45.23481" lon="5.90462">
        <ele>701.51</ele>
        <time>2019-11-25T13:10:28.000Z</time>
      </trkpt>
      <trkpt lat="45.23476" lon="5.90496">
        <ele>700.96</ele>
        <time>2019-11-25T13:10:33.000Z</time>
      </trkpt>
      <trkpt lat="45.23468" lon="5.90533">
        <ele>701.98</ele>
        <time>2019-11-25T13:10:38.000Z</time>
      </trkpt>
      <trkpt lat="45.2346" lon="5.90575">
        <ele>702.49</ele>
        <time>2019-11-25T13:10:43.000Z</time>
      </trkpt>
      <trkpt lat="45.2345" lon="5.9062">
        <ele>703.02</ele>
        <time>2019-11-25T13:10:48.000Z</time>
      </trkpt>
      <trkpt lat="45.2344" lon="5.90659">
        <ele>701.34</ele>
        <time>2019-11-25T13:10:53.000Z</time>
      </trkpt>
      <trkpt lat="45.23426" lon="5.90691">
        <ele>697.42</ele>
        <time>2019-11-25T13:10:58.000Z</time>
      </trkpt>
      <trkpt lat="45.23415" lon="5.90717">
        <ele>700.65</ele>
        <time>2019-11-25T13:11:03.000Z</time>
      </trkpt>
      <trkpt lat="45.23402" lon="5.90748">
        <ele>700.69</ele>
        <time>2019-11-25T13:11:08.000Z</time>
      </trkpt>
      <trkpt lat="45.23384" lon="5.90783">
        <ele>703.47</ele>
        <time>2019-11-25T13:11:13.000Z</time>
      </trkpt>
      <trkpt lat="45.23374" lon="5.90817">
        <ele>703.08</ele>
        <time>2019-11-25T13:11:18.000Z</time>
      </trkpt>
      <trkpt lat="45.23364" lon="5.90853">
        <ele>706.71</ele>
        <time>2019-11-25T13:11:23.000Z</time>
      </trkpt>
      <trkpt lat="45.23354" lon="5.90881">
        <ele>710.93</ele>
        <time>2019-11-25T13:11:28.000Z</time>
      </trkpt>
      <trkpt lat="45.23343" lon="5.90906">
        <ele>714.08</ele>
        <time>2019-11-25T13:11:33.000Z</time>
      </trkpt>
      <trkpt lat="45.23334" lon="5.90928">
        <ele>713.78</ele>
        <time>2019-11-25T13:11:38.000Z</time>
      </trkpt>
      <trkpt lat="45.23325" lon="5.90947">
        <ele>713.78</ele>
        <time>2019-11-25T13:11:43.000Z</time>
      </trkpt>
      <trkpt lat="45.23313" lon="5.90966">
        <ele>714.6</ele>
        <time>2019-11-25T13:11:48.000Z</time>
      </trkpt>
      <trkpt lat="45.23297" lon="5.90984">
        <ele>713.97</ele>
        <time>2019-11-25T13:11:53.000Z</time>
      </trkpt>
      <trkpt lat="45.23283" lon="5.91002">
        <ele>716.48</ele>
        <time>2019-11-25T13:11:58.000Z</time>
      </trkpt>
      <trkpt lat="45.2327" lon="5.91019">
        <ele>714.47</ele>
        <time>2019-11-25T13:12:03.000Z</time>
      </trkpt>
      <trkpt lat="45.23255" lon="5.91034">
        <ele>714.98</ele>
        <time>2019-11-25T13:12:08.000Z</time>
      </trkpt>
      <trkpt lat="45.23238" lon="5.91047">
        <ele>717.16</ele>
        <time>2019-11-25T13:12:13.000Z</time>
      </trkpt>
      <trkpt lat="45.23222" lon="5.91068">
        <ele>722.46</ele>
        <time>2019-11-25T13:12:18.000Z</time>
      </trkpt>
      <trkpt lat="45.23214" lon="5.911">
        <ele>725.68</ele>
        <time>2019-11-25T13:12:23.000Z</time>
      </trkpt>
      <trkpt lat="45.2321" lon="5.91129">
        <ele>729.32</ele>
        <time>2019-11-25T13:12:28.000Z</time>
      </trkpt>
      <trkpt lat="45.23201" lon="5.91152">
        <ele>728.54</ele>
        <time>2019-11-25T13:12:33.000Z</time>
      </trkpt>
      <trkpt lat="45.23191" lon="5.9117">
        <ele>728.97</ele>
        <time>2019-11-25T13:12:38.000Z</time>
      </trkpt>
      <trkpt lat="45.2318" lon="5.91182">
        <ele>731.37</ele>
        <time>2019-11-25T13:12:43.000Z</time>
      </trkpt>
      <trkpt lat="45.23159" lon="5.91187">
        <ele>731.95</ele>
        <time>2019-11-25T13:12:48.000Z</time>
      </trkpt>
      <trkpt lat="45.23141" lon="5.91193">
        <ele>734.09</ele>
        <time>2019-11-25T13:12:53.000Z</time>
      </trkpt>
      <trkpt lat="45.23123" lon="5.91205">
        <ele>737.41</ele>
        <time>2019-11-25T13:12:58.000Z</time>
      </trkpt>
      <trkpt lat="45.23104" lon="5.9122">
        <ele>740.66</ele>
        <time>2019-11-25T13:13:03.000Z</time>
      </trkpt>
      <trkpt lat="45.23088" lon="5.9123">
        <ele>741.46</ele>
        <time>2019-11-25T13:13:08.000Z</time>
      </trkpt>
      <trkpt lat="45.23074" lon="5.91246">
        <ele>739.8</ele>
        <time>2019-11-25T13:13:13.000Z</time>
      </trkpt>
      <trkpt lat="45.23058" lon="5.9126">
        <ele>737.64</ele>
        <time>2019-11-25T13:13:18.000Z</time>
      </trkpt>
      <trkpt lat="45.23042" lon="5.91277">
        <ele>735.5</ele>
        <time>2019-11-25T13:13:23.000Z</time>
      </trkpt>
      <trkpt lat="45.23031" lon="5.91294">
        <ele>737.31</ele>
        <time>2019-11-25T13:13:28.000Z</time>
      </trkpt>
      <trkpt lat="45.23017" lon="5.91316">
        <ele>738.09</ele>
        <time>2019-11-25T13:13:33.000Z</time>
      </trkpt>
      <trkpt lat="45.23002" lon="5.91338">
        <ele>738.34</ele>
        <time>2019-11-25T13:13:38.000Z</time>
      </trkpt>
      <trkpt lat="45.22988" lon="5.91357">
        <ele>740.12</ele>
        <time>2019-11-25T13:13:43.000Z</time>
      </trkpt>
      <trkpt lat="45.22979" lon="5.91389">
        <ele>743.99</ele>
        <time>2019-11-25T13:13:48.000Z</time>
      </trkpt>
      <trkpt lat="45.22972" lon="5.91416">
        <ele>748.05</ele>
        <time>2019-11-25T13:13:53.000Z</time>
      </trkpt>
      <trkpt lat="45.2296" lon="5.91449">
        <ele>751.69</ele>
        <time>2019-11-25T13:13:58.000Z</time>
      </trkpt>
      <trkpt lat="45.22957" lon="5.91482">
        <ele>751.49</ele>
        <time>2019-11-25T13:14:03.000Z</time>
      </trkpt>
      <trkpt lat="45.2296" lon="5.91519">
        <ele>752.77</ele>
        <time>2019-11-25T13:14:08.000Z</time>
      </trkpt>
      <trkpt lat="45.22965" lon="5.9155">
        <ele>751.48</ele>
        <time>2019-11-25T13:14:13.000Z</time>
      </trkpt>
      <trkpt lat="45.2298" lon="5.91578">
        <ele>753.02</ele>
        <time>2019-11-25T13:14:18.000Z</time>
      </trkpt>
      <trkpt lat="45.22989" lon="5.91614">
        <ele>751.35</ele>
        <time>2019-11-25T13:14:23.000Z</time>
      </trkpt>
      <trkpt lat="45.22991" lon="5.91653">
        <ele>748.02</ele>
        <time>2019-11-25T13:14:28.000Z</time>
      </trkpt>
      <trkpt lat="45.22983" lon="5.91686">
        <ele>746.75</ele>
        <time>2019-11-25T13:14:33.000Z</time>
      </trkpt>
      <trkpt lat="45.22979" lon="5.91727">
        <ele>745.38</ele>
        <time>2019-11-25T13:14:38.000Z</time>
      </trkpt>
      <trkpt lat="45.22966" lon="5.9177">
        <ele>747.72</ele>
        <time>2019-11-25T13:14:43.000Z</time>
      </trkpt>
      <trkpt lat="45.22939" lon="5.91806">
        <ele>744.75</ele>
        <time>2019-11-25T13:14:48.000Z</time>
      </trkpt>
      <trkpt lat="45.22915" lon="5.91844">
        <ele>743.7</ele>
        <time>2019-11-25T13:14:53.000Z</time>
      </trkpt>
      <trkpt lat="45.22894" lon="5.91872">
        <ele>742.32</ele>
        <time>2019-11-25T13:14:58.000Z</time>
      </trkpt>
      <trkpt lat="45.22867" lon="5.91903">
        <ele>742.78</ele>
        <time>2019-11-25T13:15:03.000Z</time>
      </trkpt>
      <trkpt lat="45.22841" lon="5.91928">
        <ele>741.32</ele>
        <time>2019-11-25T13:15:08.000Z</time>
      </trkpt>
      <trkpt lat="45.22809" lon="5.91942">
        <ele>740.94</ele>
        <time>2019-11-25T13:15:13.000Z</time>
      </trkpt>
      <trkpt lat="45.22778" lon="5.91958">
        <ele>738.98</ele>
        <time>2019-11-25T13:15:18.000Z</time>
      </trkpt>
      <trkpt lat="45.22762" lon="5.91993">
        <ele>734.19</ele>
        <time>2019-11-25T13:15:23.000Z</time>
      </trkpt>
      <trkpt lat="45.22766" lon="5.92036">
        <ele>734</ele>
        <time>2019-11-25T13:15:28.000Z</time>
      </trkpt>
      <trkpt lat="45.22758" lon="5.92077">
        <ele>735.25</ele>
        <time>2019-11-25T13:15:33.000Z</time>
      </trkpt>
      <trkpt lat="45.22742" lon="5.92115">
        <ele>734.97</ele>
        <time>2019-11-25T13:15:38.000Z</time>
      </trkpt>
      <trkpt lat="45.22732" lon="5.92142">
        <ele>732.89</ele>
        <time>2019-11-25T13:15:43.000Z</time>
      </trkpt>
      <trkpt lat="45.22715" lon="5.92172">
        <ele>735.13</ele>
        <time>2019-11-25T13:15:48.000Z</time>
      </trkpt>
      <trkpt lat="45.22698" lon="5.922">
        <ele>735.31</ele>
        <time>2019-11-25T13:15:53.000Z</time>
      </trkpt>
      <trkpt lat="45.2268" lon="5.92229">
        <ele>734.83</ele>
        <time>2019-11-25T13:15:58.000Z</time>
      </trkpt>
      <trkpt lat="45.22662" lon="5.92257">
        <ele>738.75</ele>
        <time>2019-11-25T13:16:03.000Z</time>
      </trkpt>
      <trkpt lat="45.22644" lon="5.92284">
        <ele>737.47</ele>
        <time>2019-11-25T13:16:08.000Z</time>
      </trkpt>
      <trkpt lat="45.22632" lon="5.92317">
        <ele>738.05</ele>
        <time>2019-11-25T13:16:13.000Z</time>
      </trkpt>
      <trkpt lat="45.22623" lon="5.92354">
        <ele>742.92</ele>
        <time>2019-11-25T13:16:18.000Z</time>
      </trkpt>
      <trkpt lat="45.22612" lon="5.92384">
        <ele>743.26</ele>
        <time>2019-11-25T13:16:23.000Z</time>
      </trkpt>
      <trkpt lat="45.22606" lon="5.92421">
        <ele>743.11</ele>
        <time>2019-11-25T13:16:28.000Z</time>
      </trkpt>
      <trkpt lat="45.226" lon="5.92464">
        <ele>740.58</ele>
        <time>2019-11-25T13:16:33.000Z</time>
      </trkpt>
      <trkpt lat="45.22589" lon="5.92515">
        <ele>740</ele>
        <time>2019-11-25T13:16:38.000Z</time>
      </trkpt>
      <trkpt lat="45.22584" lon="5.92568">
        <ele>735.72</ele>
        <time>2019-11-25T13:16:43.000Z</time>
      </trkpt>
      <trkpt lat="45.22587" lon="5.92619">
        <ele>734.16</ele>
        <time>2019-11-25T13:16:48.000Z</time>
      </trkpt>
      <trkpt lat="45.22582" lon="5.92665">
        <ele>733.92</ele>
        <time>2019-11-25T13:16:53.000Z</time>
      </trkpt>
      <trkpt lat="45.22561" lon="5.92703">
        <ele>733.65</ele>
        <time>2019-11-25T13:16:58.000Z</time>
      </trkpt>
      <trkpt lat="45.22532" lon="5.92744">
        <ele>735.24</ele>
        <time>2019-11-25T13:17:03.000Z</time>
      </trkpt>
      <trkpt lat="45.22499" lon="5.92768">
        <ele>733.75</ele>
        <time>2019-11-25T13:17:08.000Z</time>
      </trkpt>
      <trkpt lat="45.22464" lon="5.92775">
        <ele>736.66</ele>
        <time>2019-11-25T13:17:13.000Z</time>
      </trkpt>
      <trkpt lat="45.22433" lon="5.9278">
        <ele>737.37</ele>
        <time>2019-11-25T13:17:18.000Z</time>
      </trkpt>
      <trkpt lat="45.22408" lon="5.92787">
        <ele>737.12</ele>
        <time>2019-11-25T13:17:23.000Z</time>
      </trkpt>
      <trkpt lat="45.22384" lon="5.92785">
        <ele>737.76</ele>
        <time>2019-11-25T13:17:28.000Z</time>
      </trkpt>
      <trkpt lat="45.22355" lon="5.92778">
        <ele>740.59</ele>
        <time>2019-11-25T13:17:33.000Z</time>
      </trkpt>
      <trkpt lat="45.22329" lon="5.9277">
        <ele>740.33</ele>
        <time>2019-11-25T13:17:38.000Z</time>
      </trkpt>
      <trkpt lat="45.22297" lon="5.9276">
        <ele>740.77</ele>
        <time>2019-11-25T13:17:43.000Z</time>
      </trkpt>
      <trkpt lat="45.22271" lon="5.92757">
        <ele>744.46</ele>
        <time>2019-11-25T13:17:48.000Z</time>
      </trkpt>
      <trkpt lat="45.22238" lon="5.92766">
        <ele>744.48</ele>
        <time>2019-11-25T13:17:53.000Z</time>
      </trkpt>
      <trkpt lat="45.22209" lon="5.92775">
        <ele>746.37</ele>
        <time>2019-11-25T13:17:58.000Z</time>
      </trkpt>
      <trkpt lat="45.22177" lon="5.92786">
        <ele>745.52</ele>
        <time>2019-11-25T13:18:03.000Z</time>
      </trkpt>
      <trkpt lat="45.22144" lon="5.92794">
        <ele>745.87</ele>
        <time>2019-11-25T13:18:08.000Z</time>
      </trkpt>
      <trkpt lat="45.22115" lon="5.92794">
        <ele>746.24</ele>
        <time>2019-11-25T13:18:13.000Z</time>
      </trkpt>
      <trkpt lat="45.22086" lon="5.92798">
        <ele>747.73</ele>
        <time>2019-11-25T13:18:18.000Z</time>
      </trkpt>
      <trkpt lat="45.22054" lon="5.92807">
        <ele>748.68</ele>
        <time>2019-11-25T13:18:23.000Z</time>
      </trkpt>
      <trkpt lat="45.22023" lon="5.92818">
        <ele>746.8</ele>
        <time>2019-11-25T13:18:28.000Z</time>
      </trkpt>
      <trkpt lat="45.21996" lon="5.92837">
        <ele>744.87</ele>
        <time>2019-11-25T13:18:33.000Z</time>
      </trkpt>
      <trkpt lat="45.21964" lon="5.92856">
        <ele>745.14</ele>
        <time>2019-11-25T13:18:38.000Z</time>
      </trkpt>
      <trkpt lat="45.21935" lon="5.92877">
        <ele>743.41</ele>
        <time>2019-11-25T13:18:43.000Z</time>
      </trkpt>
      <trkpt lat="45.21906" lon="5.92897">
        <ele>743.33</ele>
        <time>2019-11-25T13:18:48.000Z</time>
      </trkpt>
      <trkpt lat="45.2188" lon="5.92925">
        <ele>743.28</ele>
        <time>2019-11-25T13:18:53.000Z</time>
      </trkpt>
      <trkpt lat="45.21858" lon="5.92952">
        <ele>744.69</ele>
        <time>2019-11-25T13:18:58.000Z</time>
      </trkpt>
      <trkpt lat="45.21832" lon="5.92982">
        <ele>745.67</ele>
        <time>2019-11-25T13:19:03.000Z</time>
      </trkpt>
      <trkpt lat="45.21801" lon="5.9301">
        <ele>744.81</ele>
        <time>2019-11-25T13:19:08.000Z</time>
      </trkpt>
      <trkpt lat="45.21775" lon="5.93027">
        <ele>744.61</ele>
        <time>2019-11-25T13:19:13.000Z</time>
      </trkpt>
      <trkpt lat="45.21748" lon="5.93044">
        <ele>744.61</ele>
        <time>2019-11-25T13:19:18.000Z</time>
      </trkpt>
      <trkpt lat="45.21725" lon="5.93059">
        <ele>747.38</ele>
        <time>2019-11-25T13:19:23.000Z</time>
      </trkpt>
      <trkpt lat="45.21706" lon="5.93071">
        <ele>747.92</ele>
        <time>2019-11-25T13:19:28.000Z</time>
      </trkpt>
      <trkpt lat="45.21689" lon="5.9308">
        <ele>748.46</ele>
        <time>2019-11-25T13:19:33.000Z</time>
      </trkpt>
      <trkpt lat="45.21671" lon="5.93093">
        <ele>748.06</ele>
        <time>2019-11-25T13:19:38.000Z</time>
      </trkpt>
      <trkpt lat="45.21655" lon="5.9311">
        <ele>750.15</ele>
        <time>2019-11-25T13:19:43.000Z</time>
      </trkpt>
      <trkpt lat="45.21642" lon="5.93129">
        <ele>746.59</ele>
        <time>2019-11-25T13:19:48.000Z</time>
      </trkpt>
      <trkpt lat="45.21623" lon="5.93152">
        <ele>746.36</ele>
        <time>2019-11-25T13:19:53.000Z</time>
      </trkpt>
      <trkpt lat="45.21598" lon="5.93175">
        <ele>746.65</ele>
        <time>2019-11-25T13:19:58.000Z</time>
      </trkpt>
      <trkpt lat="45.21577" lon="5.93199">
        <ele>749.66</ele>
        <time>2019-11-25T13:20:03.000Z</time>
      </trkpt>
      <trkpt lat="45.21557" lon="5.93211">
        <ele>748.33</ele>
        <time>2019-11-25T13:20:08.000Z</time>
      </trkpt>
      <trkpt lat="45.21531" lon="5.93226">
        <ele>750.04</ele>
        <time>2019-11-25T13:20:13.000Z</time>
      </trkpt>
      <trkpt lat="45.21505" lon="5.93242">
        <ele>751.99</ele>
        <time>2019-11-25T13:20:18.000Z</time>
      </trkpt>
      <trkpt lat="45.2148" lon="5.93251">
        <ele>749.54</ele>
        <time>2019-11-25T13:20:23.000Z</time>
      </trkpt>
      <trkpt lat="45.21454" lon="5.93261">
        <ele>752.44</ele>
        <time>2019-11-25T13:20:28.000Z</time>
      </trkpt>
      <trkpt lat="45.21427" lon="5.9327">
        <ele>752.99</ele>
        <time>2019-11-25T13:20:33.000Z</time>
      </trkpt>
      <trkpt lat="45.21401" lon="5.93283">
        <ele>753.49</ele>
        <time>2019-11-25T13:20:38.000Z</time>
      </trkpt>
      <trkpt lat="45.21381" lon="5.93304">
        <ele>754.73</ele>
        <time>2019-11-25T13:20:43.000Z</time>
      </trkpt>
      <trkpt lat="45.21367" lon="5.93334">
        <ele>750.26</ele>
        <time>2019-11-25T13:20:48.000Z</time>
      </trkpt>
      <trkpt lat="45.2137" lon="5.9337">
        <ele>751.35</ele>
        <time>2019-11-25T13:20:53.000Z</time>
      </trkpt>
      <trkpt lat="45.21371" lon="5.93402">
        <ele>752.9</ele>
        <time>2019-11-25T13:20:58.000Z</time>
      </trkpt>
      <trkpt lat="45.21378" lon="5.93435">
        <ele>752.98</ele>
        <time>2019-11-25T13:21:03.000Z</time>
      </trkpt>
      <trkpt lat="45.21394" lon="5.93466">
        <ele>755.29</ele>
        <time>2019-11-25T13:21:08.000Z</time>
      </trkpt>
      <trkpt lat="45.21411" lon="5.93495">
        <ele>754.8</ele>
        <time>2019-11-25T13:21:13.000Z</time>
      </trkpt>
      <trkpt lat="45.21431" lon="5.93518">
        <ele>752.34</ele>
        <time>2019-11-25T13:21:18.000Z</time>
      </trkpt>
      <trkpt lat="45.21461" lon="5.93526">
        <ele>752.44</ele>
        <time>2019-11-25T13:21:23.000Z</time>
      </trkpt>
      <trkpt lat="45.21491" lon="5.93514">
        <ele>752.71</ele>
        <time>2019-11-25T13:21:28.000Z</time>
      </trkpt>
      <trkpt lat="45.21521" lon="5.93508">
        <ele>752.32</ele>
        <time>2019-11-25T13:21:33.000Z</time>
      </trkpt>
      <trkpt lat="45.21546" lon="5.93493">
        <ele>746.74</ele>
        <time>2019-11-25T13:21:38.000Z</time>
      </trkpt>
      <trkpt lat="45.21568" lon="5.93462">
        <ele>747.55</ele>
        <time>2019-11-25T13:21:43.000Z</time>
      </trkpt>
      <trkpt lat="45.21594" lon="5.93436">
        <ele>748.39</ele>
        <time>2019-11-25T13:21:48.000Z</time>
      </trkpt>
      <trkpt lat="45.21618" lon="5.9341">
        <ele>747.69</ele>
        <time>2019-11-25T13:21:53.000Z</time>
      </trkpt>
      <trkpt lat="45.21641" lon="5.93384">
        <ele>747.71</ele>
        <time>2019-11-25T13:21:58.000Z</time>
      </trkpt>
      <trkpt lat="45.2167" lon="5.93369">
        <ele>751.22</ele>
        <time>2019-11-25T13:22:03.000Z</time>
      </trkpt>
      <trkpt lat="45.21695" lon="5.93373">
        <ele>750.41</ele>
        <time>2019-11-25T13:22:08.000Z</time>
      </trkpt>
      <trkpt lat="45.21721" lon="5.93383">
        <ele>752.24</ele>
        <time>2019-11-25T13:22:13.000Z</time>
      </trkpt>
      <trkpt lat="45.21756" lon="5.93392">
        <ele>749.31</ele>
        <time>2019-11-25T13:22:18.000Z</time>
      </trkpt>
      <trkpt lat="45.21798" lon="5.93374">
        <ele>747.63</ele>
        <time>2019-11-25T13:22:23.000Z</time>
      </trkpt>
      <trkpt lat="45.21837" lon="5.93346">
        <ele>745.45</ele>
        <time>2019-11-25T13:22:28.000Z</time>
      </trkpt>
      <trkpt lat="45.2187" lon="5.93321">
        <ele>744.83</ele>
        <time>2019-11-25T13:22:33.000Z</time>
      </trkpt>
      <trkpt lat="45.21898" lon="5.93301">
        <ele>743.16</ele>
        <time>2019-11-25T13:22:38.000Z</time>
      </trkpt>
      <trkpt lat="45.21921" lon="5.93271">
        <ele>744.93</ele>
        <time>2019-11-25T13:22:43.000Z</time>
      </trkpt>
      <trkpt lat="45.21942" lon="5.93246">
        <ele>745.49</ele>
        <time>2019-11-25T13:22:48.000Z</time>
      </trkpt>
      <trkpt lat="45.21971" lon="5.93233">
        <ele>747.19</ele>
        <time>2019-11-25T13:22:53.000Z</time>
      </trkpt>
      <trkpt lat="45.22004" lon="5.9324">
        <ele>746.69</ele>
        <time>2019-11-25T13:22:58.000Z</time>
      </trkpt>
      <trkpt lat="45.22032" lon="5.93262">
        <ele>745.66</ele>
        <time>2019-11-25T13:23:03.000Z</time>
      </trkpt>
      <trkpt lat="45.22061" lon="5.93288">
        <ele>746.38</ele>
        <time>2019-11-25T13:23:08.000Z</time>
      </trkpt>
      <trkpt lat="45.22091" lon="5.9331">
        <ele>748.09</ele>
        <time>2019-11-25T13:23:13.000Z</time>
      </trkpt>
      <trkpt lat="45.22122" lon="5.93335">
        <ele>743.66</ele>
        <time>2019-11-25T13:23:18.000Z</time>
      </trkpt>
      <trkpt lat="45.22155" lon="5.93353">
        <ele>743.12</ele>
        <time>2019-11-25T13:23:23.000Z</time>
      </trkpt>
      <trkpt lat="45.22191" lon="5.93358">
        <ele>742.84</ele>
        <time>2019-11-25T13:23:28.000Z</time>
      </trkpt>
      <trkpt lat="45.2222" lon="5.93328">
        <ele>743.31</ele>
        <time>2019-11-25T13:23:33.000Z</time>
      </trkpt>
      <trkpt lat="45.22245" lon="5.93303">
        <ele>744.56</ele>
        <time>2019-11-25T13:23:38.000Z</time>
      </trkpt>
      <trkpt lat="45.22273" lon="5.93307">
        <ele>740.32</ele>
        <time>2019-11-25T13:23:43.000Z</time>
      </trkpt>
      <trkpt lat="45.22306" lon="5.93316">
        <ele>740.18</ele>
        <time>2019-11-25T13:23:48.000Z</time>
      </trkpt>
      <trkpt lat="45.22333" lon="5.93337">
        <ele>742.81</ele>
        <time>2019-11-25T13:23:53.000Z</time>
      </trkpt>
      <trkpt lat="45.22361" lon="5.93352">
        <ele>741.56</ele>
        <time>2019-11-25T13:23:58.000Z</time>
      </trkpt>
      <trkpt lat="45.22384" lon="5.93359">
        <ele>743.88</ele>
        <time>2019-11-25T13:24:03.000Z</time>
      </trkpt>
      <trkpt lat="45.22404" lon="5.93366">
        <ele>748.95</ele>
        <time>2019-11-25T13:24:08.000Z</time>
      </trkpt>
      <trkpt lat="45.22421" lon="5.93378">
        <ele>750.04</ele>
        <time>2019-11-25T13:24:13.000Z</time>
      </trkpt>
      <trkpt lat="45.22437" lon="5.93397">
        <ele>747.52</ele>
        <time>2019-11-25T13:24:18.000Z</time>
      </trkpt>
      <trkpt lat="45.22451" lon="5.93414">
        <ele>747.92</ele>
        <time>2019-11-25T13:24:23.000Z</time>
      </trkpt>
      <trkpt lat="45.22467" lon="5.93431">
        <ele>752.94</ele>
        <time>2019-11-25T13:24:28.000Z</time>
      </trkpt>
      <trkpt lat="45.22483" lon="5.93446">
        <ele>752.7</ele>
        <time>2019-11-25T13:24:33.000Z</time>
      </trkpt>
      <trkpt lat="45.22498" lon="5.93454">
        <ele>751.85</ele>
        <time>2019-11-25T13:24:38.000Z</time>
      </trkpt>
      <trkpt lat="45.22518" lon="5.93462">
        <ele>755.45</ele>
        <time>2019-11-25T13:24:43.000Z</time>
      </trkpt>
      <trkpt lat="45.22538" lon="5.93466">
        <ele>759.92</ele>
        <time>2019-11-25T13:24:48.000Z</time>
      </trkpt>
      <trkpt lat="45.22563" lon="5.93466">
        <ele>760.05</ele>
        <time>2019-11-25T13:24:53.000Z</time>
      </trkpt>
      <trkpt lat="45.22587" lon="5.9347">
        <ele>759.48</ele>
        <time>2019-11-25T13:24:58.000Z</time>
      </trkpt>
      <trkpt lat="45.22608" lon="5.93474">
        <ele>761.24</ele>
        <time>2019-11-25T13:25:03.000Z</time>
      </trkpt>
      <trkpt lat="45.2263" lon="5.93476">
        <ele>763.95</ele>
        <time>2019-11-25T13:25:08.000Z</time>
      </trkpt>
      <trkpt lat="45.22654" lon="5.93468">
        <ele>763.92</ele>
        <time>2019-11-25T13:25:13.000Z</time>
      </trkpt>
      <trkpt lat="45.22675" lon="5.93453">
        <ele>763.35</ele>
        <time>2019-11-25T13:25:18.000Z</time>
      </trkpt>
      <trkpt lat="45.22707" lon="5.93429">
        <ele>765.41</ele>
        <time>2019-11-25T13:25:23.000Z</time>
      </trkpt>
      <trkpt lat="45.2274" lon="5.93385">
        <ele>764.04</ele>
        <time>2019-11-25T13:25:28.000Z</time>
      </trkpt>
      <trkpt lat="45.2278" lon="5.93345">
        <ele>761.99</ele>
        <time>2019-11-25T13:25:33.000Z</time>
      </trkpt>
      <trkpt lat="45.22827" lon="5.93332">
        <ele>759.52</ele>
        <time>2019-11-25T13:25:38.000Z</time>
      </trkpt>
      <trkpt lat="45.22876" lon="5.9334">
        <ele>753.8</ele>
        <time>2019-11-25T13:25:43.000Z</time>
      </trkpt>
      <trkpt lat="45.22925" lon="5.93358">
        <ele>748.98</ele>
        <time>2019-11-25T13:25:48.000Z</time>
      </trkpt>
      <trkpt lat="45.22981" lon="5.93351">
        <ele>747.32</ele>
        <time>2019-11-25T13:25:53.000Z</time>
      </trkpt>
      <trkpt lat="45.23029" lon="5.93364">
        <ele>743.91</ele>
        <time>2019-11-25T13:25:58.000Z</time>
      </trkpt>
      <trkpt lat="45.23055" lon="5.93394">
        <ele>745.88</ele>
        <time>2019-11-25T13:26:03.000Z</time>
      </trkpt>
      <trkpt lat="45.23086" lon="5.93405">
        <ele>743.2</ele>
        <time>2019-11-25T13:26:08.000Z</time>
      </trkpt>
      <trkpt lat="45.23106" lon="5.93413">
        <ele>747.62</ele>
        <time>2019-11-25T13:26:13.000Z</time>
      </trkpt>
      <trkpt lat="45.23125" lon="5.93427">
        <ele>747.3</ele>
        <time>2019-11-25T13:26:18.000Z</time>
      </trkpt>
      <trkpt lat="45.23145" lon="5.9345">
        <ele>747.3</ele>
        <time>2019-11-25T13:26:23.000Z</time>
      </trkpt>
      <trkpt lat="45.23167" lon="5.93446">
        <ele>748.54</ele>
        <time>2019-11-25T13:26:28.000Z</time>
      </trkpt>
      <trkpt lat="45.23191" lon="5.93433">
        <ele>750.59</ele>
        <time>2019-11-25T13:26:33.000Z</time>
      </trkpt>
      <trkpt lat="45.23208" lon="5.93409">
        <ele>749.56</ele>
        <time>2019-11-25T13:26:38.000Z</time>
      </trkpt>
      <trkpt lat="45.23221" lon="5.93384">
        <ele>750.99</ele>
        <time>2019-11-25T13:26:43.000Z</time>
      </trkpt>
      <trkpt lat="45.23238" lon="5.93364">
        <ele>752.06</ele>
        <time>2019-11-25T13:26:48.000Z</time>
      </trkpt>
      <trkpt lat="45.23254" lon="5.93343">
        <ele>752.99</ele>
        <time>2019-11-25T13:26:53.000Z</time>
      </trkpt>
      <trkpt lat="45.23272" lon="5.93326">
        <ele>753.52</ele>
        <time>2019-11-25T13:26:58.000Z</time>
      </trkpt>
      <trkpt lat="45.23289" lon="5.93313">
        <ele>757.14</ele>
        <time>2019-11-25T13:27:03.000Z</time>
      </trkpt>
      <trkpt lat="45.23305" lon="5.93299">
        <ele>758</ele>
        <time>2019-11-25T13:27:08.000Z</time>
      </trkpt>
      <trkpt lat="45.23321" lon="5.93282">
        <ele>760.03</ele>
        <time>2019-11-25T13:27:13.000Z</time>
      </trkpt>
      <trkpt lat="45.23337" lon="5.93268">
        <ele>763.2</ele>
        <time>2019-11-25T13:27:18.000Z</time>
      </trkpt>
      <trkpt lat="45.23355" lon="5.93256">
        <ele>765.27</ele>
        <time>2019-11-25T13:27:23.000Z</time>
      </trkpt>
      <trkpt lat="45.23369" lon="5.93243">
        <ele>766.77</ele>
        <time>2019-11-25T13:27:28.000Z</time>
      </trkpt>
      <trkpt lat="45.23383" lon="5.93232">
        <ele>767.82</ele>
        <time>2019-11-25T13:27:33.000Z</time>
      </trkpt>
      <trkpt lat="45.23397" lon="5.9322">
        <ele>767.7</ele>
        <time>2019-11-25T13:27:38.000Z</time>
      </trkpt>
      <trkpt lat="45.23411" lon="5.93208">
        <ele>768.78</ele>
        <time>2019-11-25T13:27:43.000Z</time>
      </trkpt>
      <trkpt lat="45.23425" lon="5.93194">
        <ele>768.82</ele>
        <time>2019-11-25T13:27:48.000Z</time>
      </trkpt>
      <trkpt lat="45.23438" lon="5.9318">
        <ele>771.11</ele>
        <time>2019-11-25T13:27:53.000Z</time>
      </trkpt>
      <trkpt lat="45.23452" lon="5.93163">
        <ele>773.37</ele>
        <time>2019-11-25T13:27:58.000Z</time>
      </trkpt>
      <trkpt lat="45.23465" lon="5.93145">
        <ele>776.16</ele>
        <time>2019-11-25T13:28:03.000Z</time>
      </trkpt>
      <trkpt lat="45.23478" lon="5.93129">
        <ele>778.68</ele>
        <time>2019-11-25T13:28:08.000Z</time>
      </trkpt>
      <trkpt lat="45.2349" lon="5.93114">
        <ele>778.44</ele>
        <time>2019-11-25T13:28:13.000Z</time>
      </trkpt>
      <trkpt lat="45.23503" lon="5.93098">
        <ele>781.14</ele>
        <time>2019-11-25T13:28:18.000Z</time>
      </trkpt>
      <trkpt lat="45.23517" lon="5.93084">
        <ele>780.6</ele>
        <time>2019-11-25T13:28:23.000Z</time>
      </trkpt>
      <trkpt lat="45.23532" lon="5.93077">
        <ele>779.19</ele>
        <time>2019-11-25T13:28:28.000Z</time>
      </trkpt>
      <trkpt lat="45.23553" lon="5.93073">
        <ele>777.8</ele>
        <time>2019-11-25T13:28:33.000Z</time>
      </trkpt>
      <trkpt lat="45.23575" lon="5.93077">
        <ele>775.82</ele>
        <time>2019-11-25T13:28:38.000Z</time>
      </trkpt>
      <trkpt lat="45.23594" lon="5.93076">
        <ele>778.54</ele>
        <time>2019-11-25T13:28:43.000Z</time>
      </trkpt>
      <trkpt lat="45.23612" lon="5.93069">
        <ele>781.24</ele>
        <time>2019-11-25T13:28:48.000Z</time>
      </trkpt>
      <trkpt lat="45.23631" lon="5.93059">
        <ele>784.17</ele>
        <time>2019-11-25T13:28:53.000Z</time>
      </trkpt>
      <trkpt lat="45.2365" lon="5.9305">
        <ele>782.05</ele>
        <time>2019-11-25T13:28:58.000Z</time>
      </trkpt>
      <trkpt lat="45.23668" lon="5.93036">
        <ele>782.18</ele>
        <time>2019-11-25T13:29:03.000Z</time>
      </trkpt>
      <trkpt lat="45.23687" lon="5.93023">
        <ele>786.15</ele>
        <time>2019-11-25T13:29:08.000Z</time>
      </trkpt>
      <trkpt lat="45.23704" lon="5.93012">
        <ele>788.96</ele>
        <time>2019-11-25T13:29:13.000Z</time>
      </trkpt>
      <trkpt lat="45.23721" lon="5.92995">
        <ele>791.04</ele>
        <time>2019-11-25T13:29:18.000Z</time>
      </trkpt>
      <trkpt lat="45.23736" lon="5.92976">
        <ele>790.63</ele>
        <time>2019-11-25T13:29:23.000Z</time>
      </trkpt>
      <trkpt lat="45.23749" lon="5.92954">
        <ele>794.34</ele>
        <time>2019-11-25T13:29:28.000Z</time>
      </trkpt>
      <trkpt lat="45.23762" lon="5.92933">
        <ele>796.02</ele>
        <time>2019-11-25T13:29:33.000Z</time>
      </trkpt>
      <trkpt lat="45.23776" lon="5.9291">
        <ele>799.1</ele>
        <time>2019-11-25T13:29:38.000Z</time>
      </trkpt>
      <trkpt lat="45.23788" lon="5.92887">
        <ele>800.67</ele>
        <time>2019-11-25T13:29:43.000Z</time>
      </trkpt>
      <trkpt lat="45.23806" lon="5.92886">
        <ele>802.8</ele>
        <time>2019-11-25T13:29:48.000Z</time>
      </trkpt>
      <trkpt lat="45.23803" lon="5.92907">
        <ele>803.13</ele>
        <time>2019-11-25T13:29:53.000Z</time>
      </trkpt>
      <trkpt lat="45.23783" lon="5.92929">
        <ele>803.26</ele>
        <time>2019-11-25T13:29:58.000Z</time>
      </trkpt>
      <trkpt lat="45.23773" lon="5.92953">
        <ele>803.33</ele>
        <time>2019-11-25T13:30:03.000Z</time>
      </trkpt>
      <trkpt lat="45.23763" lon="5.92979">
        <ele>810.58</ele>
        <time>2019-11-25T13:30:08.000Z</time>
      </trkpt>
      <trkpt lat="45.23756" lon="5.93008">
        <ele>814.69</ele>
        <time>2019-11-25T13:30:13.000Z</time>
      </trkpt>
      <trkpt lat="45.23751" lon="5.93034">
        <ele>816.46</ele>
        <time>2019-11-25T13:30:18.000Z</time>
      </trkpt>
      <trkpt lat="45.23741" lon="5.93057">
        <ele>816.61</ele>
        <time>2019-11-25T13:30:23.000Z</time>
      </trkpt>
      <trkpt lat="45.23726" lon="5.93074">
        <ele>820.52</ele>
        <time>2019-11-25T13:30:28.000Z</time>
      </trkpt>
      <trkpt lat="45.23711" lon="5.93089">
        <ele>823.9</ele>
        <time>2019-11-25T13:30:33.000Z</time>
      </trkpt>
      <trkpt lat="45.23696" lon="5.93109">
        <ele>827.06</ele>
        <time>2019-11-25T13:30:38.000Z</time>
      </trkpt>
      <trkpt lat="45.23682" lon="5.93129">
        <ele>829.57</ele>
        <time>2019-11-25T13:30:43.000Z</time>
      </trkpt>
      <trkpt lat="45.23668" lon="5.93149">
        <ele>827.48</ele>
        <time>2019-11-25T13:30:48.000Z</time>
      </trkpt>
      <trkpt lat="45.23656" lon="5.93169">
        <ele>828.37</ele>
        <time>2019-11-25T13:30:53.000Z</time>
      </trkpt>
      <trkpt lat="45.23642" lon="5.93182">
        <ele>830.77</ele>
        <time>2019-11-25T13:30:58.000Z</time>
      </trkpt>
      <trkpt lat="45.23625" lon="5.93206">
        <ele>828.94</ele>
        <time>2019-11-25T13:31:03.000Z</time>
      </trkpt>
      <trkpt lat="45.23609" lon="5.93228">
        <ele>830.4</ele>
        <time>2019-11-25T13:31:08.000Z</time>
      </trkpt>
      <trkpt lat="45.23594" lon="5.93253">
        <ele>836.9</ele>
        <time>2019-11-25T13:31:13.000Z</time>
      </trkpt>
      <trkpt lat="45.23584" lon="5.93274">
        <ele>838.91</ele>
        <time>2019-11-25T13:31:18.000Z</time>
      </trkpt>
      <trkpt lat="45.23574" lon="5.93298">
        <ele>832.44</ele>
        <time>2019-11-25T13:31:23.000Z</time>
      </trkpt>
      <trkpt lat="45.23572" lon="5.93324">
        <ele>830.81</ele>
        <time>2019-11-25T13:31:28.000Z</time>
      </trkpt>
      <trkpt lat="45.23569" lon="5.93353">
        <ele>829.4</ele>
        <time>2019-11-25T13:31:33.000Z</time>
      </trkpt>
      <trkpt lat="45.23567" lon="5.93381">
        <ele>832.49</ele>
        <time>2019-11-25T13:31:38.000Z</time>
      </trkpt>
      <trkpt lat="45.23562" lon="5.93405">
        <ele>835.34</ele>
        <time>2019-11-25T13:31:43.000Z</time>
      </trkpt>
      <trkpt lat="45.23554" lon="5.93429">
        <ele>843.82</ele>
        <time>2019-11-25T13:31:48.000Z</time>
      </trkpt>
      <trkpt lat="45.23544" lon="5.93454">
        <ele>846.86</ele>
        <time>2019-11-25T13:31:53.000Z</time>
      </trkpt>
      <trkpt lat="45.23534" lon="5.93481">
        <ele>848.93</ele>
        <time>2019-11-25T13:31:58.000Z</time>
      </trkpt>
      <trkpt lat="45.2352" lon="5.93508">
        <ele>852.21</ele>
        <time>2019-11-25T13:32:03.000Z</time>
      </trkpt>
      <trkpt lat="45.23514" lon="5.93536">
        <ele>852.64</ele>
        <time>2019-11-25T13:32:08.000Z</time>
      </trkpt>
      <trkpt lat="45.23511" lon="5.93565">
        <ele>858.07</ele>
        <time>2019-11-25T13:32:13.000Z</time>
      </trkpt>
      <trkpt lat="45.23504" lon="5.93592">
        <ele>859.21</ele>
        <time>2019-11-25T13:32:18.000Z</time>
      </trkpt>
      <trkpt lat="45.23498" lon="5.93619">
        <ele>858.94</ele>
        <time>2019-11-25T13:32:23.000Z</time>
      </trkpt>
      <trkpt lat="45.23499" lon="5.93647">
        <ele>861.7</ele>
        <time>2019-11-25T13:32:28.000Z</time>
      </trkpt>
      <trkpt lat="45.23503" lon="5.93674">
        <ele>863.29</ele>
        <time>2019-11-25T13:32:33.000Z</time>
      </trkpt>
      <trkpt lat="45.23507" lon="5.93701">
        <ele>864.81</ele>
        <time>2019-11-25T13:32:38.000Z</time>
      </trkpt>
      <trkpt lat="45.23508" lon="5.93726">
        <ele>865.65</ele>
        <time>2019-11-25T13:32:43.000Z</time>
      </trkpt>
      <trkpt lat="45.23506" lon="5.93754">
        <ele>869.83</ele>
        <time>2019-11-25T13:32:48.000Z</time>
      </trkpt>
      <trkpt lat="45.23502" lon="5.93781">
        <ele>873.11</ele>
        <time>2019-11-25T13:32:53.000Z</time>
      </trkpt>
      <trkpt lat="45.23499" lon="5.93809">
        <ele>877.07</ele>
        <time>2019-11-25T13:32:58.000Z</time>
      </trkpt>
      <trkpt lat="45.23495" lon="5.93837">
        <ele>878.97</ele>
        <time>2019-11-25T13:33:03.000Z</time>
      </trkpt>
      <trkpt lat="45.23498" lon="5.93864">
        <ele>878.01</ele>
        <time>2019-11-25T13:33:08.000Z</time>
      </trkpt>
      <trkpt lat="45.23508" lon="5.9389">
        <ele>877.99</ele>
        <time>2019-11-25T13:33:13.000Z</time>
      </trkpt>
      <trkpt lat="45.23518" lon="5.93916">
        <ele>879.72</ele>
        <time>2019-11-25T13:33:18.000Z</time>
      </trkpt>
      <trkpt lat="45.23522" lon="5.93946">
        <ele>881.23</ele>
        <time>2019-11-25T13:33:23.000Z</time>
      </trkpt>
      <trkpt lat="45.23528" lon="5.93973">
        <ele>880.46</ele>
        <time>2019-11-25T13:33:28.000Z</time>
      </trkpt>
      <trkpt lat="45.23529" lon="5.94001">
        <ele>885.02</ele>
        <time>2019-11-25T13:33:33.000Z</time>
      </trkpt>
      <trkpt lat="45.23522" lon="5.94029">
        <ele>884.35</ele>
        <time>2019-11-25T13:33:38.000Z</time>
      </trkpt>
      <trkpt lat="45.23509" lon="5.9405">
        <ele>886.2</ele>
        <time>2019-11-25T13:33:43.000Z</time>
      </trkpt>
      <trkpt lat="45.23497" lon="5.94072">
        <ele>888.61</ele>
        <time>2019-11-25T13:33:48.000Z</time>
      </trkpt>
      <trkpt lat="45.23489" lon="5.94098">
        <ele>893.83</ele>
        <time>2019-11-25T13:33:53.000Z</time>
      </trkpt>
      <trkpt lat="45.23485" lon="5.94126">
        <ele>893.86</ele>
        <time>2019-11-25T13:33:58.000Z</time>
      </trkpt>
      <trkpt lat="45.23495" lon="5.94125">
        <ele>897.09</ele>
        <time>2019-11-25T13:36:01.000Z</time>
      </trkpt>
      <trkpt lat="45.23506" lon="5.94124">
        <ele>896.62</ele>
        <time>2019-11-25T13:36:06.000Z</time>
      </trkpt>
      <trkpt lat="45.23517" lon="5.94114">
        <ele>898.36</ele>
        <time>2019-11-25T13:36:11.000Z</time>
      </trkpt>
      <trkpt lat="45.23526" lon="5.94098">
        <ele>900.25</ele>
        <time>2019-11-25T13:36:16.000Z</time>
      </trkpt>
      <trkpt lat="45.23544" lon="5.94088">
        <ele>902.19</ele>
        <time>2019-11-25T13:36:21.000Z</time>
      </trkpt>
      <trkpt lat="45.23558" lon="5.94075">
        <ele>903.86</ele>
        <time>2019-11-25T13:36:26.000Z</time>
      </trkpt>
      <trkpt lat="45.2357" lon="5.94056">
        <ele>904.48</ele>
        <time>2019-11-25T13:36:31.000Z</time>
      </trkpt>
      <trkpt lat="45.2358" lon="5.94035">
        <ele>904.69</ele>
        <time>2019-11-25T13:36:36.000Z</time>
      </trkpt>
      <trkpt lat="45.23586" lon="5.9401">
        <ele>906.53</ele>
        <time>2019-11-25T13:36:41.000Z</time>
      </trkpt>
      <trkpt lat="45.23593" lon="5.93987">
        <ele>906.04</ele>
        <time>2019-11-25T13:36:46.000Z</time>
      </trkpt>
      <trkpt lat="45.23597" lon="5.9396">
        <ele>909.28</ele>
        <time>2019-11-25T13:36:51.000Z</time>
      </trkpt>
      <trkpt lat="45.236" lon="5.93933">
        <ele>907.09</ele>
        <time>2019-11-25T13:36:56.000Z</time>
      </trkpt>
      <trkpt lat="45.23611" lon="5.9391">
        <ele>906.07</ele>
        <time>2019-11-25T13:37:01.000Z</time>
      </trkpt>
      <trkpt lat="45.23626" lon="5.93926">
        <ele>907.77</ele>
        <time>2019-11-25T13:37:06.000Z</time>
      </trkpt>
      <trkpt lat="45.23613" lon="5.93955">
        <ele>908.06</ele>
        <time>2019-11-25T13:37:11.000Z</time>
      </trkpt>
      <trkpt lat="45.23608" lon="5.93983">
        <ele>909.92</ele>
        <time>2019-11-25T13:37:16.000Z</time>
      </trkpt>
      <trkpt lat="45.23606" lon="5.94012">
        <ele>911.87</ele>
        <time>2019-11-25T13:37:21.000Z</time>
      </trkpt>
      <trkpt lat="45.23605" lon="5.9404">
        <ele>914.37</ele>
        <time>2019-11-25T13:37:26.000Z</time>
      </trkpt>
      <trkpt lat="45.236" lon="5.94067">
        <ele>914.21</ele>
        <time>2019-11-25T13:37:31.000Z</time>
      </trkpt>
      <trkpt lat="45.23594" lon="5.94095">
        <ele>915.4</ele>
        <time>2019-11-25T13:37:36.000Z</time>
      </trkpt>
      <trkpt lat="45.23582" lon="5.94122">
        <ele>915.17</ele>
        <time>2019-11-25T13:37:41.000Z</time>
      </trkpt>
      <trkpt lat="45.23576" lon="5.94148">
        <ele>918.21</ele>
        <time>2019-11-25T13:37:46.000Z</time>
      </trkpt>
      <trkpt lat="45.23576" lon="5.94175">
        <ele>919.03</ele>
        <time>2019-11-25T13:37:51.000Z</time>
      </trkpt>
      <trkpt lat="45.23568" lon="5.94203">
        <ele>923.62</ele>
        <time>2019-11-25T13:37:56.000Z</time>
      </trkpt>
      <trkpt lat="45.23572" lon="5.94233">
        <ele>924.53</ele>
        <time>2019-11-25T13:38:01.000Z</time>
      </trkpt>
      <trkpt lat="45.23579" lon="5.9426">
        <ele>926.05</ele>
        <time>2019-11-25T13:38:06.000Z</time>
      </trkpt>
      <trkpt lat="45.23588" lon="5.94285">
        <ele>927.57</ele>
        <time>2019-11-25T13:38:11.000Z</time>
      </trkpt>
      <trkpt lat="45.23595" lon="5.94311">
        <ele>926.34</ele>
        <time>2019-11-25T13:38:16.000Z</time>
      </trkpt>
      <trkpt lat="45.23598" lon="5.94339">
        <ele>929.17</ele>
        <time>2019-11-25T13:38:21.000Z</time>
      </trkpt>
      <trkpt lat="45.23595" lon="5.94369">
        <ele>933.04</ele>
        <time>2019-11-25T13:38:26.000Z</time>
      </trkpt>
      <trkpt lat="45.23594" lon="5.94399">
        <ele>934.18</ele>
        <time>2019-11-25T13:38:31.000Z</time>
      </trkpt>
      <trkpt lat="45.23584" lon="5.94425">
        <ele>933.48</ele>
        <time>2019-11-25T13:38:36.000Z</time>
      </trkpt>
      <trkpt lat="45.23568" lon="5.94434">
        <ele>931.44</ele>
        <time>2019-11-25T13:38:41.000Z</time>
      </trkpt>
      <trkpt lat="45.23549" lon="5.94438">
        <ele>935.26</ele>
        <time>2019-11-25T13:38:46.000Z</time>
      </trkpt>
      <trkpt lat="45.23532" lon="5.94456">
        <ele>936.45</ele>
        <time>2019-11-25T13:38:51.000Z</time>
      </trkpt>
      <trkpt lat="45.23529" lon="5.94484">
        <ele>939.94</ele>
        <time>2019-11-25T13:38:56.000Z</time>
      </trkpt>
      <trkpt lat="45.23541" lon="5.94512">
        <ele>947.53</ele>
        <time>2019-11-25T13:39:01.000Z</time>
      </trkpt>
      <trkpt lat="45.23566" lon="5.94517">
        <ele>946.57</ele>
        <time>2019-11-25T13:39:06.000Z</time>
      </trkpt>
      <trkpt lat="45.23586" lon="5.94509">
        <ele>945</ele>
        <time>2019-11-25T13:39:11.000Z</time>
      </trkpt>
      <trkpt lat="45.23604" lon="5.94504">
        <ele>945.69</ele>
        <time>2019-11-25T13:39:16.000Z</time>
      </trkpt>
      <trkpt lat="45.23622" lon="5.94498">
        <ele>950.21</ele>
        <time>2019-11-25T13:39:21.000Z</time>
      </trkpt>
      <trkpt lat="45.2364" lon="5.94494">
        <ele>950.34</ele>
        <time>2019-11-25T13:39:26.000Z</time>
      </trkpt>
      <trkpt lat="45.23654" lon="5.94479">
        <ele>949.39</ele>
        <time>2019-11-25T13:39:31.000Z</time>
      </trkpt>
      <trkpt lat="45.23662" lon="5.94457">
        <ele>951.44</ele>
        <time>2019-11-25T13:39:36.000Z</time>
      </trkpt>
      <trkpt lat="45.23668" lon="5.94436">
        <ele>950.68</ele>
        <time>2019-11-25T13:39:41.000Z</time>
      </trkpt>
      <trkpt lat="45.23676" lon="5.94415">
        <ele>948.97</ele>
        <time>2019-11-25T13:39:46.000Z</time>
      </trkpt>
      <trkpt lat="45.23684" lon="5.94392">
        <ele>952.94</ele>
        <time>2019-11-25T13:39:51.000Z</time>
      </trkpt>
      <trkpt lat="45.2369" lon="5.94367">
        <ele>956.74</ele>
        <time>2019-11-25T13:39:56.000Z</time>
      </trkpt>
      <trkpt lat="45.23694" lon="5.94342">
        <ele>960.35</ele>
        <time>2019-11-25T13:40:01.000Z</time>
      </trkpt>
      <trkpt lat="45.23693" lon="5.94316">
        <ele>962.46</ele>
        <time>2019-11-25T13:40:06.000Z</time>
      </trkpt>
      <trkpt lat="45.23688" lon="5.9429">
        <ele>964.51</ele>
        <time>2019-11-25T13:40:11.000Z</time>
      </trkpt>
      <trkpt lat="45.23686" lon="5.94265">
        <ele>964.91</ele>
        <time>2019-11-25T13:40:16.000Z</time>
      </trkpt>
      <trkpt lat="45.23697" lon="5.9425">
        <ele>968.79</ele>
        <time>2019-11-25T13:40:21.000Z</time>
      </trkpt>
      <trkpt lat="45.23711" lon="5.94271">
        <ele>968.26</ele>
        <time>2019-11-25T13:40:26.000Z</time>
      </trkpt>
      <trkpt lat="45.23714" lon="5.943">
        <ele>967.19</ele>
        <time>2019-11-25T13:40:31.000Z</time>
      </trkpt>
      <trkpt lat="45.23718" lon="5.94327">
        <ele>968.86</ele>
        <time>2019-11-25T13:40:36.000Z</time>
      </trkpt>
      <trkpt lat="45.23725" lon="5.94349">
        <ele>969.74</ele>
        <time>2019-11-25T13:40:41.000Z</time>
      </trkpt>
      <trkpt lat="45.23729" lon="5.94372">
        <ele>969.56</ele>
        <time>2019-11-25T13:40:46.000Z</time>
      </trkpt>
      <trkpt lat="45.23731" lon="5.94397">
        <ele>973.18</ele>
        <time>2019-11-25T13:40:51.000Z</time>
      </trkpt>
      <trkpt lat="45.23729" lon="5.94423">
        <ele>976.2</ele>
        <time>2019-11-25T13:40:56.000Z</time>
      </trkpt>
      <trkpt lat="45.23731" lon="5.94448">
        <ele>977.19</ele>
        <time>2019-11-25T13:41:01.000Z</time>
      </trkpt>
      <trkpt lat="45.23732" lon="5.94473">
        <ele>976.42</ele>
        <time>2019-11-25T13:41:06.000Z</time>
      </trkpt>
      <trkpt lat="45.23736" lon="5.94498">
        <ele>979.02</ele>
        <time>2019-11-25T13:41:11.000Z</time>
      </trkpt>
      <trkpt lat="45.23744" lon="5.94521">
        <ele>979.84</ele>
        <time>2019-11-25T13:41:16.000Z</time>
      </trkpt>
      <trkpt lat="45.23753" lon="5.94543">
        <ele>980.2</ele>
        <time>2019-11-25T13:41:21.000Z</time>
      </trkpt>
      <trkpt lat="45.23762" lon="5.94565">
        <ele>981.2</ele>
        <time>2019-11-25T13:41:26.000Z</time>
      </trkpt>
      <trkpt lat="45.23771" lon="5.94586">
        <ele>981.87</ele>
        <time>2019-11-25T13:41:31.000Z</time>
      </trkpt>
      <trkpt lat="45.23779" lon="5.94609">
        <ele>983.12</ele>
        <time>2019-11-25T13:41:36.000Z</time>
      </trkpt>
      <trkpt lat="45.23789" lon="5.94631">
        <ele>985.09</ele>
        <time>2019-11-25T13:41:41.000Z</time>
      </trkpt>
      <trkpt lat="45.23798" lon="5.94653">
        <ele>988.12</ele>
        <time>2019-11-25T13:41:46.000Z</time>
      </trkpt>
      <trkpt lat="45.23806" lon="5.94676">
        <ele>989.86</ele>
        <time>2019-11-25T13:41:51.000Z</time>
      </trkpt>
      <trkpt lat="45.23813" lon="5.94698">
        <ele>989.98</ele>
        <time>2019-11-25T13:41:56.000Z</time>
      </trkpt>
      <trkpt lat="45.23821" lon="5.94721">
        <ele>993.61</ele>
        <time>2019-11-25T13:42:01.000Z</time>
      </trkpt>
      <trkpt lat="45.23828" lon="5.94745">
        <ele>995.41</ele>
        <time>2019-11-25T13:42:06.000Z</time>
      </trkpt>
      <trkpt lat="45.23832" lon="5.9477">
        <ele>996.48</ele>
        <time>2019-11-25T13:42:11.000Z</time>
      </trkpt>
      <trkpt lat="45.23835" lon="5.94795">
        <ele>998.07</ele>
        <time>2019-11-25T13:42:16.000Z</time>
      </trkpt>
      <trkpt lat="45.23838" lon="5.94819">
        <ele>999.19</ele>
        <time>2019-11-25T13:42:21.000Z</time>
      </trkpt>
      <trkpt lat="45.2384" lon="5.94843">
        <ele>999.72</ele>
        <time>2019-11-25T13:42:26.000Z</time>
      </trkpt>
      <trkpt lat="45.23841" lon="5.94868">
        <ele>999.83</ele>
        <time>2019-11-25T13:42:31.000Z</time>
      </trkpt>
      <trkpt lat="45.23837" lon="5.94894">
        <ele>999.87</ele>
        <time>2019-11-25T13:42:36.000Z</time>
      </trkpt>
      <trkpt lat="45.23841" lon="5.94918">
        <ele>998.74</ele>
        <time>2019-11-25T13:42:41.000Z</time>
      </trkpt>
      <trkpt lat="45.23846" lon="5.94945">
        <ele>1000.38</ele>
        <time>2019-11-25T13:42:46.000Z</time>
      </trkpt>
      <trkpt lat="45.23851" lon="5.94973">
        <ele>1002.09</ele>
        <time>2019-11-25T13:42:51.000Z</time>
      </trkpt>
      <trkpt lat="45.23867" lon="5.94994">
        <ele>1004.95</ele>
        <time>2019-11-25T13:42:56.000Z</time>
      </trkpt>
      <trkpt lat="45.23879" lon="5.9502">
        <ele>1009.34</ele>
        <time>2019-11-25T13:43:01.000Z</time>
      </trkpt>
      <trkpt lat="45.23893" lon="5.95047">
        <ele>1012.15</ele>
        <time>2019-11-25T13:43:06.000Z</time>
      </trkpt>
      <trkpt lat="45.23907" lon="5.95066">
        <ele>1012.56</ele>
        <time>2019-11-25T13:43:11.000Z</time>
      </trkpt>
      <trkpt lat="45.23919" lon="5.95089">
        <ele>1013.58</ele>
        <time>2019-11-25T13:43:16.000Z</time>
      </trkpt>
      <trkpt lat="45.23936" lon="5.95115">
        <ele>1015.44</ele>
        <time>2019-11-25T13:43:21.000Z</time>
      </trkpt>
      <trkpt lat="45.23948" lon="5.95133">
        <ele>1014.69</ele>
        <time>2019-11-25T13:43:26.000Z</time>
      </trkpt>
      <trkpt lat="45.23956" lon="5.95148">
        <ele>1013.83</ele>
        <time>2019-11-25T13:43:31.000Z</time>
      </trkpt>
      <trkpt lat="45.23951" lon="5.9516">
        <ele>1010.73</ele>
        <time>2019-11-25T13:44:07.000Z</time>
      </trkpt>
      <trkpt lat="45.23942" lon="5.95166">
        <ele>1013.25</ele>
        <time>2019-11-25T13:44:15.000Z</time>
      </trkpt>
      <trkpt lat="45.2395" lon="5.95158">
        <ele>1011.07</ele>
        <time>2019-11-25T13:47:56.000Z</time>
      </trkpt>
      <trkpt lat="45.23961" lon="5.95162">
        <ele>1007.86</ele>
        <time>2019-11-25T13:51:48.000Z</time>
      </trkpt>
      <trkpt lat="45.23973" lon="5.95175">
        <ele>1006.89</ele>
        <time>2019-11-25T13:51:53.000Z</time>
      </trkpt>
      <trkpt lat="45.23989" lon="5.95183">
        <ele>1010.71</ele>
        <time>2019-11-25T13:51:58.000Z</time>
      </trkpt>
      <trkpt lat="45.24006" lon="5.95213">
        <ele>1011.47</ele>
        <time>2019-11-25T13:52:03.000Z</time>
      </trkpt>
      <trkpt lat="45.24023" lon="5.95251">
        <ele>1012.34</ele>
        <time>2019-11-25T13:52:08.000Z</time>
      </trkpt>
      <trkpt lat="45.24043" lon="5.953">
        <ele>1017.22</ele>
        <time>2019-11-25T13:52:13.000Z</time>
      </trkpt>
      <trkpt lat="45.24058" lon="5.95357">
        <ele>1017.24</ele>
        <time>2019-11-25T13:52:18.000Z</time>
      </trkpt>
      <trkpt lat="45.24065" lon="5.95423">
        <ele>1020.64</ele>
        <time>2019-11-25T13:52:23.000Z</time>
      </trkpt>
      <trkpt lat="45.24077" lon="5.95476">
        <ele>1016.95</ele>
        <time>2019-11-25T13:52:28.000Z</time>
      </trkpt>
      <trkpt lat="45.24109" lon="5.95528">
        <ele>1010.69</ele>
        <time>2019-11-25T13:52:33.000Z</time>
      </trkpt>
      <trkpt lat="45.24148" lon="5.95581">
        <ele>1006.05</ele>
        <time>2019-11-25T13:52:38.000Z</time>
      </trkpt>
      <trkpt lat="45.24158" lon="5.95645">
        <ele>1003.27</ele>
        <time>2019-11-25T13:52:43.000Z</time>
      </trkpt>
      <trkpt lat="45.24155" lon="5.95701">
        <ele>1000.67</ele>
        <time>2019-11-25T13:52:48.000Z</time>
      </trkpt>
      <trkpt lat="45.24141" lon="5.95759">
        <ele>999.44</ele>
        <time>2019-11-25T13:52:53.000Z</time>
      </trkpt>
      <trkpt lat="45.24136" lon="5.95813">
        <ele>998.09</ele>
        <time>2019-11-25T13:52:58.000Z</time>
      </trkpt>
      <trkpt lat="45.24134" lon="5.95856">
        <ele>995.34</ele>
        <time>2019-11-25T13:53:03.000Z</time>
      </trkpt>
      <trkpt lat="45.24113" lon="5.95904">
        <ele>993.09</ele>
        <time>2019-11-25T13:53:08.000Z</time>
      </trkpt>
      <trkpt lat="45.24101" lon="5.9596">
        <ele>992.39</ele>
        <time>2019-11-25T13:53:13.000Z</time>
      </trkpt>
      <trkpt lat="45.24077" lon="5.96014">
        <ele>991.61</ele>
        <time>2019-11-25T13:53:18.000Z</time>
      </trkpt>
      <trkpt lat="45.2405" lon="5.96092">
        <ele>990.39</ele>
        <time>2019-11-25T13:53:23.000Z</time>
      </trkpt>
      <trkpt lat="45.24041" lon="5.96158">
        <ele>984.89</ele>
        <time>2019-11-25T13:53:28.000Z</time>
      </trkpt>
      <trkpt lat="45.2402" lon="5.96225">
        <ele>980.93</ele>
        <time>2019-11-25T13:53:33.000Z</time>
      </trkpt>
      <trkpt lat="45.23998" lon="5.96307">
        <ele>977.63</ele>
        <time>2019-11-25T13:53:38.000Z</time>
      </trkpt>
      <trkpt lat="45.2399" lon="5.96395">
        <ele>971.68</ele>
        <time>2019-11-25T13:53:43.000Z</time>
      </trkpt>
      <trkpt lat="45.23975" lon="5.96471">
        <ele>970.4</ele>
        <time>2019-11-25T13:53:48.000Z</time>
      </trkpt>
      <trkpt lat="45.23948" lon="5.96541">
        <ele>966.35</ele>
        <time>2019-11-25T13:53:53.000Z</time>
      </trkpt>
      <trkpt lat="45.2394" lon="5.96614">
        <ele>956.18</ele>
        <time>2019-11-25T13:53:58.000Z</time>
      </trkpt>
      <trkpt lat="45.23933" lon="5.96678">
        <ele>949.88</ele>
        <time>2019-11-25T13:54:03.000Z</time>
      </trkpt>
      <trkpt lat="45.23899" lon="5.96733">
        <ele>945.19</ele>
        <time>2019-11-25T13:54:08.000Z</time>
      </trkpt>
      <trkpt lat="45.23852" lon="5.96781">
        <ele>940.86</ele>
        <time>2019-11-25T13:54:13.000Z</time>
      </trkpt>
      <trkpt lat="45.23835" lon="5.96852">
        <ele>933.6</ele>
        <time>2019-11-25T13:54:18.000Z</time>
      </trkpt>
      <trkpt lat="45.23822" lon="5.9693">
        <ele>928.92</ele>
        <time>2019-11-25T13:54:23.000Z</time>
      </trkpt>
      <trkpt lat="45.23798" lon="5.97006">
        <ele>929.02</ele>
        <time>2019-11-25T13:54:28.000Z</time>
      </trkpt>
      <trkpt lat="45.23769" lon="5.97079">
        <ele>925.58</ele>
        <time>2019-11-25T13:54:33.000Z</time>
      </trkpt>
      <trkpt lat="45.23742" lon="5.97145">
        <ele>923.54</ele>
        <time>2019-11-25T13:54:38.000Z</time>
      </trkpt>
      <trkpt lat="45.2371" lon="5.97207">
        <ele>918.82</ele>
        <time>2019-11-25T13:54:43.000Z</time>
      </trkpt>
      <trkpt lat="45.23711" lon="5.97267">
        <ele>910.88</ele>
        <time>2019-11-25T13:54:48.000Z</time>
      </trkpt>
      <trkpt lat="45.23733" lon="5.97312">
        <ele>908.23</ele>
        <time>2019-11-25T13:54:53.000Z</time>
      </trkpt>
      <trkpt lat="45.23764" lon="5.97336">
        <ele>907.6</ele>
        <time>2019-11-25T13:54:58.000Z</time>
      </trkpt>
      <trkpt lat="45.23795" lon="5.97358">
        <ele>903.93</ele>
        <time>2019-11-25T13:55:03.000Z</time>
      </trkpt>
      <trkpt lat="45.23817" lon="5.9737">
        <ele>902.89</ele>
        <time>2019-11-25T13:55:08.000Z</time>
      </trkpt>
      <trkpt lat="45.23838" lon="5.9738">
        <ele>902.77</ele>
        <time>2019-11-25T13:55:13.000Z</time>
      </trkpt>
      <trkpt lat="45.23861" lon="5.97385">
        <ele>898.07</ele>
        <time>2019-11-25T13:55:18.000Z</time>
      </trkpt>
      <trkpt lat="45.23874" lon="5.97384">
        <ele>897.77</ele>
        <time>2019-11-25T13:55:23.000Z</time>
      </trkpt>
      <trkpt lat="45.23887" lon="5.97378">
        <ele>899.9</ele>
        <time>2019-11-25T13:55:28.000Z</time>
      </trkpt>
      <trkpt lat="45.23898" lon="5.97373">
        <ele>899.52</ele>
        <time>2019-11-25T13:55:33.000Z</time>
      </trkpt>
      <trkpt lat="45.23911" lon="5.97371">
        <ele>899.04</ele>
        <time>2019-11-25T13:55:38.000Z</time>
      </trkpt>
      <trkpt lat="45.23926" lon="5.97364">
        <ele>898.31</ele>
        <time>2019-11-25T13:55:43.000Z</time>
      </trkpt>
      <trkpt lat="45.23943" lon="5.97358">
        <ele>896.44</ele>
        <time>2019-11-25T13:55:48.000Z</time>
      </trkpt>
      <trkpt lat="45.23959" lon="5.97353">
        <ele>896.09</ele>
        <time>2019-11-25T13:55:53.000Z</time>
      </trkpt>
      <trkpt lat="45.2397" lon="5.97349">
        <ele>895.72</ele>
        <time>2019-11-25T13:55:58.000Z</time>
      </trkpt>
      <trkpt lat="45.23983" lon="5.97345">
        <ele>895.91</ele>
        <time>2019-11-25T13:56:03.000Z</time>
      </trkpt>
      <trkpt lat="45.23995" lon="5.97355">
        <ele>895.61</ele>
        <time>2019-11-25T13:56:08.000Z</time>
      </trkpt>
      <trkpt lat="45.23997" lon="5.97372">
        <ele>894.58</ele>
        <time>2019-11-25T13:56:13.000Z</time>
      </trkpt>
      <trkpt lat="45.23998" lon="5.97387">
        <ele>894.73</ele>
        <time>2019-11-25T13:56:18.000Z</time>
      </trkpt>
      <trkpt lat="45.24001" lon="5.97407">
        <ele>894.79</ele>
        <time>2019-11-25T13:56:23.000Z</time>
      </trkpt>
      <trkpt lat="45.24002" lon="5.97429">
        <ele>897.55</ele>
        <time>2019-11-25T13:56:28.000Z</time>
      </trkpt>
      <trkpt lat="45.24002" lon="5.9745">
        <ele>899.82</ele>
        <time>2019-11-25T13:56:33.000Z</time>
      </trkpt>
      <trkpt lat="45.24008" lon="5.97472">
        <ele>900.4</ele>
        <time>2019-11-25T13:56:38.000Z</time>
      </trkpt>
      <trkpt lat="45.24019" lon="5.97486">
        <ele>901</ele>
        <time>2019-11-25T13:56:43.000Z</time>
      </trkpt>
      <trkpt lat="45.24033" lon="5.97496">
        <ele>902.51</ele>
        <time>2019-11-25T13:56:48.000Z</time>
      </trkpt>
      <trkpt lat="45.24049" lon="5.97504">
        <ele>901.28</ele>
        <time>2019-11-25T13:56:53.000Z</time>
      </trkpt>
      <trkpt lat="45.24065" lon="5.97514">
        <ele>900.5</ele>
        <time>2019-11-25T13:56:58.000Z</time>
      </trkpt>
      <trkpt lat="45.24081" lon="5.97522">
        <ele>900.36</ele>
        <time>2019-11-25T13:57:03.000Z</time>
      </trkpt>
      <trkpt lat="45.24096" lon="5.97523">
        <ele>898.74</ele>
        <time>2019-11-25T13:57:08.000Z</time>
      </trkpt>
      <trkpt lat="45.24113" lon="5.97521">
        <ele>899.29</ele>
        <time>2019-11-25T13:57:13.000Z</time>
      </trkpt>
      <trkpt lat="45.24131" lon="5.97517">
        <ele>902.55</ele>
        <time>2019-11-25T13:57:18.000Z</time>
      </trkpt>
      <trkpt lat="45.24149" lon="5.97512">
        <ele>899.74</ele>
        <time>2019-11-25T13:57:23.000Z</time>
      </trkpt>
      <trkpt lat="45.24162" lon="5.97503">
        <ele>902.26</ele>
        <time>2019-11-25T13:57:28.000Z</time>
      </trkpt>
      <trkpt lat="45.24173" lon="5.9749">
        <ele>899.05</ele>
        <time>2019-11-25T13:57:33.000Z</time>
      </trkpt>
      <trkpt lat="45.24189" lon="5.97479">
        <ele>903.78</ele>
        <time>2019-11-25T13:57:38.000Z</time>
      </trkpt>
      <trkpt lat="45.24208" lon="5.97472">
        <ele>903.44</ele>
        <time>2019-11-25T13:57:43.000Z</time>
      </trkpt>
      <trkpt lat="45.24225" lon="5.97464">
        <ele>905.26</ele>
        <time>2019-11-25T13:57:48.000Z</time>
      </trkpt>
      <trkpt lat="45.24243" lon="5.97453">
        <ele>909.19</ele>
        <time>2019-11-25T13:57:53.000Z</time>
      </trkpt>
      <trkpt lat="45.24257" lon="5.97442">
        <ele>912.64</ele>
        <time>2019-11-25T13:57:58.000Z</time>
      </trkpt>
      <trkpt lat="45.24276" lon="5.97436">
        <ele>915.1</ele>
        <time>2019-11-25T13:58:03.000Z</time>
      </trkpt>
      <trkpt lat="45.24295" lon="5.97437">
        <ele>918.18</ele>
        <time>2019-11-25T13:58:08.000Z</time>
      </trkpt>
      <trkpt lat="45.2431" lon="5.97442">
        <ele>919.84</ele>
        <time>2019-11-25T13:58:13.000Z</time>
      </trkpt>
      <trkpt lat="45.24324" lon="5.97441">
        <ele>919.5</ele>
        <time>2019-11-25T13:58:18.000Z</time>
      </trkpt>
      <trkpt lat="45.24342" lon="5.97436">
        <ele>920.71</ele>
        <time>2019-11-25T13:58:23.000Z</time>
      </trkpt>
      <trkpt lat="45.24358" lon="5.97423">
        <ele>923.51</ele>
        <time>2019-11-25T13:58:28.000Z</time>
      </trkpt>
      <trkpt lat="45.24371" lon="5.97402">
        <ele>924.01</ele>
        <time>2019-11-25T13:58:33.000Z</time>
      </trkpt>
      <trkpt lat="45.24382" lon="5.9738">
        <ele>927.43</ele>
        <time>2019-11-25T13:58:38.000Z</time>
      </trkpt>
      <trkpt lat="45.24394" lon="5.9736">
        <ele>928.06</ele>
        <time>2019-11-25T13:58:43.000Z</time>
      </trkpt>
      <trkpt lat="45.24406" lon="5.97342">
        <ele>937.06</ele>
        <time>2019-11-25T13:58:48.000Z</time>
      </trkpt>
      <trkpt lat="45.24423" lon="5.97334">
        <ele>938.52</ele>
        <time>2019-11-25T13:58:53.000Z</time>
      </trkpt>
      <trkpt lat="45.24441" lon="5.97336">
        <ele>940.94</ele>
        <time>2019-11-25T13:58:58.000Z</time>
      </trkpt>
      <trkpt lat="45.24458" lon="5.97346">
        <ele>942.62</ele>
        <time>2019-11-25T13:59:03.000Z</time>
      </trkpt>
      <trkpt lat="45.24475" lon="5.97351">
        <ele>944.42</ele>
        <time>2019-11-25T13:59:08.000Z</time>
      </trkpt>
      <trkpt lat="45.24491" lon="5.97345">
        <ele>943.2</ele>
        <time>2019-11-25T13:59:13.000Z</time>
      </trkpt>
      <trkpt lat="45.24506" lon="5.97328">
        <ele>944.6</ele>
        <time>2019-11-25T13:59:18.000Z</time>
      </trkpt>
      <trkpt lat="45.24519" lon="5.97309">
        <ele>948.65</ele>
        <time>2019-11-25T13:59:23.000Z</time>
      </trkpt>
      <trkpt lat="45.24533" lon="5.97295">
        <ele>950.37</ele>
        <time>2019-11-25T13:59:28.000Z</time>
      </trkpt>
      <trkpt lat="45.24549" lon="5.9729">
        <ele>949.42</ele>
        <time>2019-11-25T13:59:33.000Z</time>
      </trkpt>
      <trkpt lat="45.24564" lon="5.9729">
        <ele>951.71</ele>
        <time>2019-11-25T13:59:38.000Z</time>
      </trkpt>
      <trkpt lat="45.24582" lon="5.9729">
        <ele>954.02</ele>
        <time>2019-11-25T13:59:43.000Z</time>
      </trkpt>
      <trkpt lat="45.24603" lon="5.97291">
        <ele>958.27</ele>
        <time>2019-11-25T13:59:48.000Z</time>
      </trkpt>
      <trkpt lat="45.24621" lon="5.97289">
        <ele>955.01</ele>
        <time>2019-11-25T13:59:53.000Z</time>
      </trkpt>
      <trkpt lat="45.24637" lon="5.97285">
        <ele>953.42</ele>
        <time>2019-11-25T13:59:58.000Z</time>
      </trkpt>
      <trkpt lat="45.24655" lon="5.97283">
        <ele>959.66</ele>
        <time>2019-11-25T14:00:03.000Z</time>
      </trkpt>
      <trkpt lat="45.24675" lon="5.9728">
        <ele>961.21</ele>
        <time>2019-11-25T14:00:08.000Z</time>
      </trkpt>
      <trkpt lat="45.24694" lon="5.97273">
        <ele>959.86</ele>
        <time>2019-11-25T14:00:13.000Z</time>
      </trkpt>
      <trkpt lat="45.24707" lon="5.97268">
        <ele>958.79</ele>
        <time>2019-11-25T14:00:18.000Z</time>
      </trkpt>
      <trkpt lat="45.24719" lon="5.97269">
        <ele>966.44</ele>
        <time>2019-11-25T14:01:24.000Z</time>
      </trkpt>
      <trkpt lat="45.24738" lon="5.97269">
        <ele>965.69</ele>
        <time>2019-11-25T14:01:29.000Z</time>
      </trkpt>
      <trkpt lat="45.24755" lon="5.9727">
        <ele>967.54</ele>
        <time>2019-11-25T14:01:34.000Z</time>
      </trkpt>
      <trkpt lat="45.24772" lon="5.97272">
        <ele>969.91</ele>
        <time>2019-11-25T14:01:39.000Z</time>
      </trkpt>
      <trkpt lat="45.24789" lon="5.97274">
        <ele>972.09</ele>
        <time>2019-11-25T14:01:44.000Z</time>
      </trkpt>
      <trkpt lat="45.24804" lon="5.97275">
        <ele>976.97</ele>
        <time>2019-11-25T14:01:49.000Z</time>
      </trkpt>
      <trkpt lat="45.24822" lon="5.97275">
        <ele>976.01</ele>
        <time>2019-11-25T14:01:54.000Z</time>
      </trkpt>
      <trkpt lat="45.24838" lon="5.9727">
        <ele>978.73</ele>
        <time>2019-11-25T14:01:59.000Z</time>
      </trkpt>
      <trkpt lat="45.24856" lon="5.97264">
        <ele>978.37</ele>
        <time>2019-11-25T14:02:04.000Z</time>
      </trkpt>
      <trkpt lat="45.24872" lon="5.97258">
        <ele>978.58</ele>
        <time>2019-11-25T14:02:09.000Z</time>
      </trkpt>
      <trkpt lat="45.24891" lon="5.97249">
        <ele>974.05</ele>
        <time>2019-11-25T14:02:14.000Z</time>
      </trkpt>
      <trkpt lat="45.24909" lon="5.97247">
        <ele>974.6</ele>
        <time>2019-11-25T14:02:19.000Z</time>
      </trkpt>
      <trkpt lat="45.24927" lon="5.97246">
        <ele>976.49</ele>
        <time>2019-11-25T14:02:24.000Z</time>
      </trkpt>
      <trkpt lat="45.24946" lon="5.97245">
        <ele>978.23</ele>
        <time>2019-11-25T14:02:29.000Z</time>
      </trkpt>
      <trkpt lat="45.24965" lon="5.97245">
        <ele>977.35</ele>
        <time>2019-11-25T14:02:34.000Z</time>
      </trkpt>
      <trkpt lat="45.24987" lon="5.97243">
        <ele>982.55</ele>
        <time>2019-11-25T14:02:39.000Z</time>
      </trkpt>
      <trkpt lat="45.25009" lon="5.97242">
        <ele>985.36</ele>
        <time>2019-11-25T14:02:44.000Z</time>
      </trkpt>
      <trkpt lat="45.25033" lon="5.97234">
        <ele>985.7</ele>
        <time>2019-11-25T14:02:49.000Z</time>
      </trkpt>
      <trkpt lat="45.25052" lon="5.97217">
        <ele>987.35</ele>
        <time>2019-11-25T14:02:54.000Z</time>
      </trkpt>
      <trkpt lat="45.25061" lon="5.97205">
        <ele>990.3</ele>
        <time>2019-11-25T14:02:59.000Z</time>
      </trkpt>
      <trkpt lat="45.25069" lon="5.97195">
        <ele>989.86</ele>
        <time>2019-11-25T14:03:04.000Z</time>
      </trkpt>
      <trkpt lat="45.2506" lon="5.97193">
        <ele>994.69</ele>
        <time>2019-11-25T14:07:58.000Z</time>
      </trkpt>
      <trkpt lat="45.25053" lon="5.97206">
        <ele>990.92</ele>
        <time>2019-11-25T14:08:03.000Z</time>
      </trkpt>
      <trkpt lat="45.25044" lon="5.97222">
        <ele>989.77</ele>
        <time>2019-11-25T14:08:08.000Z</time>
      </trkpt>
      <trkpt lat="45.25023" lon="5.97237">
        <ele>988.1</ele>
        <time>2019-11-25T14:08:13.000Z</time>
      </trkpt>
      <trkpt lat="45.24998" lon="5.9724">
        <ele>987.05</ele>
        <time>2019-11-25T14:08:18.000Z</time>
      </trkpt>
      <trkpt lat="45.24972" lon="5.97241">
        <ele>986.01</ele>
        <time>2019-11-25T14:08:23.000Z</time>
      </trkpt>
      <trkpt lat="45.24945" lon="5.97242">
        <ele>985.1</ele>
        <time>2019-11-25T14:08:28.000Z</time>
      </trkpt>
      <trkpt lat="45.24909" lon="5.97243">
        <ele>984.21</ele>
        <time>2019-11-25T14:08:33.000Z</time>
      </trkpt>
      <trkpt lat="45.24869" lon="5.9725">
        <ele>979.65</ele>
        <time>2019-11-25T14:08:38.000Z</time>
      </trkpt>
      <trkpt lat="45.24828" lon="5.97271">
        <ele>974.04</ele>
        <time>2019-11-25T14:08:43.000Z</time>
      </trkpt>
      <trkpt lat="45.24776" lon="5.97274">
        <ele>970.13</ele>
        <time>2019-11-25T14:08:48.000Z</time>
      </trkpt>
      <trkpt lat="45.2472" lon="5.97267">
        <ele>967.25</ele>
        <time>2019-11-25T14:08:53.000Z</time>
      </trkpt>
      <trkpt lat="45.2466" lon="5.97278">
        <ele>969.99</ele>
        <time>2019-11-25T14:08:58.000Z</time>
      </trkpt>
      <trkpt lat="45.24607" lon="5.97289">
        <ele>960.99</ele>
        <time>2019-11-25T14:09:03.000Z</time>
      </trkpt>
      <trkpt lat="45.24555" lon="5.97287">
        <ele>957.3</ele>
        <time>2019-11-25T14:09:08.000Z</time>
      </trkpt>
      <trkpt lat="45.2451" lon="5.97312">
        <ele>955.18</ele>
        <time>2019-11-25T14:09:13.000Z</time>
      </trkpt>
      <trkpt lat="45.24462" lon="5.97339">
        <ele>950.25</ele>
        <time>2019-11-25T14:09:18.000Z</time>
      </trkpt>
      <trkpt lat="45.24413" lon="5.97328">
        <ele>950.25</ele>
        <time>2019-11-25T14:09:23.000Z</time>
      </trkpt>
      <trkpt lat="45.24376" lon="5.9738">
        <ele>943.76</ele>
        <time>2019-11-25T14:09:28.000Z</time>
      </trkpt>
      <trkpt lat="45.24329" lon="5.97432">
        <ele>938.5</ele>
        <time>2019-11-25T14:09:33.000Z</time>
      </trkpt>
      <trkpt lat="45.24267" lon="5.97432">
        <ele>935.03</ele>
        <time>2019-11-25T14:09:38.000Z</time>
      </trkpt>
      <trkpt lat="45.24207" lon="5.97467">
        <ele>930.25</ele>
        <time>2019-11-25T14:09:43.000Z</time>
      </trkpt>
      <trkpt lat="45.24146" lon="5.97498">
        <ele>925.42</ele>
        <time>2019-11-25T14:09:48.000Z</time>
      </trkpt>
      <trkpt lat="45.24085" lon="5.97519">
        <ele>920.83</ele>
        <time>2019-11-25T14:09:53.000Z</time>
      </trkpt>
      <trkpt lat="45.24033" lon="5.97493">
        <ele>922.12</ele>
        <time>2019-11-25T14:09:58.000Z</time>
      </trkpt>
      <trkpt lat="45.23999" lon="5.97451">
        <ele>916.09</ele>
        <time>2019-11-25T14:10:03.000Z</time>
      </trkpt>
      <trkpt lat="45.23996" lon="5.97395">
        <ele>910.79</ele>
        <time>2019-11-25T14:10:08.000Z</time>
      </trkpt>
      <trkpt lat="45.23995" lon="5.97356">
        <ele>905.6</ele>
        <time>2019-11-25T14:10:13.000Z</time>
      </trkpt>
      <trkpt lat="45.23977" lon="5.97344">
        <ele>900.61</ele>
        <time>2019-11-25T14:10:18.000Z</time>
      </trkpt>
      <trkpt lat="45.23961" lon="5.97351">
        <ele>896.93</ele>
        <time>2019-11-25T14:10:23.000Z</time>
      </trkpt>
      <trkpt lat="45.23941" lon="5.9736">
        <ele>896.01</ele>
        <time>2019-11-25T14:10:28.000Z</time>
      </trkpt>
      <trkpt lat="45.23921" lon="5.97369">
        <ele>893.82</ele>
        <time>2019-11-25T14:10:33.000Z</time>
      </trkpt>
      <trkpt lat="45.239" lon="5.97374">
        <ele>893.02</ele>
        <time>2019-11-25T14:10:38.000Z</time>
      </trkpt>
      <trkpt lat="45.23877" lon="5.9738">
        <ele>892.12</ele>
        <time>2019-11-25T14:10:43.000Z</time>
      </trkpt>
      <trkpt lat="45.23856" lon="5.97381">
        <ele>892.88</ele>
        <time>2019-11-25T14:10:48.000Z</time>
      </trkpt>
      <trkpt lat="45.23845" lon="5.97373">
        <ele>890.45</ele>
        <time>2019-11-25T14:10:53.000Z</time>
      </trkpt>
      <trkpt lat="45.23835" lon="5.97372">
        <ele>886.95</ele>
        <time>2019-11-25T14:10:58.000Z</time>
      </trkpt>
      <trkpt lat="45.23817" lon="5.97369">
        <ele>888.78</ele>
        <time>2019-11-25T14:11:03.000Z</time>
      </trkpt>
      <trkpt lat="45.23801" lon="5.97359">
        <ele>893.07</ele>
        <time>2019-11-25T14:11:08.000Z</time>
      </trkpt>
      <trkpt lat="45.23784" lon="5.97349">
        <ele>895.34</ele>
        <time>2019-11-25T14:11:13.000Z</time>
      </trkpt>
      <trkpt lat="45.23767" lon="5.97338">
        <ele>903.4</ele>
        <time>2019-11-25T14:11:18.000Z</time>
      </trkpt>
      <trkpt lat="45.2375" lon="5.9733">
        <ele>906.69</ele>
        <time>2019-11-25T14:11:23.000Z</time>
      </trkpt>
      <trkpt lat="45.23733" lon="5.97318">
        <ele>908.47</ele>
        <time>2019-11-25T14:11:28.000Z</time>
      </trkpt>
      <trkpt lat="45.23718" lon="5.97301">
        <ele>908.31</ele>
        <time>2019-11-25T14:11:33.000Z</time>
      </trkpt>
      <trkpt lat="45.23706" lon="5.97279">
        <ele>906.25</ele>
        <time>2019-11-25T14:11:38.000Z</time>
      </trkpt>
      <trkpt lat="45.23702" lon="5.97253">
        <ele>905.49</ele>
        <time>2019-11-25T14:11:43.000Z</time>
      </trkpt>
      <trkpt lat="45.23701" lon="5.97227">
        <ele>906.77</ele>
        <time>2019-11-25T14:11:48.000Z</time>
      </trkpt>
      <trkpt lat="45.23703" lon="5.97196">
        <ele>907.12</ele>
        <time>2019-11-25T14:11:53.000Z</time>
      </trkpt>
      <trkpt lat="45.23711" lon="5.97167">
        <ele>908.03</ele>
        <time>2019-11-25T14:11:58.000Z</time>
      </trkpt>
      <trkpt lat="45.23722" lon="5.97143">
        <ele>904.82</ele>
        <time>2019-11-25T14:12:03.000Z</time>
      </trkpt>
      <trkpt lat="45.23733" lon="5.97121">
        <ele>904.79</ele>
        <time>2019-11-25T14:12:08.000Z</time>
      </trkpt>
      <trkpt lat="45.23741" lon="5.97095">
        <ele>906.58</ele>
        <time>2019-11-25T14:12:13.000Z</time>
      </trkpt>
      <trkpt lat="45.2375" lon="5.97067">
        <ele>907.22</ele>
        <time>2019-11-25T14:12:18.000Z</time>
      </trkpt>
      <trkpt lat="45.23761" lon="5.97039">
        <ele>906.49</ele>
        <time>2019-11-25T14:12:23.000Z</time>
      </trkpt>
      <trkpt lat="45.23778" lon="5.9701">
        <ele>909.38</ele>
        <time>2019-11-25T14:12:28.000Z</time>
      </trkpt>
      <trkpt lat="45.23793" lon="5.96982">
        <ele>909.35</ele>
        <time>2019-11-25T14:12:33.000Z</time>
      </trkpt>
      <trkpt lat="45.23803" lon="5.96954">
        <ele>910.76</ele>
        <time>2019-11-25T14:12:38.000Z</time>
      </trkpt>
      <trkpt lat="45.23814" lon="5.96927">
        <ele>912.2</ele>
        <time>2019-11-25T14:12:43.000Z</time>
      </trkpt>
      <trkpt lat="45.23823" lon="5.96898">
        <ele>916.81</ele>
        <time>2019-11-25T14:12:48.000Z</time>
      </trkpt>
      <trkpt lat="45.23828" lon="5.96871">
        <ele>918.9</ele>
        <time>2019-11-25T14:12:53.000Z</time>
      </trkpt>
      <trkpt lat="45.2383" lon="5.96841">
        <ele>919.99</ele>
        <time>2019-11-25T14:12:58.000Z</time>
      </trkpt>
      <trkpt lat="45.23834" lon="5.96812">
        <ele>922.21</ele>
        <time>2019-11-25T14:13:03.000Z</time>
      </trkpt>
      <trkpt lat="45.2384" lon="5.96785">
        <ele>925.66</ele>
        <time>2019-11-25T14:13:08.000Z</time>
      </trkpt>
      <trkpt lat="45.23847" lon="5.96763">
        <ele>926.39</ele>
        <time>2019-11-25T14:13:13.000Z</time>
      </trkpt>
      <trkpt lat="45.23857" lon="5.96747">
        <ele>925.03</ele>
        <time>2019-11-25T14:13:18.000Z</time>
      </trkpt>
      <trkpt lat="45.23871" lon="5.9673">
        <ele>925.92</ele>
        <time>2019-11-25T14:13:23.000Z</time>
      </trkpt>
      <trkpt lat="45.23886" lon="5.96718">
        <ele>921.71</ele>
        <time>2019-11-25T14:13:28.000Z</time>
      </trkpt>
      <trkpt lat="45.23901" lon="5.96701">
        <ele>925.04</ele>
        <time>2019-11-25T14:13:33.000Z</time>
      </trkpt>
      <trkpt lat="45.23913" lon="5.96684">
        <ele>924.98</ele>
        <time>2019-11-25T14:13:38.000Z</time>
      </trkpt>
      <trkpt lat="45.23922" lon="5.96663">
        <ele>925.36</ele>
        <time>2019-11-25T14:13:43.000Z</time>
      </trkpt>
      <trkpt lat="45.23929" lon="5.96639">
        <ele>926.91</ele>
        <time>2019-11-25T14:13:48.000Z</time>
      </trkpt>
      <trkpt lat="45.23933" lon="5.96613">
        <ele>927.72</ele>
        <time>2019-11-25T14:13:53.000Z</time>
      </trkpt>
      <trkpt lat="45.23933" lon="5.96587">
        <ele>931.58</ele>
        <time>2019-11-25T14:13:58.000Z</time>
      </trkpt>
      <trkpt lat="45.23934" lon="5.96564">
        <ele>934.75</ele>
        <time>2019-11-25T14:14:03.000Z</time>
      </trkpt>
      <trkpt lat="45.23936" lon="5.9654">
        <ele>935.26</ele>
        <time>2019-11-25T14:14:08.000Z</time>
      </trkpt>
      <trkpt lat="45.2394" lon="5.96519">
        <ele>935.14</ele>
        <time>2019-11-25T14:14:13.000Z</time>
      </trkpt>
      <trkpt lat="45.2395" lon="5.96499">
        <ele>936.21</ele>
        <time>2019-11-25T14:14:18.000Z</time>
      </trkpt>
      <trkpt lat="45.23961" lon="5.96481">
        <ele>935.34</ele>
        <time>2019-11-25T14:14:23.000Z</time>
      </trkpt>
      <trkpt lat="45.23968" lon="5.96462">
        <ele>934.99</ele>
        <time>2019-11-25T14:14:28.000Z</time>
      </trkpt>
      <trkpt lat="45.23973" lon="5.96435">
        <ele>938.27</ele>
        <time>2019-11-25T14:14:33.000Z</time>
      </trkpt>
      <trkpt lat="45.23971" lon="5.96411">
        <ele>943.5</ele>
        <time>2019-11-25T14:14:38.000Z</time>
      </trkpt>
      <trkpt lat="45.23974" lon="5.96391">
        <ele>945.05</ele>
        <time>2019-11-25T14:14:43.000Z</time>
      </trkpt>
      <trkpt lat="45.23978" lon="5.96362">
        <ele>948.99</ele>
        <time>2019-11-25T14:14:48.000Z</time>
      </trkpt>
      <trkpt lat="45.23975" lon="5.96337">
        <ele>950.52</ele>
        <time>2019-11-25T14:14:53.000Z</time>
      </trkpt>
      <trkpt lat="45.23974" lon="5.96308">
        <ele>952.13</ele>
        <time>2019-11-25T14:14:58.000Z</time>
      </trkpt>
      <trkpt lat="45.23982" lon="5.96284">
        <ele>954.61</ele>
        <time>2019-11-25T14:15:03.000Z</time>
      </trkpt>
      <trkpt lat="45.23991" lon="5.96259">
        <ele>954.48</ele>
        <time>2019-11-25T14:15:08.000Z</time>
      </trkpt>
      <trkpt lat="45.23996" lon="5.96236">
        <ele>957.06</ele>
        <time>2019-11-25T14:15:13.000Z</time>
      </trkpt>
      <trkpt lat="45.24002" lon="5.96213">
        <ele>958.74</ele>
        <time>2019-11-25T14:15:18.000Z</time>
      </trkpt>
      <trkpt lat="45.24006" lon="5.96191">
        <ele>961.29</ele>
        <time>2019-11-25T14:15:23.000Z</time>
      </trkpt>
      <trkpt lat="45.24012" lon="5.96165">
        <ele>965.16</ele>
        <time>2019-11-25T14:15:28.000Z</time>
      </trkpt>
      <trkpt lat="45.24026" lon="5.96145">
        <ele>967.5</ele>
        <time>2019-11-25T14:15:33.000Z</time>
      </trkpt>
      <trkpt lat="45.24039" lon="5.96123">
        <ele>970.01</ele>
        <time>2019-11-25T14:15:38.000Z</time>
      </trkpt>
      <trkpt lat="45.2405" lon="5.96102">
        <ele>970.18</ele>
        <time>2019-11-25T14:15:43.000Z</time>
      </trkpt>
      <trkpt lat="45.24057" lon="5.96078">
        <ele>971.02</ele>
        <time>2019-11-25T14:15:48.000Z</time>
      </trkpt>
      <trkpt lat="45.2406" lon="5.96051">
        <ele>972.44</ele>
        <time>2019-11-25T14:15:53.000Z</time>
      </trkpt>
      <trkpt lat="45.24065" lon="5.9603">
        <ele>973.88</ele>
        <time>2019-11-25T14:15:58.000Z</time>
      </trkpt>
      <trkpt lat="45.24075" lon="5.96012">
        <ele>974.66</ele>
        <time>2019-11-25T14:16:03.000Z</time>
      </trkpt>
      <trkpt lat="45.24085" lon="5.9599">
        <ele>978.84</ele>
        <time>2019-11-25T14:16:08.000Z</time>
      </trkpt>
      <trkpt lat="45.24094" lon="5.95969">
        <ele>980.88</ele>
        <time>2019-11-25T14:16:13.000Z</time>
      </trkpt>
      <trkpt lat="45.24103" lon="5.95945">
        <ele>981.49</ele>
        <time>2019-11-25T14:16:18.000Z</time>
      </trkpt>
      <trkpt lat="45.24109" lon="5.95925">
        <ele>983.68</ele>
        <time>2019-11-25T14:16:23.000Z</time>
      </trkpt>
      <trkpt lat="45.24113" lon="5.95898">
        <ele>985.86</ele>
        <time>2019-11-25T14:16:28.000Z</time>
      </trkpt>
      <trkpt lat="45.24121" lon="5.9587">
        <ele>988.07</ele>
        <time>2019-11-25T14:16:33.000Z</time>
      </trkpt>
      <trkpt lat="45.24132" lon="5.95842">
        <ele>987.63</ele>
        <time>2019-11-25T14:16:38.000Z</time>
      </trkpt>
      <trkpt lat="45.24133" lon="5.9581">
        <ele>986.57</ele>
        <time>2019-11-25T14:16:43.000Z</time>
      </trkpt>
      <trkpt lat="45.24141" lon="5.95781">
        <ele>983.3</ele>
        <time>2019-11-25T14:16:48.000Z</time>
      </trkpt>
      <trkpt lat="45.24147" lon="5.9574">
        <ele>984.8</ele>
        <time>2019-11-25T14:16:53.000Z</time>
      </trkpt>
      <trkpt lat="45.24153" lon="5.95698">
        <ele>985.62</ele>
        <time>2019-11-25T14:16:58.000Z</time>
      </trkpt>
      <trkpt lat="45.24155" lon="5.95656">
        <ele>989.63</ele>
        <time>2019-11-25T14:17:03.000Z</time>
      </trkpt>
      <trkpt lat="45.24151" lon="5.95613">
        <ele>993.41</ele>
        <time>2019-11-25T14:17:08.000Z</time>
      </trkpt>
      <trkpt lat="45.2414" lon="5.95571">
        <ele>996.91</ele>
        <time>2019-11-25T14:17:13.000Z</time>
      </trkpt>
      <trkpt lat="45.2412" lon="5.9554">
        <ele>995.26</ele>
        <time>2019-11-25T14:17:18.000Z</time>
      </trkpt>
      <trkpt lat="45.24103" lon="5.95517">
        <ele>997.94</ele>
        <time>2019-11-25T14:17:23.000Z</time>
      </trkpt>
      <trkpt lat="45.24085" lon="5.95496">
        <ele>1001.41</ele>
        <time>2019-11-25T14:17:28.000Z</time>
      </trkpt>
      <trkpt lat="45.24072" lon="5.95469">
        <ele>1006.12</ele>
        <time>2019-11-25T14:17:33.000Z</time>
      </trkpt>
      <trkpt lat="45.24059" lon="5.95443">
        <ele>1008.74</ele>
        <time>2019-11-25T14:17:38.000Z</time>
      </trkpt>
      <trkpt lat="45.24057" lon="5.95404">
        <ele>1006.06</ele>
        <time>2019-11-25T14:17:43.000Z</time>
      </trkpt>
      <trkpt lat="45.24049" lon="5.95373">
        <ele>1011.09</ele>
        <time>2019-11-25T14:17:48.000Z</time>
      </trkpt>
      <trkpt lat="45.24043" lon="5.9534">
        <ele>1014.1</ele>
        <time>2019-11-25T14:17:53.000Z</time>
      </trkpt>
      <trkpt lat="45.24035" lon="5.95308">
        <ele>1013.91</ele>
        <time>2019-11-25T14:17:58.000Z</time>
      </trkpt>
      <trkpt lat="45.2402" lon="5.95279">
        <ele>1015.25</ele>
        <time>2019-11-25T14:18:03.000Z</time>
      </trkpt>
      <trkpt lat="45.24008" lon="5.95246">
        <ele>1016.36</ele>
        <time>2019-11-25T14:18:08.000Z</time>
      </trkpt>
      <trkpt lat="45.23994" lon="5.95226">
        <ele>1013.94</ele>
        <time>2019-11-25T14:18:13.000Z</time>
      </trkpt>
      <trkpt lat="45.23974" lon="5.95207">
        <ele>1012.81</ele>
        <time>2019-11-25T14:18:18.000Z</time>
      </trkpt>
      <trkpt lat="45.23965" lon="5.95177">
        <ele>1013.99</ele>
        <time>2019-11-25T14:18:23.000Z</time>
      </trkpt>
      <trkpt lat="45.23955" lon="5.95154">
        <ele>1016.03</ele>
        <time>2019-11-25T14:18:28.000Z</time>
      </trkpt>
      <trkpt lat="45.23943" lon="5.95139">
        <ele>1020.77</ele>
        <time>2019-11-25T14:18:33.000Z</time>
      </trkpt>
      <trkpt lat="45.23936" lon="5.95128">
        <ele>1021.76</ele>
        <time>2019-11-25T14:18:38.000Z</time>
      </trkpt>
      <trkpt lat="45.23928" lon="5.9512">
        <ele>1020.59</ele>
        <time>2019-11-25T14:19:38.000Z</time>
      </trkpt>
      <trkpt lat="45.23922" lon="5.95105">
        <ele>1019.03</ele>
        <time>2019-11-25T14:19:43.000Z</time>
      </trkpt>
      <trkpt lat="45.2391" lon="5.95084">
        <ele>1015.43</ele>
        <time>2019-11-25T14:19:48.000Z</time>
      </trkpt>
      <trkpt lat="45.23895" lon="5.95055">
        <ele>1011.76</ele>
        <time>2019-11-25T14:19:53.000Z</time>
      </trkpt>
      <trkpt lat="45.23874" lon="5.95015">
        <ele>1010.62</ele>
        <time>2019-11-25T14:19:58.000Z</time>
      </trkpt>
      <trkpt lat="45.23858" lon="5.94972">
        <ele>1010.07</ele>
        <time>2019-11-25T14:20:03.000Z</time>
      </trkpt>
      <trkpt lat="45.23847" lon="5.94912">
        <ele>1008.36</ele>
        <time>2019-11-25T14:20:08.000Z</time>
      </trkpt>
      <trkpt lat="45.23838" lon="5.94844">
        <ele>1008.98</ele>
        <time>2019-11-25T14:20:13.000Z</time>
      </trkpt>
      <trkpt lat="45.2383" lon="5.9481">
        <ele>1009.93</ele>
        <time>2019-11-25T14:20:18.000Z</time>
      </trkpt>
      <trkpt lat="45.23824" lon="5.94783">
        <ele>1006.49</ele>
        <time>2019-11-25T14:20:23.000Z</time>
      </trkpt>
      <trkpt lat="45.23821" lon="5.94753">
        <ele>1002.9</ele>
        <time>2019-11-25T14:20:28.000Z</time>
      </trkpt>
      <trkpt lat="45.2381" lon="5.94715">
        <ele>1001.28</ele>
        <time>2019-11-25T14:20:33.000Z</time>
      </trkpt>
      <trkpt lat="45.23798" lon="5.94681">
        <ele>1001.07</ele>
        <time>2019-11-25T14:20:38.000Z</time>
      </trkpt>
      <trkpt lat="45.23789" lon="5.94648">
        <ele>998.14</ele>
        <time>2019-11-25T14:20:43.000Z</time>
      </trkpt>
      <trkpt lat="45.23771" lon="5.94601">
        <ele>996.87</ele>
        <time>2019-11-25T14:20:48.000Z</time>
      </trkpt>
      <trkpt lat="45.23749" lon="5.94545">
        <ele>993.35</ele>
        <time>2019-11-25T14:20:53.000Z</time>
      </trkpt>
      <trkpt lat="45.23729" lon="5.94481">
        <ele>988.81</ele>
        <time>2019-11-25T14:20:58.000Z</time>
      </trkpt>
      <trkpt lat="45.23724" lon="5.94408">
        <ele>984.67</ele>
        <time>2019-11-25T14:21:03.000Z</time>
      </trkpt>
      <trkpt lat="45.23708" lon="5.94333">
        <ele>983.22</ele>
        <time>2019-11-25T14:21:08.000Z</time>
      </trkpt>
      <trkpt lat="45.23696" lon="5.94262">
        <ele>982.4</ele>
        <time>2019-11-25T14:21:13.000Z</time>
      </trkpt>
      <trkpt lat="45.23677" lon="5.94266">
        <ele>977.98</ele>
        <time>2019-11-25T14:21:18.000Z</time>
      </trkpt>
      <trkpt lat="45.23684" lon="5.94317">
        <ele>971.97</ele>
        <time>2019-11-25T14:21:23.000Z</time>
      </trkpt>
      <trkpt lat="45.2368" lon="5.94381">
        <ele>966.27</ele>
        <time>2019-11-25T14:21:28.000Z</time>
      </trkpt>
      <trkpt lat="45.23655" lon="5.94451">
        <ele>966.74</ele>
        <time>2019-11-25T14:21:33.000Z</time>
      </trkpt>
      <trkpt lat="45.23615" lon="5.94498">
        <ele>964.54</ele>
        <time>2019-11-25T14:21:38.000Z</time>
      </trkpt>
      <trkpt lat="45.2356" lon="5.94509">
        <ele>958.99</ele>
        <time>2019-11-25T14:21:43.000Z</time>
      </trkpt>
      <trkpt lat="45.23533" lon="5.94488">
        <ele>955.12</ele>
        <time>2019-11-25T14:21:48.000Z</time>
      </trkpt>
      <trkpt lat="45.23538" lon="5.94443">
        <ele>955</ele>
        <time>2019-11-25T14:21:53.000Z</time>
      </trkpt>
      <trkpt lat="45.23577" lon="5.94428">
        <ele>947.2</ele>
        <time>2019-11-25T14:21:58.000Z</time>
      </trkpt>
      <trkpt lat="45.23595" lon="5.94376">
        <ele>944.35</ele>
        <time>2019-11-25T14:22:03.000Z</time>
      </trkpt>
      <trkpt lat="45.23589" lon="5.94306">
        <ele>942.32</ele>
        <time>2019-11-25T14:22:08.000Z</time>
      </trkpt>
      <trkpt lat="45.23571" lon="5.94239">
        <ele>936.91</ele>
        <time>2019-11-25T14:22:13.000Z</time>
      </trkpt>
      <trkpt lat="45.23572" lon="5.94172">
        <ele>930.89</ele>
        <time>2019-11-25T14:22:18.000Z</time>
      </trkpt>
      <trkpt lat="45.23591" lon="5.94111">
        <ele>925.95</ele>
        <time>2019-11-25T14:22:23.000Z</time>
      </trkpt>
      <trkpt lat="45.23605" lon="5.94045">
        <ele>921.85</ele>
        <time>2019-11-25T14:22:28.000Z</time>
      </trkpt>
      <trkpt lat="45.23607" lon="5.9397">
        <ele>919.66</ele>
        <time>2019-11-25T14:22:33.000Z</time>
      </trkpt>
      <trkpt lat="45.23623" lon="5.93913">
        <ele>918.33</ele>
        <time>2019-11-25T14:22:38.000Z</time>
      </trkpt>
      <trkpt lat="45.23601" lon="5.9393">
        <ele>918.65</ele>
        <time>2019-11-25T14:22:43.000Z</time>
      </trkpt>
      <trkpt lat="45.23594" lon="5.93983">
        <ele>914.03</ele>
        <time>2019-11-25T14:22:48.000Z</time>
      </trkpt>
      <trkpt lat="45.23575" lon="5.94042">
        <ele>909.91</ele>
        <time>2019-11-25T14:22:53.000Z</time>
      </trkpt>
      <trkpt lat="45.2354" lon="5.94093">
        <ele>911.19</ele>
        <time>2019-11-25T14:22:58.000Z</time>
      </trkpt>
      <trkpt lat="45.23498" lon="5.94131">
        <ele>912.35</ele>
        <time>2019-11-25T14:23:03.000Z</time>
      </trkpt>
      <trkpt lat="45.23486" lon="5.94099">
        <ele>906.08</ele>
        <time>2019-11-25T14:23:08.000Z</time>
      </trkpt>
      <trkpt lat="45.23508" lon="5.94044">
        <ele>901.13</ele>
        <time>2019-11-25T14:23:13.000Z</time>
      </trkpt>
      <trkpt lat="45.23529" lon="5.93979">
        <ele>896.79</ele>
        <time>2019-11-25T14:23:18.000Z</time>
      </trkpt>
      <trkpt lat="45.23518" lon="5.93903">
        <ele>892.41</ele>
        <time>2019-11-25T14:23:23.000Z</time>
      </trkpt>
      <trkpt lat="45.23499" lon="5.93839">
        <ele>891.08</ele>
        <time>2019-11-25T14:23:28.000Z</time>
      </trkpt>
      <trkpt lat="45.23504" lon="5.93769">
        <ele>883.01</ele>
        <time>2019-11-25T14:23:33.000Z</time>
      </trkpt>
      <trkpt lat="45.23504" lon="5.93686">
        <ele>879.75</ele>
        <time>2019-11-25T14:23:38.000Z</time>
      </trkpt>
      <trkpt lat="45.23495" lon="5.93605">
        <ele>871.59</ele>
        <time>2019-11-25T14:23:43.000Z</time>
      </trkpt>
      <trkpt lat="45.23511" lon="5.93527">
        <ele>860.67</ele>
        <time>2019-11-25T14:23:48.000Z</time>
      </trkpt>
      <trkpt lat="45.23531" lon="5.93464">
        <ele>858.22</ele>
        <time>2019-11-25T14:23:53.000Z</time>
      </trkpt>
      <trkpt lat="45.2355" lon="5.93395">
        <ele>852.38</ele>
        <time>2019-11-25T14:23:58.000Z</time>
      </trkpt>
      <trkpt lat="45.23561" lon="5.93317">
        <ele>846.82</ele>
        <time>2019-11-25T14:24:03.000Z</time>
      </trkpt>
      <trkpt lat="45.23592" lon="5.93252">
        <ele>840.78</ele>
        <time>2019-11-25T14:24:08.000Z</time>
      </trkpt>
      <trkpt lat="45.23633" lon="5.9319">
        <ele>836.8</ele>
        <time>2019-11-25T14:24:13.000Z</time>
      </trkpt>
      <trkpt lat="45.23679" lon="5.93127">
        <ele>831.82</ele>
        <time>2019-11-25T14:24:18.000Z</time>
      </trkpt>
      <trkpt lat="45.23727" lon="5.93066">
        <ele>825.28</ele>
        <time>2019-11-25T14:24:23.000Z</time>
      </trkpt>
      <trkpt lat="45.23752" lon="5.93003">
        <ele>820.34</ele>
        <time>2019-11-25T14:24:28.000Z</time>
      </trkpt>
      <trkpt lat="45.2378" lon="5.92924">
        <ele>817.29</ele>
        <time>2019-11-25T14:24:33.000Z</time>
      </trkpt>
      <trkpt lat="45.23796" lon="5.92877">
        <ele>811.94</ele>
        <time>2019-11-25T14:24:38.000Z</time>
      </trkpt>
      <trkpt lat="45.23773" lon="5.92891">
        <ele>808.93</ele>
        <time>2019-11-25T14:24:43.000Z</time>
      </trkpt>
      <trkpt lat="45.23757" lon="5.92925">
        <ele>805.46</ele>
        <time>2019-11-25T14:24:48.000Z</time>
      </trkpt>
      <trkpt lat="45.23731" lon="5.92966">
        <ele>801.88</ele>
        <time>2019-11-25T14:24:53.000Z</time>
      </trkpt>
      <trkpt lat="45.23691" lon="5.93006">
        <ele>799.72</ele>
        <time>2019-11-25T14:24:58.000Z</time>
      </trkpt>
      <trkpt lat="45.23642" lon="5.93037">
        <ele>792.32</ele>
        <time>2019-11-25T14:25:03.000Z</time>
      </trkpt>
      <trkpt lat="45.23586" lon="5.93062">
        <ele>789.2</ele>
        <time>2019-11-25T14:25:08.000Z</time>
      </trkpt>
      <trkpt lat="45.23538" lon="5.9306">
        <ele>787.73</ele>
        <time>2019-11-25T14:25:13.000Z</time>
      </trkpt>
      <trkpt lat="45.23498" lon="5.93086">
        <ele>786.36</ele>
        <time>2019-11-25T14:25:18.000Z</time>
      </trkpt>
      <trkpt lat="45.2346" lon="5.93132">
        <ele>784.28</ele>
        <time>2019-11-25T14:25:23.000Z</time>
      </trkpt>
      <trkpt lat="45.23416" lon="5.93187">
        <ele>779.42</ele>
        <time>2019-11-25T14:25:28.000Z</time>
      </trkpt>
      <trkpt lat="45.23361" lon="5.93241">
        <ele>773.37</ele>
        <time>2019-11-25T14:25:33.000Z</time>
      </trkpt>
      <trkpt lat="45.23305" lon="5.93287">
        <ele>764.24</ele>
        <time>2019-11-25T14:25:38.000Z</time>
      </trkpt>
      <trkpt lat="45.23246" lon="5.93342">
        <ele>760.22</ele>
        <time>2019-11-25T14:25:43.000Z</time>
      </trkpt>
      <trkpt lat="45.232" lon="5.93408">
        <ele>756.86</ele>
        <time>2019-11-25T14:25:48.000Z</time>
      </trkpt>
      <trkpt lat="45.23151" lon="5.93439">
        <ele>756.3</ele>
        <time>2019-11-25T14:25:53.000Z</time>
      </trkpt>
      <trkpt lat="45.23105" lon="5.93411">
        <ele>755.63</ele>
        <time>2019-11-25T14:25:58.000Z</time>
      </trkpt>
      <trkpt lat="45.23056" lon="5.93393">
        <ele>748.69</ele>
        <time>2019-11-25T14:26:03.000Z</time>
      </trkpt>
      <trkpt lat="45.23027" lon="5.93364">
        <ele>746.81</ele>
        <time>2019-11-25T14:26:08.000Z</time>
      </trkpt>
      <trkpt lat="45.23008" lon="5.93349">
        <ele>745.46</ele>
        <time>2019-11-25T14:26:13.000Z</time>
      </trkpt>
      <trkpt lat="45.22993" lon="5.93345">
        <ele>744.47</ele>
        <time>2019-11-25T14:26:18.000Z</time>
      </trkpt>
      <trkpt lat="45.22976" lon="5.93344">
        <ele>748.06</ele>
        <time>2019-11-25T14:26:23.000Z</time>
      </trkpt>
      <trkpt lat="45.2296" lon="5.93341">
        <ele>749.78</ele>
        <time>2019-11-25T14:26:28.000Z</time>
      </trkpt>
      <trkpt lat="45.22941" lon="5.93342">
        <ele>751.95</ele>
        <time>2019-11-25T14:26:33.000Z</time>
      </trkpt>
      <trkpt lat="45.22922" lon="5.93348">
        <ele>748.34</ele>
        <time>2019-11-25T14:26:38.000Z</time>
      </trkpt>
      <trkpt lat="45.22902" lon="5.93353">
        <ele>749.63</ele>
        <time>2019-11-25T14:26:43.000Z</time>
      </trkpt>
      <trkpt lat="45.22886" lon="5.9334">
        <ele>747.41</ele>
        <time>2019-11-25T14:26:48.000Z</time>
      </trkpt>
      <trkpt lat="45.22871" lon="5.93328">
        <ele>748.88</ele>
        <time>2019-11-25T14:26:53.000Z</time>
      </trkpt>
      <trkpt lat="45.22851" lon="5.93324">
        <ele>749.36</ele>
        <time>2019-11-25T14:26:58.000Z</time>
      </trkpt>
      <trkpt lat="45.22828" lon="5.93326">
        <ele>751.09</ele>
        <time>2019-11-25T14:27:03.000Z</time>
      </trkpt>
      <trkpt lat="45.22803" lon="5.93331">
        <ele>756.97</ele>
        <time>2019-11-25T14:27:08.000Z</time>
      </trkpt>
      <trkpt lat="45.22782" lon="5.93336">
        <ele>760.66</ele>
        <time>2019-11-25T14:27:13.000Z</time>
      </trkpt>
      <trkpt lat="45.22763" lon="5.93347">
        <ele>759.93</ele>
        <time>2019-11-25T14:27:18.000Z</time>
      </trkpt>
      <trkpt lat="45.22746" lon="5.93365">
        <ele>758.49</ele>
        <time>2019-11-25T14:27:23.000Z</time>
      </trkpt>
      <trkpt lat="45.22733" lon="5.93382">
        <ele>757.39</ele>
        <time>2019-11-25T14:27:28.000Z</time>
      </trkpt>
      <trkpt lat="45.22717" lon="5.93401">
        <ele>760.3</ele>
        <time>2019-11-25T14:27:33.000Z</time>
      </trkpt>
      <trkpt lat="45.22699" lon="5.93422">
        <ele>759.48</ele>
        <time>2019-11-25T14:27:38.000Z</time>
      </trkpt>
      <trkpt lat="45.22683" lon="5.93438">
        <ele>762.46</ele>
        <time>2019-11-25T14:27:43.000Z</time>
      </trkpt>
      <trkpt lat="45.22664" lon="5.93449">
        <ele>767.5</ele>
        <time>2019-11-25T14:27:48.000Z</time>
      </trkpt>
      <trkpt lat="45.2265" lon="5.93455">
        <ele>765.69</ele>
        <time>2019-11-25T14:27:53.000Z</time>
      </trkpt>
      <trkpt lat="45.22634" lon="5.93459">
        <ele>766.7</ele>
        <time>2019-11-25T14:27:58.000Z</time>
      </trkpt>
      <trkpt lat="45.22616" lon="5.93459">
        <ele>766.48</ele>
        <time>2019-11-25T14:28:03.000Z</time>
      </trkpt>
      <trkpt lat="45.22599" lon="5.93464">
        <ele>771.34</ele>
        <time>2019-11-25T14:28:08.000Z</time>
      </trkpt>
      <trkpt lat="45.22581" lon="5.93465">
        <ele>772.52</ele>
        <time>2019-11-25T14:28:13.000Z</time>
      </trkpt>
      <trkpt lat="45.22556" lon="5.93465">
        <ele>773.97</ele>
        <time>2019-11-25T14:28:18.000Z</time>
      </trkpt>
      <trkpt lat="45.22529" lon="5.9346">
        <ele>772.67</ele>
        <time>2019-11-25T14:28:23.000Z</time>
      </trkpt>
      <trkpt lat="45.22498" lon="5.93447">
        <ele>769.14</ele>
        <time>2019-11-25T14:28:28.000Z</time>
      </trkpt>
      <trkpt lat="45.22461" lon="5.93418">
        <ele>765.54</ele>
        <time>2019-11-25T14:28:33.000Z</time>
      </trkpt>
      <trkpt lat="45.22422" lon="5.93374">
        <ele>763.75</ele>
        <time>2019-11-25T14:28:38.000Z</time>
      </trkpt>
      <trkpt lat="45.22373" lon="5.93346">
        <ele>758.33</ele>
        <time>2019-11-25T14:28:43.000Z</time>
      </trkpt>
      <trkpt lat="45.22317" lon="5.93316">
        <ele>755.03</ele>
        <time>2019-11-25T14:28:48.000Z</time>
      </trkpt>
      <trkpt lat="45.22263" lon="5.93293">
        <ele>752.9</ele>
        <time>2019-11-25T14:28:53.000Z</time>
      </trkpt>
      <trkpt lat="45.22214" lon="5.9332">
        <ele>753.18</ele>
        <time>2019-11-25T14:28:58.000Z</time>
      </trkpt>
      <trkpt lat="45.22168" lon="5.93356">
        <ele>752.03</ele>
        <time>2019-11-25T14:29:03.000Z</time>
      </trkpt>
      <trkpt lat="45.22129" lon="5.93338">
        <ele>749.92</ele>
        <time>2019-11-25T14:29:08.000Z</time>
      </trkpt>
      <trkpt lat="45.22097" lon="5.93317">
        <ele>751.2</ele>
        <time>2019-11-25T14:29:13.000Z</time>
      </trkpt>
      <trkpt lat="45.22067" lon="5.93281">
        <ele>749.12</ele>
        <time>2019-11-25T14:29:18.000Z</time>
      </trkpt>
      <trkpt lat="45.22044" lon="5.93257">
        <ele>742.87</ele>
        <time>2019-11-25T14:29:23.000Z</time>
      </trkpt>
      <trkpt lat="45.22021" lon="5.93237">
        <ele>746.24</ele>
        <time>2019-11-25T14:29:28.000Z</time>
      </trkpt>
      <trkpt lat="45.22" lon="5.93229">
        <ele>749.15</ele>
        <time>2019-11-25T14:29:33.000Z</time>
      </trkpt>
      <trkpt lat="45.2198" lon="5.93225">
        <ele>753.02</ele>
        <time>2019-11-25T14:29:38.000Z</time>
      </trkpt>
      <trkpt lat="45.21959" lon="5.93227">
        <ele>753.66</ele>
        <time>2019-11-25T14:29:43.000Z</time>
      </trkpt>
      <trkpt lat="45.21942" lon="5.93241">
        <ele>752.83</ele>
        <time>2019-11-25T14:29:48.000Z</time>
      </trkpt>
      <trkpt lat="45.21922" lon="5.93267">
        <ele>752.8</ele>
        <time>2019-11-25T14:29:53.000Z</time>
      </trkpt>
      <trkpt lat="45.21903" lon="5.93292">
        <ele>750.35</ele>
        <time>2019-11-25T14:29:58.000Z</time>
      </trkpt>
      <trkpt lat="45.2188" lon="5.93307">
        <ele>751.17</ele>
        <time>2019-11-25T14:30:03.000Z</time>
      </trkpt>
      <trkpt lat="45.21855" lon="5.93325">
        <ele>750.73</ele>
        <time>2019-11-25T14:30:08.000Z</time>
      </trkpt>
      <trkpt lat="45.21827" lon="5.93344">
        <ele>752.42</ele>
        <time>2019-11-25T14:30:13.000Z</time>
      </trkpt>
      <trkpt lat="45.21798" lon="5.93361">
        <ele>750.81</ele>
        <time>2019-11-25T14:30:18.000Z</time>
      </trkpt>
      <trkpt lat="45.21772" lon="5.93375">
        <ele>753.83</ele>
        <time>2019-11-25T14:30:23.000Z</time>
      </trkpt>
      <trkpt lat="45.21749" lon="5.93387">
        <ele>755.63</ele>
        <time>2019-11-25T14:30:28.000Z</time>
      </trkpt>
      <trkpt lat="45.21727" lon="5.93387">
        <ele>757.2</ele>
        <time>2019-11-25T14:30:33.000Z</time>
      </trkpt>
      <trkpt lat="45.21704" lon="5.93374">
        <ele>758.1</ele>
        <time>2019-11-25T14:30:38.000Z</time>
      </trkpt>
      <trkpt lat="45.2168" lon="5.93363">
        <ele>758.8</ele>
        <time>2019-11-25T14:30:43.000Z</time>
      </trkpt>
      <trkpt lat="45.21654" lon="5.93365">
        <ele>760.21</ele>
        <time>2019-11-25T14:30:48.000Z</time>
      </trkpt>
      <trkpt lat="45.21632" lon="5.93382">
        <ele>757.96</ele>
        <time>2019-11-25T14:30:53.000Z</time>
      </trkpt>
      <trkpt lat="45.21608" lon="5.93409">
        <ele>758.67</ele>
        <time>2019-11-25T14:30:58.000Z</time>
      </trkpt>
      <trkpt lat="45.21583" lon="5.93438">
        <ele>760.32</ele>
        <time>2019-11-25T14:31:03.000Z</time>
      </trkpt>
      <trkpt lat="45.21555" lon="5.93474">
        <ele>762.26</ele>
        <time>2019-11-25T14:31:08.000Z</time>
      </trkpt>
      <trkpt lat="45.21525" lon="5.93502">
        <ele>763.6</ele>
        <time>2019-11-25T14:31:13.000Z</time>
      </trkpt>
      <trkpt lat="45.21492" lon="5.93508">
        <ele>756.71</ele>
        <time>2019-11-25T14:31:18.000Z</time>
      </trkpt>
      <trkpt lat="45.21459" lon="5.93519">
        <ele>754.63</ele>
        <time>2019-11-25T14:31:23.000Z</time>
      </trkpt>
      <trkpt lat="45.21427" lon="5.93513">
        <ele>751.92</ele>
        <time>2019-11-25T14:31:28.000Z</time>
      </trkpt>
      <trkpt lat="45.2141" lon="5.93494">
        <ele>755.12</ele>
        <time>2019-11-25T14:31:33.000Z</time>
      </trkpt>
      <trkpt lat="45.21393" lon="5.93467">
        <ele>755.9</ele>
        <time>2019-11-25T14:31:38.000Z</time>
      </trkpt>
      <trkpt lat="45.21379" lon="5.93433">
        <ele>756.72</ele>
        <time>2019-11-25T14:31:43.000Z</time>
      </trkpt>
      <trkpt lat="45.2137" lon="5.93396">
        <ele>757.66</ele>
        <time>2019-11-25T14:31:48.000Z</time>
      </trkpt>
      <trkpt lat="45.21363" lon="5.93354">
        <ele>758.61</ele>
        <time>2019-11-25T14:31:53.000Z</time>
      </trkpt>
      <trkpt lat="45.21363" lon="5.9332">
        <ele>757.09</ele>
        <time>2019-11-25T14:31:58.000Z</time>
      </trkpt>
      <trkpt lat="45.21377" lon="5.93299">
        <ele>754.3</ele>
        <time>2019-11-25T14:32:03.000Z</time>
      </trkpt>
      <trkpt lat="45.21391" lon="5.93284">
        <ele>749.74</ele>
        <time>2019-11-25T14:32:08.000Z</time>
      </trkpt>
      <trkpt lat="45.21409" lon="5.93271">
        <ele>748.45</ele>
        <time>2019-11-25T14:32:13.000Z</time>
      </trkpt>
      <trkpt lat="45.21434" lon="5.93264">
        <ele>746.85</ele>
        <time>2019-11-25T14:32:18.000Z</time>
      </trkpt>
      <trkpt lat="45.21459" lon="5.93257">
        <ele>747.12</ele>
        <time>2019-11-25T14:32:23.000Z</time>
      </trkpt>
      <trkpt lat="45.21486" lon="5.93245">
        <ele>749.81</ele>
        <time>2019-11-25T14:32:28.000Z</time>
      </trkpt>
      <trkpt lat="45.21515" lon="5.93233">
        <ele>751.74</ele>
        <time>2019-11-25T14:32:33.000Z</time>
      </trkpt>
      <trkpt lat="45.21543" lon="5.93218">
        <ele>754.04</ele>
        <time>2019-11-25T14:32:38.000Z</time>
      </trkpt>
      <trkpt lat="45.21572" lon="5.93201">
        <ele>757.35</ele>
        <time>2019-11-25T14:32:43.000Z</time>
      </trkpt>
      <trkpt lat="45.216" lon="5.9318">
        <ele>761.46</ele>
        <time>2019-11-25T14:32:48.000Z</time>
      </trkpt>
      <trkpt lat="45.21624" lon="5.9315">
        <ele>759.45</ele>
        <time>2019-11-25T14:32:53.000Z</time>
      </trkpt>
      <trkpt lat="45.2165" lon="5.93119">
        <ele>757.87</ele>
        <time>2019-11-25T14:32:58.000Z</time>
      </trkpt>
      <trkpt lat="45.21677" lon="5.93088">
        <ele>757.59</ele>
        <time>2019-11-25T14:33:03.000Z</time>
      </trkpt>
      <trkpt lat="45.21712" lon="5.93068">
        <ele>754.91</ele>
        <time>2019-11-25T14:33:08.000Z</time>
      </trkpt>
      <trkpt lat="45.21752" lon="5.93048">
        <ele>751.06</ele>
        <time>2019-11-25T14:33:13.000Z</time>
      </trkpt>
      <trkpt lat="45.21796" lon="5.93013">
        <ele>750.16</ele>
        <time>2019-11-25T14:33:18.000Z</time>
      </trkpt>
      <trkpt lat="45.21833" lon="5.92982">
        <ele>749.61</ele>
        <time>2019-11-25T14:33:23.000Z</time>
      </trkpt>
      <trkpt lat="45.21863" lon="5.92949">
        <ele>747.22</ele>
        <time>2019-11-25T14:33:28.000Z</time>
      </trkpt>
      <trkpt lat="45.21891" lon="5.92916">
        <ele>748.33</ele>
        <time>2019-11-25T14:33:33.000Z</time>
      </trkpt>
      <trkpt lat="45.2192" lon="5.92888">
        <ele>745.6</ele>
        <time>2019-11-25T14:33:38.000Z</time>
      </trkpt>
      <trkpt lat="45.2195" lon="5.92867">
        <ele>744.61</ele>
        <time>2019-11-25T14:33:43.000Z</time>
      </trkpt>
      <trkpt lat="45.21981" lon="5.92847">
        <ele>745.89</ele>
        <time>2019-11-25T14:33:48.000Z</time>
      </trkpt>
      <trkpt lat="45.22007" lon="5.92831">
        <ele>746.34</ele>
        <time>2019-11-25T14:33:53.000Z</time>
      </trkpt>
      <trkpt lat="45.22038" lon="5.92815">
        <ele>746.32</ele>
        <time>2019-11-25T14:33:58.000Z</time>
      </trkpt>
      <trkpt lat="45.2207" lon="5.92805">
        <ele>745.71</ele>
        <time>2019-11-25T14:34:03.000Z</time>
      </trkpt>
      <trkpt lat="45.22098" lon="5.92797">
        <ele>744.06</ele>
        <time>2019-11-25T14:34:08.000Z</time>
      </trkpt>
      <trkpt lat="45.22127" lon="5.92795">
        <ele>744.77</ele>
        <time>2019-11-25T14:34:13.000Z</time>
      </trkpt>
      <trkpt lat="45.22158" lon="5.92793">
        <ele>747.41</ele>
        <time>2019-11-25T14:34:18.000Z</time>
      </trkpt>
      <trkpt lat="45.2219" lon="5.92783">
        <ele>746.68</ele>
        <time>2019-11-25T14:34:23.000Z</time>
      </trkpt>
      <trkpt lat="45.22223" lon="5.92769">
        <ele>745.42</ele>
        <time>2019-11-25T14:34:28.000Z</time>
      </trkpt>
      <trkpt lat="45.22259" lon="5.9276">
        <ele>744.14</ele>
        <time>2019-11-25T14:34:33.000Z</time>
      </trkpt>
      <trkpt lat="45.2229" lon="5.92757">
        <ele>741.95</ele>
        <time>2019-11-25T14:34:38.000Z</time>
      </trkpt>
      <trkpt lat="45.2232" lon="5.92766">
        <ele>742.87</ele>
        <time>2019-11-25T14:34:43.000Z</time>
      </trkpt>
      <trkpt lat="45.22356" lon="5.9278">
        <ele>741.08</ele>
        <time>2019-11-25T14:34:48.000Z</time>
      </trkpt>
      <trkpt lat="45.22393" lon="5.92786">
        <ele>736.17</ele>
        <time>2019-11-25T14:34:53.000Z</time>
      </trkpt>
      <trkpt lat="45.22429" lon="5.92783">
        <ele>735.21</ele>
        <time>2019-11-25T14:34:58.000Z</time>
      </trkpt>
      <trkpt lat="45.22466" lon="5.92777">
        <ele>733.87</ele>
        <time>2019-11-25T14:35:03.000Z</time>
      </trkpt>
      <trkpt lat="45.22505" lon="5.92772">
        <ele>732.43</ele>
        <time>2019-11-25T14:35:08.000Z</time>
      </trkpt>
      <trkpt lat="45.22537" lon="5.92742">
        <ele>734.15</ele>
        <time>2019-11-25T14:35:13.000Z</time>
      </trkpt>
      <trkpt lat="45.22565" lon="5.92707">
        <ele>735.58</ele>
        <time>2019-11-25T14:35:18.000Z</time>
      </trkpt>
      <trkpt lat="45.22582" lon="5.92683">
        <ele>737.47</ele>
        <time>2019-11-25T14:35:23.000Z</time>
      </trkpt>
      <trkpt lat="45.22591" lon="5.92659">
        <ele>739.29</ele>
        <time>2019-11-25T14:35:28.000Z</time>
      </trkpt>
      <trkpt lat="45.22593" lon="5.92622">
        <ele>738.66</ele>
        <time>2019-11-25T14:35:33.000Z</time>
      </trkpt>
      <trkpt lat="45.22591" lon="5.92588">
        <ele>737.75</ele>
        <time>2019-11-25T14:35:38.000Z</time>
      </trkpt>
      <trkpt lat="45.22588" lon="5.92552">
        <ele>738.37</ele>
        <time>2019-11-25T14:35:43.000Z</time>
      </trkpt>
      <trkpt lat="45.22591" lon="5.92514">
        <ele>739.8</ele>
        <time>2019-11-25T14:35:48.000Z</time>
      </trkpt>
      <trkpt lat="45.22596" lon="5.92479">
        <ele>739.25</ele>
        <time>2019-11-25T14:35:53.000Z</time>
      </trkpt>
      <trkpt lat="45.22603" lon="5.92442">
        <ele>741.23</ele>
        <time>2019-11-25T14:35:58.000Z</time>
      </trkpt>
      <trkpt lat="45.22609" lon="5.92408">
        <ele>742.87</ele>
        <time>2019-11-25T14:36:03.000Z</time>
      </trkpt>
      <trkpt lat="45.22615" lon="5.92373">
        <ele>743.95</ele>
        <time>2019-11-25T14:36:08.000Z</time>
      </trkpt>
      <trkpt lat="45.22624" lon="5.92337">
        <ele>744.8</ele>
        <time>2019-11-25T14:36:13.000Z</time>
      </trkpt>
      <trkpt lat="45.2264" lon="5.92298">
        <ele>742.35</ele>
        <time>2019-11-25T14:36:18.000Z</time>
      </trkpt>
      <trkpt lat="45.22662" lon="5.92256">
        <ele>742.37</ele>
        <time>2019-11-25T14:36:23.000Z</time>
      </trkpt>
      <trkpt lat="45.22686" lon="5.92216">
        <ele>736.97</ele>
        <time>2019-11-25T14:36:28.000Z</time>
      </trkpt>
      <trkpt lat="45.22712" lon="5.92166">
        <ele>737.47</ele>
        <time>2019-11-25T14:36:33.000Z</time>
      </trkpt>
      <trkpt lat="45.22738" lon="5.92115">
        <ele>737.28</ele>
        <time>2019-11-25T14:36:38.000Z</time>
      </trkpt>
      <trkpt lat="45.22763" lon="5.92058">
        <ele>737.43</ele>
        <time>2019-11-25T14:36:43.000Z</time>
      </trkpt>
      <trkpt lat="45.22766" lon="5.91999">
        <ele>739.52</ele>
        <time>2019-11-25T14:36:48.000Z</time>
      </trkpt>
      <trkpt lat="45.22785" lon="5.91952">
        <ele>739.43</ele>
        <time>2019-11-25T14:36:53.000Z</time>
      </trkpt>
      <trkpt lat="45.22816" lon="5.91939">
        <ele>740.41</ele>
        <time>2019-11-25T14:36:58.000Z</time>
      </trkpt>
      <trkpt lat="45.22845" lon="5.91923">
        <ele>735.91</ele>
        <time>2019-11-25T14:37:03.000Z</time>
      </trkpt>
      <trkpt lat="45.22868" lon="5.91894">
        <ele>735.8</ele>
        <time>2019-11-25T14:37:08.000Z</time>
      </trkpt>
      <trkpt lat="45.22894" lon="5.91864">
        <ele>737.25</ele>
        <time>2019-11-25T14:37:13.000Z</time>
      </trkpt>
      <trkpt lat="45.22912" lon="5.91832">
        <ele>734.94</ele>
        <time>2019-11-25T14:37:18.000Z</time>
      </trkpt>
      <trkpt lat="45.22932" lon="5.91797">
        <ele>733.8</ele>
        <time>2019-11-25T14:37:23.000Z</time>
      </trkpt>
      <trkpt lat="45.22951" lon="5.91766">
        <ele>731.52</ele>
        <time>2019-11-25T14:37:28.000Z</time>
      </trkpt>
      <trkpt lat="45.22965" lon="5.91733">
        <ele>728.47</ele>
        <time>2019-11-25T14:37:33.000Z</time>
      </trkpt>
      <trkpt lat="45.22969" lon="5.91702">
        <ele>729.41</ele>
        <time>2019-11-25T14:37:38.000Z</time>
      </trkpt>
      <trkpt lat="45.22978" lon="5.91668">
        <ele>728.65</ele>
        <time>2019-11-25T14:37:43.000Z</time>
      </trkpt>
      <trkpt lat="45.2298" lon="5.91631">
        <ele>728.55</ele>
        <time>2019-11-25T14:37:48.000Z</time>
      </trkpt>
      <trkpt lat="45.22966" lon="5.91595">
        <ele>729.54</ele>
        <time>2019-11-25T14:37:53.000Z</time>
      </trkpt>
      <trkpt lat="45.22954" lon="5.9156">
        <ele>733.61</ele>
        <time>2019-11-25T14:37:58.000Z</time>
      </trkpt>
      <trkpt lat="45.22943" lon="5.91524">
        <ele>737.33</ele>
        <time>2019-11-25T14:38:03.000Z</time>
      </trkpt>
      <trkpt lat="45.22944" lon="5.91474">
        <ele>742.24</ele>
        <time>2019-11-25T14:38:08.000Z</time>
      </trkpt>
      <trkpt lat="45.22951" lon="5.91435">
        <ele>744.76</ele>
        <time>2019-11-25T14:38:13.000Z</time>
      </trkpt>
      <trkpt lat="45.22967" lon="5.91402">
        <ele>745.47</ele>
        <time>2019-11-25T14:38:18.000Z</time>
      </trkpt>
      <trkpt lat="45.22978" lon="5.91378">
        <ele>746.88</ele>
        <time>2019-11-25T14:38:23.000Z</time>
      </trkpt>
      <trkpt lat="45.22996" lon="5.91346">
        <ele>746.61</ele>
        <time>2019-11-25T14:38:28.000Z</time>
      </trkpt>
      <trkpt lat="45.23024" lon="5.91302">
        <ele>743.69</ele>
        <time>2019-11-25T14:38:33.000Z</time>
      </trkpt>
      <trkpt lat="45.23053" lon="5.91266">
        <ele>742</ele>
        <time>2019-11-25T14:38:38.000Z</time>
      </trkpt>
      <trkpt lat="45.23096" lon="5.9123">
        <ele>741.8</ele>
        <time>2019-11-25T14:38:43.000Z</time>
      </trkpt>
      <trkpt lat="45.23145" lon="5.91199">
        <ele>736.24</ele>
        <time>2019-11-25T14:38:48.000Z</time>
      </trkpt>
      <trkpt lat="45.23205" lon="5.9116">
        <ele>731.83</ele>
        <time>2019-11-25T14:38:53.000Z</time>
      </trkpt>
      <trkpt lat="45.2322" lon="5.91089">
        <ele>727.05</ele>
        <time>2019-11-25T14:38:58.000Z</time>
      </trkpt>
      <trkpt lat="45.23253" lon="5.91031">
        <ele>720</ele>
        <time>2019-11-25T14:39:03.000Z</time>
      </trkpt>
      <trkpt lat="45.23299" lon="5.90974">
        <ele>716.67</ele>
        <time>2019-11-25T14:39:08.000Z</time>
      </trkpt>
      <trkpt lat="45.23327" lon="5.90903">
        <ele>714.68</ele>
        <time>2019-11-25T14:39:13.000Z</time>
      </trkpt>
      <trkpt lat="45.23368" lon="5.90834">
        <ele>714.89</ele>
        <time>2019-11-25T14:39:18.000Z</time>
      </trkpt>
      <trkpt lat="45.23398" lon="5.9074">
        <ele>708.73</ele>
        <time>2019-11-25T14:39:23.000Z</time>
      </trkpt>
      <trkpt lat="45.23429" lon="5.90665">
        <ele>708.84</ele>
        <time>2019-11-25T14:39:28.000Z</time>
      </trkpt>
      <trkpt lat="45.23452" lon="5.90581">
        <ele>705.23</ele>
        <time>2019-11-25T14:39:33.000Z</time>
      </trkpt>
      <trkpt lat="45.2347" lon="5.90521">
        <ele>707.93</ele>
        <time>2019-11-25T14:39:38.000Z</time>
      </trkpt>
      <trkpt lat="45.23484" lon="5.90467">
        <ele>704.68</ele>
        <time>2019-11-25T14:39:43.000Z</time>
      </trkpt>
      <trkpt lat="45.2349" lon="5.9042">
        <ele>702.62</ele>
        <time>2019-11-25T14:39:48.000Z</time>
      </trkpt>
      <trkpt lat="45.23498" lon="5.90375">
        <ele>701.92</ele>
        <time>2019-11-25T14:39:53.000Z</time>
      </trkpt>
      <trkpt lat="45.23499" lon="5.9033">
        <ele>702.73</ele>
        <time>2019-11-25T14:39:58.000Z</time>
      </trkpt>
      <trkpt lat="45.23492" lon="5.90299">
        <ele>703.19</ele>
        <time>2019-11-25T14:40:03.000Z</time>
      </trkpt>
      <trkpt lat="45.23477" lon="5.90274">
        <ele>702.98</ele>
        <time>2019-11-25T14:40:08.000Z</time>
      </trkpt>
      <trkpt lat="45.23454" lon="5.90256">
        <ele>700.92</ele>
        <time>2019-11-25T14:40:13.000Z</time>
      </trkpt>
      <trkpt lat="45.23445" lon="5.90251">
        <ele>701.08</ele>
        <time>2019-11-25T14:41:03.000Z</time>
      </trkpt>
      <trkpt lat="45.23436" lon="5.90252">
        <ele>701.33</ele>
        <time>2019-11-25T14:41:09.000Z</time>
      </trkpt>
      <trkpt lat="45.23419" lon="5.90256">
        <ele>702.66</ele>
        <time>2019-11-25T14:41:14.000Z</time>
      </trkpt>
      <trkpt lat="45.23393" lon="5.9027">
        <ele>700.01</ele>
        <time>2019-11-25T14:41:19.000Z</time>
      </trkpt>
      <trkpt lat="45.23361" lon="5.90286">
        <ele>696.08</ele>
        <time>2019-11-25T14:41:24.000Z</time>
      </trkpt>
      <trkpt lat="45.23324" lon="5.90305">
        <ele>693.63</ele>
        <time>2019-11-25T14:41:29.000Z</time>
      </trkpt>
      <trkpt lat="45.2328" lon="5.90328">
        <ele>689.55</ele>
        <time>2019-11-25T14:41:34.000Z</time>
      </trkpt>
      <trkpt lat="45.23235" lon="5.90328">
        <ele>693.21</ele>
        <time>2019-11-25T14:41:39.000Z</time>
      </trkpt>
      <trkpt lat="45.23188" lon="5.90325">
        <ele>691.62</ele>
        <time>2019-11-25T14:41:44.000Z</time>
      </trkpt>
      <trkpt lat="45.2315" lon="5.90321">
        <ele>689.29</ele>
        <time>2019-11-25T14:41:49.000Z</time>
      </trkpt>
      <trkpt lat="45.23111" lon="5.90314">
        <ele>685.27</ele>
        <time>2019-11-25T14:41:54.000Z</time>
      </trkpt>
      <trkpt lat="45.23068" lon="5.90321">
        <ele>686.52</ele>
        <time>2019-11-25T14:41:59.000Z</time>
      </trkpt>
      <trkpt lat="45.23028" lon="5.9033">
        <ele>688.09</ele>
        <time>2019-11-25T14:42:04.000Z</time>
      </trkpt>
      <trkpt lat="45.22988" lon="5.90345">
        <ele>688.19</ele>
        <time>2019-11-25T14:42:09.000Z</time>
      </trkpt>
      <trkpt lat="45.22928" lon="5.90369">
        <ele>690.43</ele>
        <time>2019-11-25T14:42:16.000Z</time>
      </trkpt>
      <trkpt lat="45.22889" lon="5.90346">
        <ele>690.99</ele>
        <time>2019-11-25T14:42:21.000Z</time>
      </trkpt>
      <trkpt lat="45.2291" lon="5.90301">
        <ele>689.36</ele>
        <time>2019-11-25T14:42:26.000Z</time>
      </trkpt>
      <trkpt lat="45.22894" lon="5.9029">
        <ele>687.18</ele>
        <time>2019-11-25T14:42:31.000Z</time>
      </trkpt>
      <trkpt lat="45.22877" lon="5.9028">
        <ele>680.87</ele>
        <time>2019-11-25T14:42:36.000Z</time>
      </trkpt>
      <trkpt lat="45.22858" lon="5.90259">
        <ele>683.44</ele>
        <time>2019-11-25T14:42:41.000Z</time>
      </trkpt>
      <trkpt lat="45.22841" lon="5.90245">
        <ele>688.61</ele>
        <time>2019-11-25T14:42:46.000Z</time>
      </trkpt>
      <trkpt lat="45.22817" lon="5.90238">
        <ele>691.42</ele>
        <time>2019-11-25T14:42:51.000Z</time>
      </trkpt>
      <trkpt lat="45.22792" lon="5.90239">
        <ele>690.87</ele>
        <time>2019-11-25T14:42:56.000Z</time>
      </trkpt>
      <trkpt lat="45.22762" lon="5.90242">
        <ele>691.59</ele>
        <time>2019-11-25T14:43:01.000Z</time>
      </trkpt>
      <trkpt lat="45.22733" lon="5.90242">
        <ele>690.51</ele>
        <time>2019-11-25T14:43:06.000Z</time>
      </trkpt>
      <trkpt lat="45.22706" lon="5.90248">
        <ele>687.99</ele>
        <time>2019-11-25T14:43:11.000Z</time>
      </trkpt>
      <trkpt lat="45.22674" lon="5.90258">
        <ele>687</ele>
        <time>2019-11-25T14:43:16.000Z</time>
      </trkpt>
      <trkpt lat="45.2264" lon="5.90276">
        <ele>689.48</ele>
        <time>2019-11-25T14:43:21.000Z</time>
      </trkpt>
      <trkpt lat="45.22621" lon="5.90306">
        <ele>691.03</ele>
        <time>2019-11-25T14:43:26.000Z</time>
      </trkpt>
      <trkpt lat="45.22611" lon="5.90337">
        <ele>694.61</ele>
        <time>2019-11-25T14:43:31.000Z</time>
      </trkpt>
      <trkpt lat="45.22599" lon="5.90375">
        <ele>693.13</ele>
        <time>2019-11-25T14:43:36.000Z</time>
      </trkpt>
      <trkpt lat="45.22596" lon="5.90411">
        <ele>691.56</ele>
        <time>2019-11-25T14:43:41.000Z</time>
      </trkpt>
      <trkpt lat="45.22589" lon="5.90443">
        <ele>691.07</ele>
        <time>2019-11-25T14:43:46.000Z</time>
      </trkpt>
      <trkpt lat="45.22582" lon="5.90487">
        <ele>688.96</ele>
        <time>2019-11-25T14:43:51.000Z</time>
      </trkpt>
      <trkpt lat="45.2256" lon="5.90516">
        <ele>688.68</ele>
        <time>2019-11-25T14:43:56.000Z</time>
      </trkpt>
      <trkpt lat="45.2254" lon="5.90497">
        <ele>691.87</ele>
        <time>2019-11-25T14:44:01.000Z</time>
      </trkpt>
      <trkpt lat="45.22527" lon="5.90473">
        <ele>693.46</ele>
        <time>2019-11-25T14:44:06.000Z</time>
      </trkpt>
      <trkpt lat="45.22515" lon="5.90449">
        <ele>693.58</ele>
        <time>2019-11-25T14:44:11.000Z</time>
      </trkpt>
      <trkpt lat="45.22505" lon="5.90421">
        <ele>697.05</ele>
        <time>2019-11-25T14:44:16.000Z</time>
      </trkpt>
      <trkpt lat="45.22488" lon="5.90403">
        <ele>699.69</ele>
        <time>2019-11-25T14:44:21.000Z</time>
      </trkpt>
      <trkpt lat="45.22467" lon="5.90388">
        <ele>700.28</ele>
        <time>2019-11-25T14:44:26.000Z</time>
      </trkpt>
      <trkpt lat="45.22447" lon="5.90366">
        <ele>701.78</ele>
        <time>2019-11-25T14:44:31.000Z</time>
      </trkpt>
      <trkpt lat="45.22428" lon="5.90342">
        <ele>701.89</ele>
        <time>2019-11-25T14:44:36.000Z</time>
      </trkpt>
      <trkpt lat="45.22411" lon="5.90312">
        <ele>704.35</ele>
        <time>2019-11-25T14:44:41.000Z</time>
      </trkpt>
      <trkpt lat="45.22398" lon="5.9028">
        <ele>708.59</ele>
        <time>2019-11-25T14:44:46.000Z</time>
      </trkpt>
      <trkpt lat="45.22384" lon="5.90248">
        <ele>708.29</ele>
        <time>2019-11-25T14:44:51.000Z</time>
      </trkpt>
      <trkpt lat="45.22372" lon="5.90216">
        <ele>709.61</ele>
        <time>2019-11-25T14:44:56.000Z</time>
      </trkpt>
      <trkpt lat="45.22355" lon="5.90188">
        <ele>708.56</ele>
        <time>2019-11-25T14:45:01.000Z</time>
      </trkpt>
      <trkpt lat="45.22334" lon="5.90164">
        <ele>710.69</ele>
        <time>2019-11-25T14:45:06.000Z</time>
      </trkpt>
      <trkpt lat="45.22309" lon="5.90149">
        <ele>708.57</ele>
        <time>2019-11-25T14:45:11.000Z</time>
      </trkpt>
      <trkpt lat="45.22287" lon="5.90134">
        <ele>709.42</ele>
        <time>2019-11-25T14:45:16.000Z</time>
      </trkpt>
      <trkpt lat="45.22267" lon="5.90122">
        <ele>710.13</ele>
        <time>2019-11-25T14:45:21.000Z</time>
      </trkpt>
      <trkpt lat="45.22244" lon="5.90113">
        <ele>712.42</ele>
        <time>2019-11-25T14:45:26.000Z</time>
      </trkpt>
      <trkpt lat="45.22223" lon="5.9012">
        <ele>710.83</ele>
        <time>2019-11-25T14:45:31.000Z</time>
      </trkpt>
      <trkpt lat="45.22201" lon="5.90143">
        <ele>708.83</ele>
        <time>2019-11-25T14:45:36.000Z</time>
      </trkpt>
      <trkpt lat="45.22175" lon="5.90169">
        <ele>708.65</ele>
        <time>2019-11-25T14:45:41.000Z</time>
      </trkpt>
      <trkpt lat="45.22147" lon="5.90202">
        <ele>709.91</ele>
        <time>2019-11-25T14:45:46.000Z</time>
      </trkpt>
      <trkpt lat="45.22119" lon="5.90228">
        <ele>709.4</ele>
        <time>2019-11-25T14:45:51.000Z</time>
      </trkpt>
      <trkpt lat="45.2209" lon="5.90247">
        <ele>710.01</ele>
        <time>2019-11-25T14:45:56.000Z</time>
      </trkpt>
      <trkpt lat="45.22056" lon="5.90254">
        <ele>709.45</ele>
        <time>2019-11-25T14:46:01.000Z</time>
      </trkpt>
      <trkpt lat="45.22022" lon="5.90245">
        <ele>708.23</ele>
        <time>2019-11-25T14:46:06.000Z</time>
      </trkpt>
      <trkpt lat="45.21996" lon="5.90227">
        <ele>709.06</ele>
        <time>2019-11-25T14:46:11.000Z</time>
      </trkpt>
      <trkpt lat="45.21975" lon="5.9021">
        <ele>711.51</ele>
        <time>2019-11-25T14:46:16.000Z</time>
      </trkpt>
      <trkpt lat="45.21954" lon="5.90189">
        <ele>712.74</ele>
        <time>2019-11-25T14:46:21.000Z</time>
      </trkpt>
      <trkpt lat="45.21941" lon="5.90166">
        <ele>713.89</ele>
        <time>2019-11-25T14:46:26.000Z</time>
      </trkpt>
      <trkpt lat="45.21926" lon="5.90138">
        <ele>713.72</ele>
        <time>2019-11-25T14:46:31.000Z</time>
      </trkpt>
      <trkpt lat="45.2193" lon="5.90106">
        <ele>715.03</ele>
        <time>2019-11-25T14:46:36.000Z</time>
      </trkpt>
      <trkpt lat="45.21939" lon="5.90075">
        <ele>717.48</ele>
        <time>2019-11-25T14:46:41.000Z</time>
      </trkpt>
      <trkpt lat="45.21924" lon="5.90048">
        <ele>721.32</ele>
        <time>2019-11-25T14:46:46.000Z</time>
      </trkpt>
      <trkpt lat="45.21907" lon="5.90026">
        <ele>722.06</ele>
        <time>2019-11-25T14:46:51.000Z</time>
      </trkpt>
      <trkpt lat="45.21884" lon="5.90008">
        <ele>721.38</ele>
        <time>2019-11-25T14:46:56.000Z</time>
      </trkpt>
      <trkpt lat="45.21858" lon="5.89993">
        <ele>719.01</ele>
        <time>2019-11-25T14:47:01.000Z</time>
      </trkpt>
      <trkpt lat="45.21833" lon="5.89981">
        <ele>719.64</ele>
        <time>2019-11-25T14:47:06.000Z</time>
      </trkpt>
      <trkpt lat="45.21808" lon="5.89972">
        <ele>719.37</ele>
        <time>2019-11-25T14:47:11.000Z</time>
      </trkpt>
      <trkpt lat="45.21785" lon="5.89956">
        <ele>723.74</ele>
        <time>2019-11-25T14:47:16.000Z</time>
      </trkpt>
      <trkpt lat="45.2176" lon="5.8994">
        <ele>725.54</ele>
        <time>2019-11-25T14:47:21.000Z</time>
      </trkpt>
      <trkpt lat="45.21734" lon="5.89927">
        <ele>721.73</ele>
        <time>2019-11-25T14:47:26.000Z</time>
      </trkpt>
      <trkpt lat="45.2171" lon="5.8991">
        <ele>722.36</ele>
        <time>2019-11-25T14:47:31.000Z</time>
      </trkpt>
      <trkpt lat="45.21688" lon="5.89892">
        <ele>724.96</ele>
        <time>2019-11-25T14:47:36.000Z</time>
      </trkpt>
      <trkpt lat="45.21667" lon="5.89868">
        <ele>728.77</ele>
        <time>2019-11-25T14:47:41.000Z</time>
      </trkpt>
      <trkpt lat="45.21643" lon="5.89846">
        <ele>731.82</ele>
        <time>2019-11-25T14:47:46.000Z</time>
      </trkpt>
      <trkpt lat="45.21622" lon="5.89829">
        <ele>732.25</ele>
        <time>2019-11-25T14:47:51.000Z</time>
      </trkpt>
      <trkpt lat="45.21597" lon="5.89811">
        <ele>731.86</ele>
        <time>2019-11-25T14:47:56.000Z</time>
      </trkpt>
      <trkpt lat="45.21573" lon="5.89796">
        <ele>733.34</ele>
        <time>2019-11-25T14:48:01.000Z</time>
      </trkpt>
      <trkpt lat="45.21548" lon="5.89777">
        <ele>734.81</ele>
        <time>2019-11-25T14:48:06.000Z</time>
      </trkpt>
      <trkpt lat="45.21523" lon="5.89762">
        <ele>734.4</ele>
        <time>2019-11-25T14:48:11.000Z</time>
      </trkpt>
      <trkpt lat="45.21498" lon="5.89746">
        <ele>735.44</ele>
        <time>2019-11-25T14:48:16.000Z</time>
      </trkpt>
      <trkpt lat="45.21471" lon="5.89732">
        <ele>736.12</ele>
        <time>2019-11-25T14:48:21.000Z</time>
      </trkpt>
      <trkpt lat="45.21446" lon="5.89723">
        <ele>737.28</ele>
        <time>2019-11-25T14:48:26.000Z</time>
      </trkpt>
      <trkpt lat="45.21419" lon="5.89723">
        <ele>735.45</ele>
        <time>2019-11-25T14:48:31.000Z</time>
      </trkpt>
      <trkpt lat="45.21394" lon="5.89727">
        <ele>738.04</ele>
        <time>2019-11-25T14:48:36.000Z</time>
      </trkpt>
      <trkpt lat="45.21369" lon="5.89741">
        <ele>737.14</ele>
        <time>2019-11-25T14:48:41.000Z</time>
      </trkpt>
      <trkpt lat="45.21343" lon="5.89753">
        <ele>740.8</ele>
        <time>2019-11-25T14:48:46.000Z</time>
      </trkpt>
      <trkpt lat="45.21318" lon="5.89769">
        <ele>742.14</ele>
        <time>2019-11-25T14:48:51.000Z</time>
      </trkpt>
      <trkpt lat="45.21293" lon="5.89783">
        <ele>744.77</ele>
        <time>2019-11-25T14:48:56.000Z</time>
      </trkpt>
      <trkpt lat="45.21272" lon="5.89789">
        <ele>741.22</ele>
        <time>2019-11-25T14:49:01.000Z</time>
      </trkpt>
      <trkpt lat="45.21249" lon="5.8979">
        <ele>745.59</ele>
        <time>2019-11-25T14:49:06.000Z</time>
      </trkpt>
      <trkpt lat="45.21231" lon="5.89794">
        <ele>745.3</ele>
        <time>2019-11-25T14:49:11.000Z</time>
      </trkpt>
      <trkpt lat="45.21213" lon="5.89785">
        <ele>745.63</ele>
        <time>2019-11-25T14:49:16.000Z</time>
      </trkpt>
      <trkpt lat="45.21189" lon="5.89768">
        <ele>747</ele>
        <time>2019-11-25T14:49:21.000Z</time>
      </trkpt>
      <trkpt lat="45.21165" lon="5.89759">
        <ele>750.93</ele>
        <time>2019-11-25T14:49:26.000Z</time>
      </trkpt>
      <trkpt lat="45.21142" lon="5.89767">
        <ele>750.89</ele>
        <time>2019-11-25T14:49:31.000Z</time>
      </trkpt>
      <trkpt lat="45.21128" lon="5.89779">
        <ele>748.15</ele>
        <time>2019-11-25T14:49:36.000Z</time>
      </trkpt>
      <trkpt lat="45.21106" lon="5.89784">
        <ele>747.62</ele>
        <time>2019-11-25T14:49:41.000Z</time>
      </trkpt>
      <trkpt lat="45.21089" lon="5.89785">
        <ele>748.37</ele>
        <time>2019-11-25T14:49:46.000Z</time>
      </trkpt>
      <trkpt lat="45.21076" lon="5.89777">
        <ele>749.49</ele>
        <time>2019-11-25T14:49:51.000Z</time>
      </trkpt>
      <trkpt lat="45.21069" lon="5.89767">
        <ele>747.77</ele>
        <time>2019-11-25T14:49:56.000Z</time>
      </trkpt>
      <trkpt lat="45.21047" lon="5.89766">
        <ele>747.1</ele>
        <time>2019-11-25T14:50:01.000Z</time>
      </trkpt>
      <trkpt lat="45.21019" lon="5.8978">
        <ele>746.64</ele>
        <time>2019-11-25T14:50:06.000Z</time>
      </trkpt>
      <trkpt lat="45.20987" lon="5.89784">
        <ele>750.21</ele>
        <time>2019-11-25T14:50:11.000Z</time>
      </trkpt>
      <trkpt lat="45.20966" lon="5.89766">
        <ele>748.46</ele>
        <time>2019-11-25T14:50:16.000Z</time>
      </trkpt>
      <trkpt lat="45.20966" lon="5.89729">
        <ele>748.51</ele>
        <time>2019-11-25T14:50:21.000Z</time>
      </trkpt>
      <trkpt lat="45.20984" lon="5.897">
        <ele>753.64</ele>
        <time>2019-11-25T14:50:26.000Z</time>
      </trkpt>
      <trkpt lat="45.21006" lon="5.89676">
        <ele>752.21</ele>
        <time>2019-11-25T14:50:31.000Z</time>
      </trkpt>
      <trkpt lat="45.21019" lon="5.89647">
        <ele>749.54</ele>
        <time>2019-11-25T14:50:36.000Z</time>
      </trkpt>
      <trkpt lat="45.21024" lon="5.89611">
        <ele>748.48</ele>
        <time>2019-11-25T14:50:41.000Z</time>
      </trkpt>
      <trkpt lat="45.21022" lon="5.89564">
        <ele>748.05</ele>
        <time>2019-11-25T14:50:46.000Z</time>
      </trkpt>
      <trkpt lat="45.21024" lon="5.89517">
        <ele>748.76</ele>
        <time>2019-11-25T14:50:51.000Z</time>
      </trkpt>
      <trkpt lat="45.21035" lon="5.89471">
        <ele>751.31</ele>
        <time>2019-11-25T14:50:56.000Z</time>
      </trkpt>
      <trkpt lat="45.21054" lon="5.89432">
        <ele>748.8</ele>
        <time>2019-11-25T14:51:01.000Z</time>
      </trkpt>
      <trkpt lat="45.21074" lon="5.89393">
        <ele>750.44</ele>
        <time>2019-11-25T14:51:06.000Z</time>
      </trkpt>
      <trkpt lat="45.21094" lon="5.89355">
        <ele>749.22</ele>
        <time>2019-11-25T14:51:11.000Z</time>
      </trkpt>
      <trkpt lat="45.21118" lon="5.89317">
        <ele>748.44</ele>
        <time>2019-11-25T14:51:16.000Z</time>
      </trkpt>
      <trkpt lat="45.21142" lon="5.89294">
        <ele>745.61</ele>
        <time>2019-11-25T14:51:21.000Z</time>
      </trkpt>
      <trkpt lat="45.21163" lon="5.8929">
        <ele>745.85</ele>
        <time>2019-11-25T14:51:26.000Z</time>
      </trkpt>
      <trkpt lat="45.21183" lon="5.8929">
        <ele>752.39</ele>
        <time>2019-11-25T14:51:31.000Z</time>
      </trkpt>
      <trkpt lat="45.21197" lon="5.89259">
        <ele>751.76</ele>
        <time>2019-11-25T14:51:36.000Z</time>
      </trkpt>
      <trkpt lat="45.21203" lon="5.89224">
        <ele>753.89</ele>
        <time>2019-11-25T14:51:41.000Z</time>
      </trkpt>
      <trkpt lat="45.21227" lon="5.89194">
        <ele>757.6</ele>
        <time>2019-11-25T14:51:46.000Z</time>
      </trkpt>
      <trkpt lat="45.21242" lon="5.89188">
        <ele>757.07</ele>
        <time>2019-11-25T14:51:51.000Z</time>
      </trkpt>
      <trkpt lat="45.21258" lon="5.89177">
        <ele>756.2</ele>
        <time>2019-11-25T14:51:56.000Z</time>
      </trkpt>
      <trkpt lat="45.21275" lon="5.8916">
        <ele>754.39</ele>
        <time>2019-11-25T14:52:01.000Z</time>
      </trkpt>
      <trkpt lat="45.2129" lon="5.89156">
        <ele>756.74</ele>
        <time>2019-11-25T14:52:06.000Z</time>
      </trkpt>
      <trkpt lat="45.21307" lon="5.89147">
        <ele>756.23</ele>
        <time>2019-11-25T14:52:11.000Z</time>
      </trkpt>
      <trkpt lat="45.21338" lon="5.89131">
        <ele>758.72</ele>
        <time>2019-11-25T14:52:16.000Z</time>
      </trkpt>
      <trkpt lat="45.21363" lon="5.89115">
        <ele>756.76</ele>
        <time>2019-11-25T14:52:21.000Z</time>
      </trkpt>
      <trkpt lat="45.21377" lon="5.89106">
        <ele>759.92</ele>
        <time>2019-11-25T14:52:26.000Z</time>
      </trkpt>
      <trkpt lat="45.21397" lon="5.89087">
        <ele>763.35</ele>
        <time>2019-11-25T14:52:31.000Z</time>
      </trkpt>
      <trkpt lat="45.21427" lon="5.89065">
        <ele>761.69</ele>
        <time>2019-11-25T14:52:36.000Z</time>
      </trkpt>
      <trkpt lat="45.21444" lon="5.89055">
        <ele>760.59</ele>
        <time>2019-11-25T14:52:41.000Z</time>
      </trkpt>
      <trkpt lat="45.21464" lon="5.89053">
        <ele>762.74</ele>
        <time>2019-11-25T14:52:46.000Z</time>
      </trkpt>
      <trkpt lat="45.21484" lon="5.89047">
        <ele>763.09</ele>
        <time>2019-11-25T14:52:51.000Z</time>
      </trkpt>
      <trkpt lat="45.21506" lon="5.89039">
        <ele>767.55</ele>
        <time>2019-11-25T14:52:56.000Z</time>
      </trkpt>
      <trkpt lat="45.21533" lon="5.89024">
        <ele>765.48</ele>
        <time>2019-11-25T14:53:01.000Z</time>
      </trkpt>
      <trkpt lat="45.21557" lon="5.89016">
        <ele>774.78</ele>
        <time>2019-11-25T14:53:06.000Z</time>
      </trkpt>
      <trkpt lat="45.21579" lon="5.89004">
        <ele>774.94</ele>
        <time>2019-11-25T14:53:11.000Z</time>
      </trkpt>
      <trkpt lat="45.21598" lon="5.88991">
        <ele>775.05</ele>
        <time>2019-11-25T14:53:16.000Z</time>
      </trkpt>
      <trkpt lat="45.21618" lon="5.88976">
        <ele>781.43</ele>
        <time>2019-11-25T14:53:21.000Z</time>
      </trkpt>
      <trkpt lat="45.2164" lon="5.88957">
        <ele>785.42</ele>
        <time>2019-11-25T14:53:26.000Z</time>
      </trkpt>
      <trkpt lat="45.21661" lon="5.88942">
        <ele>787.92</ele>
        <time>2019-11-25T14:53:31.000Z</time>
      </trkpt>
      <trkpt lat="45.21682" lon="5.88927">
        <ele>789.4</ele>
        <time>2019-11-25T14:53:36.000Z</time>
      </trkpt>
      <trkpt lat="45.21698" lon="5.88905">
        <ele>790.48</ele>
        <time>2019-11-25T14:53:41.000Z</time>
      </trkpt>
      <trkpt lat="45.21701" lon="5.88879">
        <ele>790.72</ele>
        <time>2019-11-25T14:53:46.000Z</time>
      </trkpt>
      <trkpt lat="45.21692" lon="5.88861">
        <ele>793.24</ele>
        <time>2019-11-25T14:53:51.000Z</time>
      </trkpt>
      <trkpt lat="45.21671" lon="5.8885">
        <ele>792.78</ele>
        <time>2019-11-25T14:53:56.000Z</time>
      </trkpt>
      <trkpt lat="45.2164" lon="5.88832">
        <ele>793.87</ele>
        <time>2019-11-25T14:54:01.000Z</time>
      </trkpt>
      <trkpt lat="45.21601" lon="5.88804">
        <ele>791.38</ele>
        <time>2019-11-25T14:54:06.000Z</time>
      </trkpt>
      <trkpt lat="45.21562" lon="5.88753">
        <ele>789.64</ele>
        <time>2019-11-25T14:54:11.000Z</time>
      </trkpt>
      <trkpt lat="45.21513" lon="5.88699">
        <ele>786.17</ele>
        <time>2019-11-25T14:54:16.000Z</time>
      </trkpt>
      <trkpt lat="45.21481" lon="5.88618">
        <ele>780.2</ele>
        <time>2019-11-25T14:54:21.000Z</time>
      </trkpt>
      <trkpt lat="45.21453" lon="5.88541">
        <ele>776.55</ele>
        <time>2019-11-25T14:54:26.000Z</time>
      </trkpt>
      <trkpt lat="45.21426" lon="5.88447">
        <ele>772.18</ele>
        <time>2019-11-25T14:54:31.000Z</time>
      </trkpt>
      <trkpt lat="45.21421" lon="5.88363">
        <ele>760.94</ele>
        <time>2019-11-25T14:54:36.000Z</time>
      </trkpt>
      <trkpt lat="45.21386" lon="5.88313">
        <ele>758.24</ele>
        <time>2019-11-25T14:54:41.000Z</time>
      </trkpt>
      <trkpt lat="45.21332" lon="5.88335">
        <ele>754.92</ele>
        <time>2019-11-25T14:54:46.000Z</time>
      </trkpt>
      <trkpt lat="45.21288" lon="5.88356">
        <ele>753.35</ele>
        <time>2019-11-25T14:54:51.000Z</time>
      </trkpt>
      <trkpt lat="45.21242" lon="5.88357">
        <ele>752.13</ele>
        <time>2019-11-25T14:54:56.000Z</time>
      </trkpt>
      <trkpt lat="45.212" lon="5.88357">
        <ele>752.17</ele>
        <time>2019-11-25T14:55:01.000Z</time>
      </trkpt>
      <trkpt lat="45.21162" lon="5.88347">
        <ele>752.05</ele>
        <time>2019-11-25T14:55:06.000Z</time>
      </trkpt>
      <trkpt lat="45.21123" lon="5.88338">
        <ele>749.74</ele>
        <time>2019-11-25T14:55:11.000Z</time>
      </trkpt>
      <trkpt lat="45.2109" lon="5.88328">
        <ele>748.27</ele>
        <time>2019-11-25T14:55:16.000Z</time>
      </trkpt>
      <trkpt lat="45.21057" lon="5.88305">
        <ele>749.09</ele>
        <time>2019-11-25T14:55:21.000Z</time>
      </trkpt>
      <trkpt lat="45.21027" lon="5.88289">
        <ele>751</ele>
        <time>2019-11-25T14:55:26.000Z</time>
      </trkpt>
      <trkpt lat="45.20996" lon="5.88285">
        <ele>751.14</ele>
        <time>2019-11-25T14:55:31.000Z</time>
      </trkpt>
      <trkpt lat="45.20963" lon="5.88277">
        <ele>747.58</ele>
        <time>2019-11-25T14:55:36.000Z</time>
      </trkpt>
      <trkpt lat="45.20932" lon="5.88269">
        <ele>745.89</ele>
        <time>2019-11-25T14:55:41.000Z</time>
      </trkpt>
      <trkpt lat="45.20904" lon="5.88259">
        <ele>746.9</ele>
        <time>2019-11-25T14:55:46.000Z</time>
      </trkpt>
      <trkpt lat="45.20873" lon="5.88265">
        <ele>746.64</ele>
        <time>2019-11-25T14:55:51.000Z</time>
      </trkpt>
      <trkpt lat="45.20849" lon="5.88286">
        <ele>747.01</ele>
        <time>2019-11-25T14:55:56.000Z</time>
      </trkpt>
      <trkpt lat="45.20811" lon="5.88321">
        <ele>743.22</ele>
        <time>2019-11-25T14:56:01.000Z</time>
      </trkpt>
      <trkpt lat="45.20773" lon="5.88338">
        <ele>744.06</ele>
        <time>2019-11-25T14:56:06.000Z</time>
      </trkpt>
      <trkpt lat="45.20728" lon="5.88344">
        <ele>741.96</ele>
        <time>2019-11-25T14:56:11.000Z</time>
      </trkpt>
      <trkpt lat="45.20681" lon="5.88326">
        <ele>734.64</ele>
        <time>2019-11-25T14:56:16.000Z</time>
      </trkpt>
      <trkpt lat="45.20656" lon="5.88266">
        <ele>731.85</ele>
        <time>2019-11-25T14:56:21.000Z</time>
      </trkpt>
      <trkpt lat="45.20618" lon="5.88233">
        <ele>730.22</ele>
        <time>2019-11-25T14:56:26.000Z</time>
      </trkpt>
      <trkpt lat="45.20594" lon="5.8818">
        <ele>725.68</ele>
        <time>2019-11-25T14:56:31.000Z</time>
      </trkpt>
      <trkpt lat="45.20576" lon="5.88145">
        <ele>726.2</ele>
        <time>2019-11-25T14:56:36.000Z</time>
      </trkpt>
      <trkpt lat="45.20551" lon="5.88132">
        <ele>723.47</ele>
        <time>2019-11-25T14:56:41.000Z</time>
      </trkpt>
      <trkpt lat="45.20521" lon="5.88136">
        <ele>719.4</ele>
        <time>2019-11-25T14:56:46.000Z</time>
      </trkpt>
      <trkpt lat="45.20496" lon="5.88148">
        <ele>720.29</ele>
        <time>2019-11-25T14:56:51.000Z</time>
      </trkpt>
      <trkpt lat="45.20458" lon="5.88143">
        <ele>719.66</ele>
        <time>2019-11-25T14:56:56.000Z</time>
      </trkpt>
      <trkpt lat="45.20424" lon="5.88135">
        <ele>720.07</ele>
        <time>2019-11-25T14:57:01.000Z</time>
      </trkpt>
      <trkpt lat="45.20395" lon="5.88131">
        <ele>721.81</ele>
        <time>2019-11-25T14:57:06.000Z</time>
      </trkpt>
      <trkpt lat="45.20366" lon="5.88142">
        <ele>722.69</ele>
        <time>2019-11-25T14:57:11.000Z</time>
      </trkpt>
      <trkpt lat="45.20335" lon="5.88162">
        <ele>721.31</ele>
        <time>2019-11-25T14:57:16.000Z</time>
      </trkpt>
      <trkpt lat="45.20314" lon="5.88187">
        <ele>721.63</ele>
        <time>2019-11-25T14:57:21.000Z</time>
      </trkpt>
      <trkpt lat="45.20293" lon="5.88208">
        <ele>723.14</ele>
        <time>2019-11-25T14:57:26.000Z</time>
      </trkpt>
      <trkpt lat="45.20271" lon="5.88219">
        <ele>724.47</ele>
        <time>2019-11-25T14:57:31.000Z</time>
      </trkpt>
      <trkpt lat="45.2025" lon="5.88221">
        <ele>726.69</ele>
        <time>2019-11-25T14:57:36.000Z</time>
      </trkpt>
      <trkpt lat="45.20231" lon="5.88222">
        <ele>727.9</ele>
        <time>2019-11-25T14:57:41.000Z</time>
      </trkpt>
      <trkpt lat="45.20213" lon="5.88214">
        <ele>729.02</ele>
        <time>2019-11-25T14:57:46.000Z</time>
      </trkpt>
      <trkpt lat="45.20195" lon="5.88198">
        <ele>729.58</ele>
        <time>2019-11-25T14:57:51.000Z</time>
      </trkpt>
      <trkpt lat="45.20179" lon="5.88182">
        <ele>729.85</ele>
        <time>2019-11-25T14:57:56.000Z</time>
      </trkpt>
      <trkpt lat="45.20166" lon="5.88165">
        <ele>730.35</ele>
        <time>2019-11-25T14:58:01.000Z</time>
      </trkpt>
      <trkpt lat="45.20157" lon="5.88146">
        <ele>732.78</ele>
        <time>2019-11-25T14:58:06.000Z</time>
      </trkpt>
      <trkpt lat="45.20146" lon="5.88129">
        <ele>734.22</ele>
        <time>2019-11-25T14:58:11.000Z</time>
      </trkpt>
      <trkpt lat="45.20143" lon="5.88105">
        <ele>732.19</ele>
        <time>2019-11-25T14:58:16.000Z</time>
      </trkpt>
      <trkpt lat="45.20146" lon="5.88081">
        <ele>736.74</ele>
        <time>2019-11-25T14:58:21.000Z</time>
      </trkpt>
      <trkpt lat="45.20148" lon="5.88057">
        <ele>734.11</ele>
        <time>2019-11-25T14:58:26.000Z</time>
      </trkpt>
      <trkpt lat="45.20148" lon="5.8803">
        <ele>735.72</ele>
        <time>2019-11-25T14:58:31.000Z</time>
      </trkpt>
      <trkpt lat="45.20148" lon="5.88">
        <ele>740.58</ele>
        <time>2019-11-25T14:58:36.000Z</time>
      </trkpt>
      <trkpt lat="45.20144" lon="5.87976">
        <ele>742.89</ele>
        <time>2019-11-25T14:58:41.000Z</time>
      </trkpt>
      <trkpt lat="45.20137" lon="5.87951">
        <ele>744.81</ele>
        <time>2019-11-25T14:58:46.000Z</time>
      </trkpt>
      <trkpt lat="45.20131" lon="5.87923">
        <ele>745.98</ele>
        <time>2019-11-25T14:58:51.000Z</time>
      </trkpt>
      <trkpt lat="45.20127" lon="5.87896">
        <ele>747.83</ele>
        <time>2019-11-25T14:58:56.000Z</time>
      </trkpt>
      <trkpt lat="45.20121" lon="5.87872">
        <ele>751.02</ele>
        <time>2019-11-25T14:59:01.000Z</time>
      </trkpt>
      <trkpt lat="45.20118" lon="5.87855">
        <ele>751</ele>
        <time>2019-11-25T14:59:06.000Z</time>
      </trkpt>
      <trkpt lat="45.20118" lon="5.87838">
        <ele>750.26</ele>
        <time>2019-11-25T14:59:11.000Z</time>
      </trkpt>
      <trkpt lat="45.2012" lon="5.87817">
        <ele>751.93</ele>
        <time>2019-11-25T14:59:16.000Z</time>
      </trkpt>
      <trkpt lat="45.20124" lon="5.87788">
        <ele>752.52</ele>
        <time>2019-11-25T14:59:21.000Z</time>
      </trkpt>
      <trkpt lat="45.2013" lon="5.87759">
        <ele>753.48</ele>
        <time>2019-11-25T14:59:26.000Z</time>
      </trkpt>
      <trkpt lat="45.20135" lon="5.87726">
        <ele>759.95</ele>
        <time>2019-11-25T14:59:31.000Z</time>
      </trkpt>
      <trkpt lat="45.20139" lon="5.87701">
        <ele>761.61</ele>
        <time>2019-11-25T14:59:36.000Z</time>
      </trkpt>
      <trkpt lat="45.2014" lon="5.87674">
        <ele>761.12</ele>
        <time>2019-11-25T14:59:41.000Z</time>
      </trkpt>
      <trkpt lat="45.20134" lon="5.87644">
        <ele>762.2</ele>
        <time>2019-11-25T14:59:46.000Z</time>
      </trkpt>
      <trkpt lat="45.20124" lon="5.87602">
        <ele>763.49</ele>
        <time>2019-11-25T14:59:51.000Z</time>
      </trkpt>
      <trkpt lat="45.20116" lon="5.87569">
        <ele>763.7</ele>
        <time>2019-11-25T14:59:56.000Z</time>
      </trkpt>
      <trkpt lat="45.20109" lon="5.87538">
        <ele>762.5</ele>
        <time>2019-11-25T15:00:01.000Z</time>
      </trkpt>
      <trkpt lat="45.20107" lon="5.8751">
        <ele>765.7</ele>
        <time>2019-11-25T15:00:06.000Z</time>
      </trkpt>
      <trkpt lat="45.20112" lon="5.8748">
        <ele>770.78</ele>
        <time>2019-11-25T15:00:11.000Z</time>
      </trkpt>
      <trkpt lat="45.20122" lon="5.87453">
        <ele>770.55</ele>
        <time>2019-11-25T15:00:16.000Z</time>
      </trkpt>
      <trkpt lat="45.20137" lon="5.87427">
        <ele>769.54</ele>
        <time>2019-11-25T15:00:21.000Z</time>
      </trkpt>
      <trkpt lat="45.20147" lon="5.8741">
        <ele>774.3</ele>
        <time>2019-11-25T15:00:26.000Z</time>
      </trkpt>
      <trkpt lat="45.20153" lon="5.8738">
        <ele>778.02</ele>
        <time>2019-11-25T15:00:31.000Z</time>
      </trkpt>
      <trkpt lat="45.20151" lon="5.87352">
        <ele>777.49</ele>
        <time>2019-11-25T15:00:36.000Z</time>
      </trkpt>
      <trkpt lat="45.20143" lon="5.87324">
        <ele>783.93</ele>
        <time>2019-11-25T15:00:41.000Z</time>
      </trkpt>
      <trkpt lat="45.20136" lon="5.87297">
        <ele>786.14</ele>
        <time>2019-11-25T15:00:46.000Z</time>
      </trkpt>
      <trkpt lat="45.20127" lon="5.87274">
        <ele>788.78</ele>
        <time>2019-11-25T15:00:51.000Z</time>
      </trkpt>
      <trkpt lat="45.20118" lon="5.87251">
        <ele>787.75</ele>
        <time>2019-11-25T15:00:56.000Z</time>
      </trkpt>
      <trkpt lat="45.20105" lon="5.87225">
        <ele>787.05</ele>
        <time>2019-11-25T15:01:01.000Z</time>
      </trkpt>
      <trkpt lat="45.2009" lon="5.87203">
        <ele>787.95</ele>
        <time>2019-11-25T15:01:06.000Z</time>
      </trkpt>
      <trkpt lat="45.20075" lon="5.87179">
        <ele>789.71</ele>
        <time>2019-11-25T15:01:11.000Z</time>
      </trkpt>
      <trkpt lat="45.20067" lon="5.87153">
        <ele>791.29</ele>
        <time>2019-11-25T15:01:16.000Z</time>
      </trkpt>
      <trkpt lat="45.20059" lon="5.87127">
        <ele>792.59</ele>
        <time>2019-11-25T15:01:21.000Z</time>
      </trkpt>
      <trkpt lat="45.20056" lon="5.871">
        <ele>794.41</ele>
        <time>2019-11-25T15:01:26.000Z</time>
      </trkpt>
      <trkpt lat="45.20056" lon="5.87075">
        <ele>793.98</ele>
        <time>2019-11-25T15:01:31.000Z</time>
      </trkpt>
      <trkpt lat="45.20062" lon="5.87043">
        <ele>795.19</ele>
        <time>2019-11-25T15:01:36.000Z</time>
      </trkpt>
      <trkpt lat="45.20067" lon="5.87012">
        <ele>797.49</ele>
        <time>2019-11-25T15:01:41.000Z</time>
      </trkpt>
      <trkpt lat="45.20074" lon="5.86984">
        <ele>796.25</ele>
        <time>2019-11-25T15:01:46.000Z</time>
      </trkpt>
      <trkpt lat="45.20078" lon="5.8695">
        <ele>797.9</ele>
        <time>2019-11-25T15:01:51.000Z</time>
      </trkpt>
      <trkpt lat="45.20083" lon="5.86921">
        <ele>798.99</ele>
        <time>2019-11-25T15:01:56.000Z</time>
      </trkpt>
      <trkpt lat="45.20083" lon="5.8689">
        <ele>804.1</ele>
        <time>2019-11-25T15:02:01.000Z</time>
      </trkpt>
      <trkpt lat="45.2007" lon="5.86859">
        <ele>805.89</ele>
        <time>2019-11-25T15:02:06.000Z</time>
      </trkpt>
      <trkpt lat="45.20056" lon="5.86829">
        <ele>809.31</ele>
        <time>2019-11-25T15:02:11.000Z</time>
      </trkpt>
      <trkpt lat="45.20045" lon="5.86803">
        <ele>812.92</ele>
        <time>2019-11-25T15:02:16.000Z</time>
      </trkpt>
      <trkpt lat="45.20034" lon="5.8678">
        <ele>815.75</ele>
        <time>2019-11-25T15:02:21.000Z</time>
      </trkpt>
      <trkpt lat="45.20021" lon="5.86755">
        <ele>818.2</ele>
        <time>2019-11-25T15:02:26.000Z</time>
      </trkpt>
      <trkpt lat="45.20006" lon="5.86733">
        <ele>818.92</ele>
        <time>2019-11-25T15:02:31.000Z</time>
      </trkpt>
      <trkpt lat="45.19988" lon="5.86716">
        <ele>823.82</ele>
        <time>2019-11-25T15:02:36.000Z</time>
      </trkpt>
      <trkpt lat="45.1997" lon="5.8671">
        <ele>824.89</ele>
        <time>2019-11-25T15:02:41.000Z</time>
      </trkpt>
      <trkpt lat="45.19952" lon="5.86713">
        <ele>825.59</ele>
        <time>2019-11-25T15:02:46.000Z</time>
      </trkpt>
      <trkpt lat="45.19933" lon="5.86718">
        <ele>827</ele>
        <time>2019-11-25T15:02:51.000Z</time>
      </trkpt>
      <trkpt lat="45.19914" lon="5.86725">
        <ele>829.66</ele>
        <time>2019-11-25T15:02:56.000Z</time>
      </trkpt>
      <trkpt lat="45.19893" lon="5.86727">
        <ele>829.53</ele>
        <time>2019-11-25T15:03:01.000Z</time>
      </trkpt>
      <trkpt lat="45.19872" lon="5.86729">
        <ele>831.13</ele>
        <time>2019-11-25T15:03:06.000Z</time>
      </trkpt>
      <trkpt lat="45.19851" lon="5.86727">
        <ele>834.76</ele>
        <time>2019-11-25T15:03:11.000Z</time>
      </trkpt>
      <trkpt lat="45.19829" lon="5.86723">
        <ele>835.48</ele>
        <time>2019-11-25T15:03:16.000Z</time>
      </trkpt>
      <trkpt lat="45.19808" lon="5.8672">
        <ele>838.25</ele>
        <time>2019-11-25T15:03:21.000Z</time>
      </trkpt>
      <trkpt lat="45.19788" lon="5.86715">
        <ele>840.95</ele>
        <time>2019-11-25T15:03:26.000Z</time>
      </trkpt>
      <trkpt lat="45.19767" lon="5.86713">
        <ele>844.31</ele>
        <time>2019-11-25T15:03:31.000Z</time>
      </trkpt>
      <trkpt lat="45.19747" lon="5.86714">
        <ele>846.99</ele>
        <time>2019-11-25T15:03:36.000Z</time>
      </trkpt>
      <trkpt lat="45.19729" lon="5.86725">
        <ele>847.06</ele>
        <time>2019-11-25T15:03:41.000Z</time>
      </trkpt>
      <trkpt lat="45.19714" lon="5.86749">
        <ele>847</ele>
        <time>2019-11-25T15:03:46.000Z</time>
      </trkpt>
      <trkpt lat="45.19713" lon="5.86781">
        <ele>848.05</ele>
        <time>2019-11-25T15:03:51.000Z</time>
      </trkpt>
      <trkpt lat="45.19714" lon="5.86811">
        <ele>849.63</ele>
        <time>2019-11-25T15:03:56.000Z</time>
      </trkpt>
      <trkpt lat="45.19706" lon="5.86838">
        <ele>854.02</ele>
        <time>2019-11-25T15:04:01.000Z</time>
      </trkpt>
      <trkpt lat="45.19689" lon="5.86854">
        <ele>857.74</ele>
        <time>2019-11-25T15:04:06.000Z</time>
      </trkpt>
      <trkpt lat="45.19666" lon="5.86855">
        <ele>857.7</ele>
        <time>2019-11-25T15:04:11.000Z</time>
      </trkpt>
      <trkpt lat="45.19646" lon="5.86855">
        <ele>857.57</ele>
        <time>2019-11-25T15:04:16.000Z</time>
      </trkpt>
      <trkpt lat="45.19625" lon="5.86858">
        <ele>858.41</ele>
        <time>2019-11-25T15:04:21.000Z</time>
      </trkpt>
      <trkpt lat="45.19605" lon="5.86859">
        <ele>860.27</ele>
        <time>2019-11-25T15:04:26.000Z</time>
      </trkpt>
      <trkpt lat="45.19584" lon="5.86863">
        <ele>859.16</ele>
        <time>2019-11-25T15:04:31.000Z</time>
      </trkpt>
      <trkpt lat="45.19563" lon="5.86865">
        <ele>861.78</ele>
        <time>2019-11-25T15:04:36.000Z</time>
      </trkpt>
      <trkpt lat="45.19543" lon="5.86874">
        <ele>864.03</ele>
        <time>2019-11-25T15:04:41.000Z</time>
      </trkpt>
      <trkpt lat="45.19527" lon="5.86898">
        <ele>866.71</ele>
        <time>2019-11-25T15:04:46.000Z</time>
      </trkpt>
      <trkpt lat="45.19524" lon="5.86927">
        <ele>868.11</ele>
        <time>2019-11-25T15:04:51.000Z</time>
      </trkpt>
      <trkpt lat="45.19524" lon="5.86955">
        <ele>870.4</ele>
        <time>2019-11-25T15:04:56.000Z</time>
      </trkpt>
      <trkpt lat="45.19528" lon="5.86986">
        <ele>871.16</ele>
        <time>2019-11-25T15:05:01.000Z</time>
      </trkpt>
      <trkpt lat="45.19536" lon="5.87014">
        <ele>872.45</ele>
        <time>2019-11-25T15:05:06.000Z</time>
      </trkpt>
      <trkpt lat="45.19549" lon="5.87041">
        <ele>872.66</ele>
        <time>2019-11-25T15:05:11.000Z</time>
      </trkpt>
      <trkpt lat="45.19563" lon="5.87064">
        <ele>874.03</ele>
        <time>2019-11-25T15:05:16.000Z</time>
      </trkpt>
      <trkpt lat="45.19579" lon="5.87084">
        <ele>875.27</ele>
        <time>2019-11-25T15:05:21.000Z</time>
      </trkpt>
      <trkpt lat="45.19593" lon="5.87108">
        <ele>874.83</ele>
        <time>2019-11-25T15:05:26.000Z</time>
      </trkpt>
      <trkpt lat="45.19611" lon="5.87133">
        <ele>875.09</ele>
        <time>2019-11-25T15:05:31.000Z</time>
      </trkpt>
      <trkpt lat="45.1963" lon="5.87158">
        <ele>873.65</ele>
        <time>2019-11-25T15:05:36.000Z</time>
      </trkpt>
      <trkpt lat="45.19649" lon="5.87183">
        <ele>872.87</ele>
        <time>2019-11-25T15:05:41.000Z</time>
      </trkpt>
      <trkpt lat="45.19665" lon="5.87217">
        <ele>870.87</ele>
        <time>2019-11-25T15:05:46.000Z</time>
      </trkpt>
      <trkpt lat="45.19673" lon="5.87258">
        <ele>871.59</ele>
        <time>2019-11-25T15:05:51.000Z</time>
      </trkpt>
      <trkpt lat="45.19675" lon="5.87301">
        <ele>869.77</ele>
        <time>2019-11-25T15:05:56.000Z</time>
      </trkpt>
      <trkpt lat="45.19677" lon="5.87345">
        <ele>868.23</ele>
        <time>2019-11-25T15:06:01.000Z</time>
      </trkpt>
      <trkpt lat="45.1968" lon="5.87386">
        <ele>868.7</ele>
        <time>2019-11-25T15:06:06.000Z</time>
      </trkpt>
      <trkpt lat="45.19681" lon="5.87423">
        <ele>870.02</ele>
        <time>2019-11-25T15:06:11.000Z</time>
      </trkpt>
      <trkpt lat="45.1968" lon="5.87457">
        <ele>870.52</ele>
        <time>2019-11-25T15:06:16.000Z</time>
      </trkpt>
      <trkpt lat="45.19677" lon="5.87484">
        <ele>873.61</ele>
        <time>2019-11-25T15:06:21.000Z</time>
      </trkpt>
      <trkpt lat="45.19666" lon="5.87505">
        <ele>871.09</ele>
        <time>2019-11-25T15:06:26.000Z</time>
      </trkpt>
      <trkpt lat="45.19647" lon="5.87528">
        <ele>874.85</ele>
        <time>2019-11-25T15:06:31.000Z</time>
      </trkpt>
      <trkpt lat="45.1963" lon="5.87559">
        <ele>877.32</ele>
        <time>2019-11-25T15:06:36.000Z</time>
      </trkpt>
      <trkpt lat="45.19612" lon="5.87581">
        <ele>878.7</ele>
        <time>2019-11-25T15:06:41.000Z</time>
      </trkpt>
      <trkpt lat="45.19597" lon="5.87599">
        <ele>881.06</ele>
        <time>2019-11-25T15:06:46.000Z</time>
      </trkpt>
      <trkpt lat="45.19579" lon="5.87622">
        <ele>880.11</ele>
        <time>2019-11-25T15:06:51.000Z</time>
      </trkpt>
      <trkpt lat="45.19558" lon="5.87646">
        <ele>881.85</ele>
        <time>2019-11-25T15:06:56.000Z</time>
      </trkpt>
      <trkpt lat="45.19534" lon="5.87656">
        <ele>878.13</ele>
        <time>2019-11-25T15:07:01.000Z</time>
      </trkpt>
      <trkpt lat="45.19512" lon="5.87663">
        <ele>879.24</ele>
        <time>2019-11-25T15:07:06.000Z</time>
      </trkpt>
      <trkpt lat="45.19488" lon="5.87664">
        <ele>877.6</ele>
        <time>2019-11-25T15:07:11.000Z</time>
      </trkpt>
      <trkpt lat="45.19465" lon="5.87663">
        <ele>881.03</ele>
        <time>2019-11-25T15:07:16.000Z</time>
      </trkpt>
      <trkpt lat="45.19442" lon="5.87666">
        <ele>883.82</ele>
        <time>2019-11-25T15:07:21.000Z</time>
      </trkpt>
      <trkpt lat="45.19418" lon="5.87666">
        <ele>883.36</ele>
        <time>2019-11-25T15:07:26.000Z</time>
      </trkpt>
      <trkpt lat="45.19395" lon="5.87666">
        <ele>885.26</ele>
        <time>2019-11-25T15:07:31.000Z</time>
      </trkpt>
      <trkpt lat="45.19373" lon="5.87682">
        <ele>890.89</ele>
        <time>2019-11-25T15:07:36.000Z</time>
      </trkpt>
      <trkpt lat="45.19357" lon="5.87707">
        <ele>891.27</ele>
        <time>2019-11-25T15:07:41.000Z</time>
      </trkpt>
      <trkpt lat="45.1935" lon="5.87732">
        <ele>890.78</ele>
        <time>2019-11-25T15:07:46.000Z</time>
      </trkpt>
      <trkpt lat="45.19347" lon="5.87757">
        <ele>891.79</ele>
        <time>2019-11-25T15:07:51.000Z</time>
      </trkpt>
      <trkpt lat="45.19346" lon="5.87771">
        <ele>889.07</ele>
        <time>2019-11-25T15:07:57.000Z</time>
      </trkpt>
      <trkpt lat="45.19347" lon="5.87787">
        <ele>888.8</ele>
        <time>2019-11-25T15:08:02.000Z</time>
      </trkpt>
      <trkpt lat="45.19346" lon="5.87809">
        <ele>888.94</ele>
        <time>2019-11-25T15:08:07.000Z</time>
      </trkpt>
      <trkpt lat="45.19344" lon="5.87834">
        <ele>885.74</ele>
        <time>2019-11-25T15:08:12.000Z</time>
      </trkpt>
      <trkpt lat="45.19344" lon="5.8786">
        <ele>885.76</ele>
        <time>2019-11-25T15:08:17.000Z</time>
      </trkpt>
      <trkpt lat="45.19347" lon="5.87883">
        <ele>886.11</ele>
        <time>2019-11-25T15:08:22.000Z</time>
      </trkpt>
      <trkpt lat="45.19351" lon="5.87905">
        <ele>884.91</ele>
        <time>2019-11-25T15:08:27.000Z</time>
      </trkpt>
      <trkpt lat="45.19359" lon="5.87928">
        <ele>884.25</ele>
        <time>2019-11-25T15:08:32.000Z</time>
      </trkpt>
      <trkpt lat="45.19373" lon="5.87951">
        <ele>884.28</ele>
        <time>2019-11-25T15:08:37.000Z</time>
      </trkpt>
      <trkpt lat="45.19388" lon="5.87977">
        <ele>880.2</ele>
        <time>2019-11-25T15:08:42.000Z</time>
      </trkpt>
      <trkpt lat="45.19407" lon="5.88005">
        <ele>880.83</ele>
        <time>2019-11-25T15:08:47.000Z</time>
      </trkpt>
      <trkpt lat="45.19425" lon="5.88042">
        <ele>881.98</ele>
        <time>2019-11-25T15:08:52.000Z</time>
      </trkpt>
      <trkpt lat="45.19434" lon="5.88091">
        <ele>880.05</ele>
        <time>2019-11-25T15:08:57.000Z</time>
      </trkpt>
      <trkpt lat="45.1943" lon="5.88142">
        <ele>880.85</ele>
        <time>2019-11-25T15:09:02.000Z</time>
      </trkpt>
      <trkpt lat="45.19413" lon="5.88193">
        <ele>875.04</ele>
        <time>2019-11-25T15:09:07.000Z</time>
      </trkpt>
      <trkpt lat="45.1939" lon="5.88232">
        <ele>878.11</ele>
        <time>2019-11-25T15:09:12.000Z</time>
      </trkpt>
      <trkpt lat="45.19393" lon="5.88274">
        <ele>874.66</ele>
        <time>2019-11-25T15:09:17.000Z</time>
      </trkpt>
      <trkpt lat="45.19382" lon="5.88308">
        <ele>869.53</ele>
        <time>2019-11-25T15:09:22.000Z</time>
      </trkpt>
      <trkpt lat="45.19376" lon="5.88356">
        <ele>866.34</ele>
        <time>2019-11-25T15:09:27.000Z</time>
      </trkpt>
      <trkpt lat="45.19364" lon="5.884">
        <ele>862.74</ele>
        <time>2019-11-25T15:09:32.000Z</time>
      </trkpt>
      <trkpt lat="45.19343" lon="5.8843">
        <ele>860.2</ele>
        <time>2019-11-25T15:09:37.000Z</time>
      </trkpt>
      <trkpt lat="45.19321" lon="5.88438">
        <ele>856.89</ele>
        <time>2019-11-25T15:09:42.000Z</time>
      </trkpt>
      <trkpt lat="45.19301" lon="5.88442">
        <ele>854.37</ele>
        <time>2019-11-25T15:09:47.000Z</time>
      </trkpt>
      <trkpt lat="45.19284" lon="5.88448">
        <ele>852.94</ele>
        <time>2019-11-25T15:09:52.000Z</time>
      </trkpt>
      <trkpt lat="45.19262" lon="5.88457">
        <ele>851.32</ele>
        <time>2019-11-25T15:09:57.000Z</time>
      </trkpt>
      <trkpt lat="45.19228" lon="5.88468">
        <ele>851.02</ele>
        <time>2019-11-25T15:10:02.000Z</time>
      </trkpt>
      <trkpt lat="45.19183" lon="5.88469">
        <ele>848.89</ele>
        <time>2019-11-25T15:10:07.000Z</time>
      </trkpt>
      <trkpt lat="45.19126" lon="5.8846">
        <ele>844.56</ele>
        <time>2019-11-25T15:10:12.000Z</time>
      </trkpt>
      <trkpt lat="45.1907" lon="5.88454">
        <ele>844.41</ele>
        <time>2019-11-25T15:10:17.000Z</time>
      </trkpt>
      <trkpt lat="45.19007" lon="5.88458">
        <ele>843.54</ele>
        <time>2019-11-25T15:10:22.000Z</time>
      </trkpt>
      <trkpt lat="45.18937" lon="5.88471">
        <ele>838.57</ele>
        <time>2019-11-25T15:10:27.000Z</time>
      </trkpt>
      <trkpt lat="45.18877" lon="5.88481">
        <ele>837.71</ele>
        <time>2019-11-25T15:10:32.000Z</time>
      </trkpt>
      <trkpt lat="45.18825" lon="5.88462">
        <ele>830.47</ele>
        <time>2019-11-25T15:10:37.000Z</time>
      </trkpt>
      <trkpt lat="45.18783" lon="5.88415">
        <ele>833.67</ele>
        <time>2019-11-25T15:10:42.000Z</time>
      </trkpt>
      <trkpt lat="45.18759" lon="5.88358">
        <ele>831.45</ele>
        <time>2019-11-25T15:10:47.000Z</time>
      </trkpt>
      <trkpt lat="45.18731" lon="5.88314">
        <ele>829.55</ele>
        <time>2019-11-25T15:10:52.000Z</time>
      </trkpt>
      <trkpt lat="45.18712" lon="5.88267">
        <ele>827.34</ele>
        <time>2019-11-25T15:10:57.000Z</time>
      </trkpt>
      <trkpt lat="45.18708" lon="5.88215">
        <ele>825.05</ele>
        <time>2019-11-25T15:11:02.000Z</time>
      </trkpt>
      <trkpt lat="45.18714" lon="5.88156">
        <ele>823.86</ele>
        <time>2019-11-25T15:11:07.000Z</time>
      </trkpt>
      <trkpt lat="45.18721" lon="5.88088">
        <ele>821.7</ele>
        <time>2019-11-25T15:11:12.000Z</time>
      </trkpt>
      <trkpt lat="45.18703" lon="5.88013">
        <ele>814.17</ele>
        <time>2019-11-25T15:11:17.000Z</time>
      </trkpt>
      <trkpt lat="45.18672" lon="5.87934">
        <ele>809.38</ele>
        <time>2019-11-25T15:11:22.000Z</time>
      </trkpt>
      <trkpt lat="45.18623" lon="5.87873">
        <ele>803.91</ele>
        <time>2019-11-25T15:11:27.000Z</time>
      </trkpt>
      <trkpt lat="45.18566" lon="5.87837">
        <ele>798.55</ele>
        <time>2019-11-25T15:11:32.000Z</time>
      </trkpt>
      <trkpt lat="45.18507" lon="5.87802">
        <ele>790.59</ele>
        <time>2019-11-25T15:11:37.000Z</time>
      </trkpt>
      <trkpt lat="45.18448" lon="5.8779">
        <ele>785.14</ele>
        <time>2019-11-25T15:11:42.000Z</time>
      </trkpt>
      <trkpt lat="45.18392" lon="5.8783">
        <ele>781.19</ele>
        <time>2019-11-25T15:11:47.000Z</time>
      </trkpt>
      <trkpt lat="45.18337" lon="5.8789">
        <ele>775.2</ele>
        <time>2019-11-25T15:11:52.000Z</time>
      </trkpt>
      <trkpt lat="45.18286" lon="5.87965">
        <ele>767.58</ele>
        <time>2019-11-25T15:11:57.000Z</time>
      </trkpt>
      <trkpt lat="45.18257" lon="5.88016">
        <ele>762.06</ele>
        <time>2019-11-25T15:12:02.000Z</time>
      </trkpt>
      <trkpt lat="45.18249" lon="5.8801">
        <ele>758.89</ele>
        <time>2019-11-25T15:12:07.000Z</time>
      </trkpt>
      <trkpt lat="45.1825" lon="5.87996">
        <ele>753.63</ele>
        <time>2019-11-25T15:12:12.000Z</time>
      </trkpt>
      <trkpt lat="45.18258" lon="5.87976">
        <ele>752.25</ele>
        <time>2019-11-25T15:12:17.000Z</time>
      </trkpt>
      <trkpt lat="45.1826" lon="5.87938">
        <ele>748.36</ele>
        <time>2019-11-25T15:12:22.000Z</time>
      </trkpt>
      <trkpt lat="45.18258" lon="5.87907">
        <ele>747.81</ele>
        <time>2019-11-25T15:12:27.000Z</time>
      </trkpt>
      <trkpt lat="45.18258" lon="5.87894">
        <ele>744.54</ele>
        <time>2019-11-25T15:12:32.000Z</time>
      </trkpt>
      <trkpt lat="45.18265" lon="5.87857">
        <ele>742</ele>
        <time>2019-11-25T15:12:37.000Z</time>
      </trkpt>
      <trkpt lat="45.18277" lon="5.87806">
        <ele>736.32</ele>
        <time>2019-11-25T15:12:42.000Z</time>
      </trkpt>
      <trkpt lat="45.18291" lon="5.87737">
        <ele>732.65</ele>
        <time>2019-11-25T15:12:47.000Z</time>
      </trkpt>
      <trkpt lat="45.18298" lon="5.87698">
        <ele>728.71</ele>
        <time>2019-11-25T15:12:52.000Z</time>
      </trkpt>
      <trkpt lat="45.18297" lon="5.87679">
        <ele>724.33</ele>
        <time>2019-11-25T15:12:57.000Z</time>
      </trkpt>
      <trkpt lat="45.18305" lon="5.87647">
        <ele>720.8</ele>
        <time>2019-11-25T15:13:02.000Z</time>
      </trkpt>
      <trkpt lat="45.18318" lon="5.87606">
        <ele>719.45</ele>
        <time>2019-11-25T15:13:07.000Z</time>
      </trkpt>
      <trkpt lat="45.18331" lon="5.87561">
        <ele>719.94</ele>
        <time>2019-11-25T15:13:12.000Z</time>
      </trkpt>
      <trkpt lat="45.1834" lon="5.8752">
        <ele>717.16</ele>
        <time>2019-11-25T15:13:17.000Z</time>
      </trkpt>
      <trkpt lat="45.18354" lon="5.87479">
        <ele>711.51</ele>
        <time>2019-11-25T15:13:22.000Z</time>
      </trkpt>
      <trkpt lat="45.18368" lon="5.87441">
        <ele>708.15</ele>
        <time>2019-11-25T15:13:27.000Z</time>
      </trkpt>
      <trkpt lat="45.1838" lon="5.87407">
        <ele>703.05</ele>
        <time>2019-11-25T15:13:32.000Z</time>
      </trkpt>
      <trkpt lat="45.1838" lon="5.87387">
        <ele>694.38</ele>
        <time>2019-11-25T15:13:37.000Z</time>
      </trkpt>
      <trkpt lat="45.18384" lon="5.87387">
        <ele>696.55</ele>
        <time>2019-11-25T15:14:04.000Z</time>
      </trkpt>
    </trkseg>
  </trk>
</gpx>